     2              OBSERVATION DATA    GPS                 RINEX VERSION / TYPE
teqc 2000Feb29 20021016 17:30:57UTC                         PGM / RUN BY / DATE
                                                            COMMENT
L2: 1 -> 1; 5 -> 5; 60 -> 9                                 COMMENT
L2: 1 -> 1; 5 -> 5; 60 -> 9                                 COMMENT
L2: 1 -> 1; 5 -> 5; 60 -> 9                                 COMMENT
L2: 1 -> 1; 5 -> 5; 60 -> 9                                 COMMENT
L2: 1 -> 1; 5 -> 5; 60 -> 9                                 COMMENT
Original Marker Name: T849                                  COMMENT
Campaign Name: Yolo County Subsidence 2002                  COMMENT
4-Character Station Name: T849                              COMMENT
6-Character Antenna Code: TRMCMP                            COMMENT
Vertical Measurement Point: BPA                             COMMENT
Vertical Offset to Rinex Ref. Point: 0.0000                 COMMENT
Radial Measurement Point: RRP                               COMMENT
Radial Offset to Rinex Ref. Point: 0.0000                   COMMENT
Antenna Height from Field Measurement: 2.0000 m             COMMENT
Additional Antenna Identification Info.:                    COMMENT
Model 22020.00+GP                                           COMMENT
Original XYZ: -2631692.4942 -4225419.1822 3974199.8740      COMMENT
New XYZ position is based on association with SCEC monument COMMENT
E1O4H0O8+0011. Position of that monument is believed to be  COMMENT
valid to within 1 m horizontally; vertical accuracy         COMMENT
should be no worse than 3-times this value.                 COMMENT
                                                            COMMENT
Revised Rinex header created by UCSD GPS archive for        COMMENT
GSAC on 27-Jun-2003 (2003:178) 16:39:55 GMT                 COMMENT
For assistance contact dagnew@ucsd.edu                      COMMENT
or anderson@python.ucsd.edu                                 COMMENT
                                                            COMMENT
T849 1949                                                   MARKER NAME
T849                                                        MARKER NUMBER
-Unknown- YOLO_COUNTY                                       OBSERVER / AGENCY
16905 TRIMBLE 4000 SSI NP 7.32; SP 3.08                     REC # / TYPE / VERS
67408 TR GEOD L1/L2 GP                                      ANT # / TYPE
 -2631695.4719 -4225420.0701  3974198.7495                  APPROX POSITION XYZ
        2.0000        0.0000        0.0000                  ANTENNA: DELTA H/E/N
     1     1     0                                          WAVELENGTH FACT L1/2
     7    C1    L1    L2    P1    P2    S1    S2            # / TYPES OF OBSERV
     0                                                      INTERVAL
  2002     7     9    20    15   30.000000                  TIME OF FIRST OBS
  2002     7     9    21    20   15.000000                  TIME OF LAST OBS
                                                            END OF HEADER
 02  7  9 20 15 30.0000000  0  9G 3G 9G11G14G15G31G18G21G25
  23301690.5004     206384.19456     24224.47956                  23301699.3404
        18.2504         18.0004
  24308396.6174     173459.38655      2922.57455                  24308405.6094
         8.5004          9.7504
  24375149.3834     -76399.38154
         6.7504
  20474396.1644      73581.43557     15104.85657                  20474400.6174
        26.7504         29.5004
  24379483.1724     264802.15556
        12.2504
  22759513.1414     109538.08156     12716.94556                  22759519.7154
        17.5004         17.5004
  23682213.9144     171938.39556     19791.78656                  23682220.1024
        14.0004         12.5004
  21580334.2894     105803.94958      4091.21357                  21580340.8054
        28.2504         27.0004
  24297350.3674     -76477.79455     -1227.10755                  24297361.9614
        10.0004         11.7504
 02  7  9 20 15 45.0000000  0  9G 3G 9G11G14G15G31G18G21G25
  23314436.9224     273367.01146     76418.85146                  23314445.5984
        18.2504         18.0004
  24319171.6254     230078.26545     47041.11545                  24319181.8954
         7.5004          8.5004
  24370708.0394     -99738.31745     -4815.40455                  24370716.2464
         8.0004          8.7504
  20479103.8834      98321.19347     34382.59947                  20479108.4774
        26.7504         29.5004
  24394524.5944     343847.11545     45198.28055                  24394535.4494
         9.7504          9.7504
  22767352.9774     150735.21346     44818.57246                  22767360.0594
        17.7504         17.7504
  23694358.8914     235759.46746     69522.46546                  23694365.5124
        13.5004         12.7504
  21587882.7894     145472.05948     35001.39447                  21587889.2934
        28.2504         27.0004
  24292894.8444     -99885.46445    -19466.59145                  24292907.1054
         8.2504         10.7504
 02  7  9 20 16  0.0000000  0  9G 3G 9G11G14G15G31G18G21G25
  23327265.1954     340779.11846    128947.70446                  23327273.9064
        17.7504         18.0004
  24330040.5554     287196.88645     91549.11845                  24330048.3754
         8.0004          8.5004
  24366343.0474    -122676.92545    -22689.60545                  24366348.8244
         9.2504          8.7504
  20483906.9774     123561.01547     54049.99047                  20483911.4654
        26.7504         29.2504
  24409644.3364     423305.06545    107113.46845                  24409656.0124
         9.7504         11.0004
  22775288.0394     192434.28046     77311.33546                  22775295.2974
        18.0004         18.0004
  23706578.6484     299972.34846    119558.42146                  23706585.4454
        13.5004         12.5004
  21595510.1414     185555.19848     66234.99647                  21595516.6454
        28.0004         27.0004
  24288513.6174    -122913.89145    -37410.66445                  24288520.9454
         9.5004         10.0004
 02  7  9 20 16 15.0000000  0  9G 3G 9G11G14G15G31G18G21G25
  23340164.5394     408567.44346    181769.69746                  23340172.9224
        17.5004         17.2504
  24340994.8284     344762.13645    136405.11345                  24341002.1684
         9.0004          9.0004
  24362044.2814    -145267.45145    -40292.56745                  24362051.8554
        10.5004         10.5004
  20488795.1804     149248.07047     74065.87447                  20488799.8444
        26.7504         29.2504
  24424834.7504     503123.11245    169309.26945                  24424842.3594
        11.0004          7.7504
  22783308.6884     234582.33646    110153.95746                  22783315.6294
        18.2504         17.7504
  23718861.6414     364524.19546    169858.53446                  23718867.8164
        14.0004         12.2504
  21603206.6884     226000.58548     97750.87147                  21603213.1804
        28.0004         27.2504
  24284193.4304    -145615.39045    -55100.03645                  24284203.8164
         9.2504         10.7504
 02  7  9 20 16 30.0000000  0  9G 3G 9G11G14G15G31G18G21G25
  23353128.2664     476691.18946    234853.09146                  23353136.4264
        17.0004         16.5004
  24352027.1644     402733.46845    181577.57245                  24352037.0124
         9.5004          9.7504
  24357804.0704    -167550.24345    -57655.75345                  24357811.5394
        11.7504         11.0004
  20493760.3284     175341.78947     94398.64647                  20493764.9924
        26.7504         29.2504
  24440081.8134     583260.34945    231753.86945                  24440090.8284
         7.5004          9.2504
  22791406.9384     277138.72346    143314.75546                  22791413.5824
        18.5004         18.2504
  23731202.2974     429374.55746    220391.24245                  23731209.0354
        13.5004         11.7504
  21610964.3674     266767.72148    129517.45947                  21610970.9654
        28.5004         27.2504
  24279928.6174    -168030.16345    -72565.90445                  24279939.5084
        11.0004         11.2504
 02  7  9 20 16 45.0000000  0  9G 3G 9G11G14G15G31G18G21G25
  23366147.8834     545108.99846    288165.61346                  23366156.4884
        17.0004         16.5004
  24363128.5234     461069.59945    227034.25745                  24363137.4104
         9.0004         10.2504
  24353615.0394    -189566.03746    -74810.90345                  24353622.6484
        12.5004         11.5004
  20498795.6024     201800.97747    115016.19647                  20498800.0554
        26.7504         29.2504
  24455386.7274     663675.72845    294415.01345                  24455394.1254
        11.5004          8.0004
  22799574.8524     320062.11546    176761.52546                  22799581.2504
        18.7504         18.7504
  23743591.9844     494482.43546    271124.62446                  23743598.9844
        12.7504         12.0004
  21618775.7504     307815.79248    161502.95347                  21618782.1484
        29.0004         27.7504
  24275709.8984    -190198.93045    -89840.13245                  24275721.2114
        10.2504         10.7504
 02  7  9 20 17  0.0000000  0  9G 3G 9G11G14G15G31G18G21G25
  23379215.1254     613777.95246    341673.83346                  23379223.4264
        16.5004         16.0004
  24374289.1094     519727.83545    272741.91545                  24374298.5704
         7.7504          9.0004
  24349467.9774    -211357.02646    -91790.85045                  24349475.5394
        12.7504         11.0004
  20503892.1804     228583.13147    135885.40447                  20503896.4804
        26.7504         29.2504
  24470731.9064     744326.52844    357259.85945                  24470743.4304
         7.2504          8.2504
  22807804.8754     363309.97746    210461.14246                  22807811.7464
        18.7504         18.5004
  23756023.1414     559805.22746    322025.46346                  23756030.7274
        12.5004         12.5004
  21626632.4534     349102.35148    193674.28947                  21626638.7234
        28.7504         27.7504
  24271530.4064    -212163.80145   -106955.40645                  24271542.0354
        11.5004         11.5004
 02  7  9 20 17 15.0010000  0  9G 3G 9G11G14G15G31G18G21G25
  23392327.4744     682684.73346    395367.37646                  23392335.3644
        16.2504         15.7504
  24385511.0914     578694.27345    318689.78745                  24385520.0364
         8.0004          9.2504
  24345360.7714    -232942.00446   -108610.28145                  24345367.3334
        12.5004         10.2504
  20509047.0994     255672.27647    156993.83247                  20509051.4934
        27.0004         29.2504
  24486123.0214     825200.34145    420278.20745                  24486132.7044
         9.0004          8.7504
  22816093.6924     406867.32946    244401.91746                  22816100.4194
        18.5004         18.7504
  23768491.9664     625329.71846    373083.46345                  23768498.5754
        13.0004         11.7504
  21634531.3024     390612.51748    226019.85647                  21634537.7244
        29.2504         27.7504
  24267384.7314    -233943.29245   -123926.23845                  24267396.7824
        10.5004         11.5004
 02  7  9 20 17 30.0010000  0  9G 3G 9G11G14G15G31G18G21G25
  23405483.5834     751820.49446    449239.34146                  23405491.7434
        16.5004         15.2504
  24396789.3804     637961.40045    364871.89445                  24396797.3884
         9.2504         10.0004
  24341293.0834    -254317.13446   -125266.19145                  24341298.3924
        12.5004         10.5004
  20514259.7944     283065.57047    178339.25247                  20514264.2124
        27.0004         29.2504
  24501553.6384     906287.07445    483462.65845                  24501564.4234
         8.2504          8.5004
  22824440.1384     450728.86746    278579.71346                  22824447.5244
        18.2504         18.7504
  23780997.9744     691047.86346    424292.38046                  23781004.6064
        13.5004         12.0004
  21642472.3564     432341.61648    258536.02747                  21642478.8724
        29.5004         28.2504
  24263276.3884    -255533.51345   -140749.64645                  24263286.6464
        11.5004         11.7504
 02  7  9 20 17 45.0010000  0  9G 3G 9G11G14G15G31G18G21G25
  23418679.3804     821165.62546    503274.45246                  23418687.5404
        15.5004         15.7504
  24408121.0054     697509.05545    411272.64545                  24408128.5214
        10.7504         10.5004
  24337260.1854    -275507.34245   -141778.01345                  24337267.2084
        11.0004          9.2504
  20519526.1144     310740.80447    199904.37247                  20519530.3804
        27.0004         29.5004
  24517020.1534     987567.92445    546798.27345                  24517030.3764
         7.7504          8.5004
  22832840.3334     494873.44946    312978.07346                  22832847.7554
        18.2504         18.2504
  23793536.4744     756940.16846    475636.97546                  23793542.8374
        14.5004         12.0004
  21650450.6064     474268.44748    291206.27347                  21650457.2164
        29.7504         28.2504
  24259198.5914    -276959.40945   -157445.00845                  24259208.3334
         9.5004          9.5004
 02  7  9 20 18  0.0010000  0  9G 3G 9G11G14G15G31G18G21G25
  23431915.2944     890718.49246    557471.43046                  23431923.8174
        15.7504         15.0004
  24419505.8804     757335.77145    457890.82245                  24419514.6144
        10.7504         10.5004
  24333263.2164    -296513.67445   -158146.52545                  24333269.0634
        11.0004          9.5004
  20524845.9274     338696.63747    221688.13947                  20524850.3214
        26.7504         29.2504
  24532524.4194    1069041.51645    610284.12045                  24532535.1224
         8.7504          9.0004
  22841294.3414     539299.55346    347595.79446                  22841301.7514
        17.5004         18.0004
  23806108.3104     823005.37346    527116.32646                  23806115.7204
        14.0004         12.0004
  21658466.5604     516391.93548    324029.76347                  21658472.9934
        29.5004         28.5004
  24255153.0524    -298221.85645   -174013.00745                  24255161.7164
        10.2504          9.5004
 02  7  9 20 18 15.0010000  0  9G 3G 9G11G14G15G31G18G21G25
  23445191.2244     960485.35246    611835.16146                  23445200.1574
        15.5004         14.7504
  24430945.1144     817447.96745    504731.50945                  24430953.1694
        10.2504         10.2504
  24329302.0754                     -11074.16455
        10.2504
  20530220.4424     366939.59647    243695.64147                  20530224.8254
        26.7504         29.5004
  24548067.5994    1150714.25045    673925.03945                  24548075.7004
        10.2504          8.0004
  22849803.2864     584013.62346    382437.90846                  22849810.7904
        17.2504         18.0004
  23818714.5994     889250.05046    578735.52746                  23818721.5404
        14.5004         12.0004
  21666521.1854     558718.57448    357011.54847                  21666527.7004
        30.0004         28.2504
  24251138.8804    -319314.02345   -190448.25545                  24251146.6064
        10.7504          8.2504
 02  7  9 20 18 30.0010000  0  9G 3G 9G11G14G15G31G18G21G25
  23458505.9034    1030451.85746    666354.46246                  23458514.3214
        15.7504         15.2504
  24442435.4894     877831.42045    551783.54345                  24442444.8564
         9.7504         10.5004
  24325374.4274                     -31712.52545
        11.2504
  20535646.8334     395455.56347    265915.87847                  20535651.3334
        27.0004         29.2504
  24563643.1384    1232571.91845    737710.32145                  24563653.3604
         9.2504          9.0004
  22858364.1534     629001.46546    417493.34646                  22858371.4234
        17.5004         18.5004
  23831351.6614     955660.26746    630483.72045                  23831358.2004
        13.0004         11.7504
  21674611.5754     601234.44948    390140.79147                  21674617.8564
        30.2504         28.2504
  24247155.2084    -340249.39046   -206761.40445                  24247164.0134
        12.7504         10.5004
 02  7  9 20 18 45.0010000  0  9G 3G 9G11G14G15G31G18G21G25
  23471855.8724    1100607.02646    721020.76146                  23471864.9464
        15.2504         15.2504
  24453975.5214     938475.19145    599038.34145                  24453983.5054
        10.0004         10.2504
  24321478.8804                     -52184.24045
        10.5004
  20541122.9034     424233.77247    288340.45647                  20541127.2864
        27.5004         29.7504
  24579254.0284    1314603.81545    801631.09945                  24579265.2944
         9.5004          9.0004
  22866974.9664     674252.21146    452753.65546                  22866982.4464
        17.7504         18.5004
  23844018.9194    1022225.28746    682352.55145                  23844025.6924
        13.0004         11.7504
  21682736.0994     643929.05248    423409.29947                  21682742.4744
        30.0004         28.0004
  24243198.9114    -361038.27945   -222960.42345                  24243208.1144
        11.7504         11.7504
 02  7  9 20 19  0.0010000  0  9G 3G 9G11G14G15G31G18G21G25
  23485245.1384    1170968.16046    775847.56946                  23485253.5674
        15.0004         15.2504
  24465568.7784     999396.76545    646509.63845                  24465578.1814
        10.7504         11.0004
  24317618.5834                     -72471.28545
        11.7504
  20546652.7474     453291.82447    310983.09247                  20546657.1424
        27.2504         29.7504
  24594899.3494    1396827.34345    865701.36645                  24594911.2714
         7.7504          8.2504
  22875639.4664     719783.34946    488232.43246                  22875647.2984
        17.7504         18.5004
  23856718.5054    1088962.87246    734355.80845                  23856724.2354
        13.5004         11.2504
  21690898.0444     686820.05148    456830.84747                  21690904.3724
        30.0004         28.2504
  24239273.8644    -381662.72945   -239031.24545                  24239285.3534
         9.5004         11.0004
 02  7  9 20 19 15.0010000  0  9G 3G 9G11G14G15G31G18G21G25
  23498675.6774    1241545.31246    830842.67446                  23498684.6464
        14.7504         15.0004
  24477216.4114    1060606.21445    694205.27845                  24477225.4854
        11.2504         11.2504
  24313794.9744     -92563.00545    -14606.03355                  24313800.2244
        11.0004         10.0004
  20552237.5364     482639.95647    333851.77147                  20552242.2474
        27.2504         29.7504
  24610586.0214    1479252.63045    929928.74845                  24610597.5674
        10.0004         10.2504
  22884358.7244     765604.98946    523937.58146                  22884366.2744
        17.5004         18.2504
  23869453.2634    1155883.13346    786501.42946                  23869459.3564
        14.7504         12.2504
  21699099.1774     729917.93648    490413.60547                  21699105.7044
        30.0004         28.0004
  24235383.3644    -402111.96746   -254965.53245                  24235393.9034
        12.7504         11.0004
 02  7  9 20 19 30.0010000  0  9G 3G 9G11G14G15G31G18G21G25
  23512146.7944    1312337.05746    886005.01546                  23512155.9384
        14.7504         15.5004
  24488918.5524    1122102.33746    742124.28645                  24488927.5094
        12.2504         11.5004
  24310008.8254    -112460.09245    -30110.15745                  24310014.0874
        11.5004         10.2504
  20557877.1384     512277.01847    356945.58447                  20557881.8494
        27.0004         29.5004
  24626309.4894    1561878.49445    994312.40545                  24626318.8214
         9.2504          8.7504
  22893133.5914     811715.87746    559868.12646                  22893140.8374
        17.7504         18.0004
  23882221.8024    1222985.10646    838788.65846                  23882228.8964
        14.0004         12.7504
  21707339.7164     773221.43248    524156.57847                  21707346.3374
        30.0004         27.7504
  24231524.3254    -422386.76046   -270763.92345                  24231533.7164
        12.7504         10.5004
 02  7  9 20 19 45.0010000  0  9G 3G 9G11G14G15G31G18G21G25
  23525659.2864    1383347.50746    941337.76146                  23525668.1854
        14.7504         15.2504
  24500675.7714    1183889.11945    790269.81545                  24500683.8134
        11.0004         10.2504
  24306260.1694    -132157.90545    -45459.09045                  24306266.6494
        11.0004         11.0004
  20563572.6924     542207.35147    380267.92847                  20563577.1344
        27.0004         29.5004
  24642071.2004    1644709.13045   1058855.75545                  24642080.0054
         9.7504          9.7504
  22901964.2164     858120.17146    596027.29246                  22901971.2044
        18.7504         18.0004
  23895026.2714    1290273.35346    891220.99246                  23895031.4624
        14.2504         12.2504
  21715619.9894     816735.07948    558063.30547                  21715626.6344
        29.5004         27.7504
  24227700.0444    -442482.26246   -286422.64046                  24227709.5404
        12.5004         12.0004
 02  7  9 20 20  0.0010000  0  9G 3G 9G11G14G15G31G18G21G25
  23539217.0444    1454590.25346    996851.52846                  23539225.5324
        14.7504         15.2504
  24512491.8564    1245980.50945    838652.67645                  24512500.6734
        10.7504          9.5004
  24302552.4814    -151642.08545    -60641.51745                  24302559.9274
        11.0004         10.7504
  20569326.7784     572444.83547    403829.60447                  20569331.2084
        27.0004         29.5004
  24657875.0604    1727758.53845   1123569.45545                  24657886.4784
         8.5004          7.5004
  22910852.9894     904831.73446    632425.90946                  22910859.9424
        18.7504         18.0004
  23907868.6304    1357761.77046    943809.35045                  23907874.2554
        13.2504         11.0004
  21723943.0524     860473.02248    592144.81147                  21723949.4974
        29.0004         27.5004
  24223912.9504    -462384.06445   -301930.38845                  24223922.6694
        11.0004         11.5004
 02  7  9 20 20 15.0010000  0  9G 3G 9G11G14G15G31G18G21G25
  23552816.2394    1526057.13946   1052539.94346                  23552825.1734
        15.2504         15.2504
  24524364.1224    1308368.51245    887266.66245                  24524372.3534
        10.5004          9.2504
  24298884.3174    -170920.21445    -75663.39445                  24298891.6344
        11.2504         11.0004
  20575137.6064     602981.58247    427624.47547                  20575142.0134
        27.0004         29.5004
  24673717.7864    1811018.45245   1188447.25445                  24673727.2944
         8.0004          8.7504
  22919799.1534     951842.52146    669057.67146                  22919806.1184
        19.0004         18.2504
  23920748.3024    1425442.61246    996547.62545                  23920754.9464
        13.2504         11.7504
  21732307.3804     904427.47248    626395.02647                  21732313.8374
        28.7504         27.0004
  24220161.8804    -482099.56246   -317292.97745                  24220171.6814
        13.2504         11.5004
 02  7  9 20 20 30.0010000  0  9G 3G 9G11G14G15G31G18G21G25
  23566456.0754    1597733.64246   1108391.71046                  23566464.8104
        14.7504         15.5004
  24536289.4274    1371038.63945    936100.47945                  24536297.2944
        10.0004          9.0004
  24295251.8884    -190006.17645    -90535.52245                  24295258.8644
        11.2504         11.2504
  20581003.0604     633803.35047    451641.43447                  20581007.4784
        27.5004         29.7504
  24689600.8174    1894474.84145   1253478.09145                  24689610.2204
         8.7504          7.5004
  22928799.1464     999138.20346    705911.42346                  22928806.5444
        18.5004         18.5004
  23933661.4584    1493301.68646   1049424.80046                  23933668.5874
        13.5004         12.2504
  21740710.1304     948584.32448    660802.95347                  21740716.3294
        29.0004         27.2504
  24216441.9424    -501642.78845   -332521.28045                  24216451.9314
        11.5004         11.0004
 02  7  9 20 20 45.0010000  0  9G 3G 9G11G14G15G31G18G21G25
  23580134.1694    1669611.42546   1164400.29146                  23580143.4424
        15.7504         15.5004
  24548268.0524    1433982.60145    985147.70645                  24548274.6964
        11.5004          9.5004
  24291655.0524    -208907.70946   -105263.96445                  24291661.3564
        12.2504         11.5004
  20586920.6464     664901.94647    475874.10647                  20586925.2864
        27.2504         29.7504
  24705517.0444    1978119.21945   1318655.53445                  24705526.7984
         7.5004          8.0004
  22937851.6774    1046710.44846    742980.67946                  22937858.9814
        18.0004         18.2504
  23946607.2714    1561330.89446   1102434.51245                  23946614.3174
        13.7504         11.7504
  21749149.6304     992935.61848    695362.39747                  21749155.9354
        28.2504         26.7504
  24212752.8564    -521021.35845   -347621.34545                  24212762.9274
        10.0004         11.2504
 02  7  9 20 21  0.0010000  0  9G 3G 9G11G14G15G31G18G21G25
  23593848.5054    1741680.73446   1220558.14746                  23593857.4744
        15.2504         15.5004
  24560296.0364    1497190.70345   1034400.74345                  24560303.9854
        11.0004          9.5004
  24288091.7314    -227633.91445   -119855.79645                  24288098.1534
        11.2504         10.5004
  20592889.4504     696268.00347    500315.19647                  20592894.0674
        27.2504         29.7504
  24721467.5674    2061942.25844   1383972.04045                  24721481.1654
         7.2504          7.2504
  22946955.3494    1094549.74446    780258.04046                  22946962.3724
        18.0004         18.0004
  23959584.1534    1629520.81846   1155569.48246                  23959591.6224
        13.2504         12.0004
  21757624.9584    1037472.05748    730066.10447                  21757631.2284
        28.2504         26.7504
  24209096.7394    -540244.19546   -362600.01745                  24209106.8684
        12.7504         11.7504
 02  7  9 20 21 15.0010000  0  9G 3G 9G11G14G15G31G18G21G25
  23607594.0364    1813913.08846   1276843.04146                  23607603.0874
        16.0004         15.7504
  24572369.4194    1560634.60245   1083837.48145                  24572378.1184
        11.0004          9.2504
  24284556.1924    -246212.50045   -134332.56045                  24284562.0404
        11.0004         10.0004
  20598903.8644     727873.22447    524942.64047                  20598908.3764
        27.5004         30.0004
  24737447.4114    2145915.45744   1449405.65145                  24737460.9744
         6.2504          7.2504
  22956104.1694    1142627.64846    817721.31846                  22956110.7434
        18.2504         17.7504
  23972585.1614    1697843.41446   1208807.85546                  23972593.0524
        12.2504         12.0004
  21766129.7474    1082165.72848    764892.32847                  21766136.1104
        28.5004         26.5004
  24205462.8334    -559338.91646   -377478.87545                  24205472.1774
        12.7504         11.0004
 02  7  9 20 21 30.0010000  0  9G 3G 9G11G14G15G31G18G21G25
  23621370.5834    1886309.10846   1333255.45946                  23621379.3764
        15.2504         15.5004
  24584486.6224    1624315.13245   1133458.63845                  24584496.0604
         9.5004          8.7504
  24281049.4194    -264642.31945   -148693.43045                  24281054.9384
         9.7504          9.7504
  20604963.7634     759718.60947    549757.22547                  20604968.2864
        27.5004         30.0004
  24753456.8494    2230039.67645   1514956.82445                  24753468.0674
         9.5004          9.5004
  22965298.7244    1190945.10146    855371.26346                  22965305.7124
        18.0004         18.0004
  23985612.3414    1766299.67446   1262150.36045                  23985618.7744
        12.7504         11.2504
  21774664.8964    1127017.64548    799841.87147                  21774671.2354
        28.0004         26.5004
  24201853.2244    -578304.36145   -392257.02445                  24201861.8534
        11.7504         11.5004
 02  7  9 20 21 45.0010000  0  9G 3G 9G11G14G15G31G18G21G25
  23635176.5994    1958860.61246   1389789.03446                  23635184.5134
        15.2504         15.0004
  24596647.9194    1688224.24045   1183257.89145                  24596655.8214
         8.5004          8.2504
  24277568.8174    -282930.83245   -162944.17545                  24277575.2284
         9.2504          8.7504
  20611067.9814     791795.97347    574752.57247                  20611072.6924
        27.2504         30.0004
  24769491.5604    2314306.82745   1580619.51745                  24769501.9354
         9.7504          8.5004
  22974537.2244    1239493.83546    893201.42946                  22974544.3994
        17.2504         17.5004
  23998662.8494    1834881.72046   1315590.88245                  23998669.4704
        12.0004         11.5004
  21783228.2864    1172019.70348    834908.40147                  21783234.5914
        28.5004         26.7504
  24198267.7714    -597148.14345   -406940.35545                  24198277.7714
        11.0004         11.2504
 02  7  9 20 22  0.0010000  0  9G 3G 9G11G14G15G31G18G21G25
  23649007.7944    2031543.86146   1446425.29146                  23649016.0954
        15.0004         14.2504
  24608848.4974    1752338.20345   1233216.79645                  24608858.6854
         8.0004          7.0004
  24274111.3024    -301101.37445   -177102.97045                  24274118.5014
        10.5004          9.7504
  20617211.4974     824081.88547    599910.42647                  20617216.1144
        27.7504         30.0004
  24785550.2004    2398693.29145   1646375.10945                  24785560.6464
        10.7504         10.0004
  22983815.2084    1288250.23046    931193.40846                  22983822.3374
        17.2504         17.5004
  24011731.8414    1903566.01545   1369111.08445                  24011738.8174
        11.2504         11.2504
  21791816.2634    1217148.48247    870073.67447                  21791822.8254
        27.7504         26.5004
  24194700.8724    -615893.13446   -421546.72046                  24194710.0634
        13.7504         12.0004
 02  7  9 20 22 15.0010000  0  9G 3G 9G11G14G15G31G18G21G25
  23662862.1774    2104349.09346   1503156.58146                  23662870.8884
        15.2504         15.0004
  24621086.3564    1816647.30545   1283327.76345                  24621094.7164
         8.7504          6.7504
  24270674.0674    -319162.87845   -191176.79545                  24270680.5134
        10.2504          9.2504
  20623393.5134     856566.82848    625223.36847                  20623398.0134
        28.0004         30.5004
  24801628.1854    2483189.57645   1712216.24545                  24801641.0214
         7.7504          8.2504
  22993131.0834    1337204.74046    969339.74746                  22993138.2944
        16.7504         17.5004
  24024820.2244    1972343.29246   1422703.71645                  24024825.5444
        13.0004         11.2504
  21800426.2864    1262394.89348    905330.60847                  21800432.7314
        28.5004         26.7504
  24191150.0444    -634548.47246   -436083.21645                  24191158.6734
        12.2504         11.7504
 02  7  9 20 22 30.0010000  0  9G 3G 9G11G14G15G31G18G21G25
  23676737.1384    2177260.90246   1559970.90746                  23676745.5794
        15.2504         15.0004
  24633357.4504    1881136.35545   1333578.94845                  24633366.0794
         8.2504          7.0004
  24267255.4114    -337129.97945   -205177.12845                  24267260.7084
        11.5004          9.7504
  20629610.1614     889235.71747    650679.64547                  20629614.7784
        27.7504         30.2504
  24817726.7474    2567780.51345   1778131.22945                  24817738.2824
         9.0004          8.0004
  23002481.5914    1386342.12246   1007628.58546                  23002488.7674
        17.5004         17.7504
  24037922.7554    2041198.43146   1476357.03345                  24037928.5674
        13.2504         11.5004
  21809055.9424    1307743.89048    940667.48247                  21809062.4464
        28.2504         26.5004
  24187614.3644    -653128.70545   -450561.19445                  24187624.2714
        10.0004         11.5004
 02  7  9 20 22 45.0010000  0  9G 3G 9G11G14G15G31G18G21G25
  23690633.0214    2250283.41846   1616871.50846                  23690641.7204
        15.7504         15.0004
  24645665.8254    1945809.44045   1383973.52645                  24645673.7284
         9.0004          7.5004
  24263854.9354    -354998.05946   -219100.24045                  24263861.8534
        12.2504          9.7504
  20635862.5674     922092.84548    676282.59747                  20635867.0674
        28.0004         30.0004
  24833842.3334    2652470.35245   1844123.23145                  24833852.9074
         8.2504          7.2504
  23011867.5444    1435666.57746   1046063.20946                  23011875.0954
        17.2504         18.5004
  24051041.6534    2110135.86546   1530074.49646                  24051049.6264
        13.5004         12.0004
  21817705.9034    1353199.87148    976087.71847                  21817712.5244
        28.0004         26.7504
  24184094.4664    -671628.98246   -464976.84945                  24184103.4584
        12.5004         11.5004
 02  7  9 20 23  0.0010000  0  9G 3G 9G11G14G15G31G18G21G25
  23704548.5134    2323410.76746   1673853.80946                  23704557.2824
        15.7504         15.2504
  24658006.1144    2010660.84645   1434507.10245                  24658014.1104
         8.5004          8.0004
  24260472.0834    -372772.44245   -232950.41645                  24260476.4784
        11.7504         10.2504
  20642149.8884     955132.53147    702027.80747                  20642154.4814
        27.7504         30.5004
  24849976.2474    2737253.35345   1910187.84545                  24849985.6384
         9.7504          7.7504
  23021288.2314    1485172.31446   1084639.08346                  23021295.8294
        17.5004         18.2504
  24064175.2394    2179150.24046   1583851.88445                  24064182.3334
        13.5004         11.5004
  21826375.2084    1398757.34748   1011587.03847                  21826381.6534
        28.5004         26.5004
  24180586.4354    -690054.73545   -479334.47145                  24180595.8024
        10.5004         10.7504
 02  7  9 20 23 15.0010000  0  9G 3G 9G11G14G15G31G18G21G25
  23718481.3724    2396627.46046   1730905.70246                  23718490.1424
        15.5004         15.2504
  24670378.3884    2075675.31845   1485167.64645                  24670386.8994
         8.2504          7.7504
  24257105.2944    -390467.75846   -246738.94845                  24257110.0994
        12.5004         10.5004
  20648468.9744     988339.50348    727903.36747                  20648473.4034
        28.0004         30.5004
  24866124.1774    2822114.30444   1976313.20545                  24866136.6264
         7.0004          8.2504
  23030740.8494    1534844.09846   1123344.33846                  23030748.4464
        18.2504         18.2504
  24077320.5364    2248226.29246   1637677.32545                  24077327.0054
        12.7504         11.2504
  21835060.9974    1444401.35948   1047153.79647                  21835067.1964
        28.7504         26.2504
  24177092.6384    -708420.57045   -493645.35345                  24177100.6924
        11.0004         11.0004
 02  7  9 20 23 30.0010000  0  9G 3G 9G11G14G15G31G18G21G25
  23732432.2474    2469942.81646   1788034.48846                  23732441.0634
        14.5004         14.7504
  24682782.8804    2140862.20945   1535962.53045                  24682789.6424
         8.0004          7.5004
  24253755.3174    -408073.94346   -260457.99545                  24253761.2244
        12.0004         10.0004
  20654821.6534    1021723.61348    753916.95647                  20654826.2714
        28.2504         30.2504
  24882290.4894    2907062.75645   2042506.63745                  24882303.0914
         8.2504          9.0004
  23040226.3494    1584691.38046   1162186.35446                  23040233.8644
        17.7504         18.2504
  24090477.8724    2317373.68146   1691558.40046                  24090485.6224
        12.0004         12.0004
  21843765.1614    1490141.67048   1082795.58647                  21843771.5244
        28.5004         26.5004
  24173611.2864    -726716.31846   -507901.70445                  24173620.6654
        12.5004         11.5004
 02  7  9 20 23 45.0010000  0  9G 3G 9G11G14G15G31G18G21G25
  23746399.8104    2543340.38346   1845227.31946                  23746409.0834
        14.7504         14.5004
  24695215.9034    2206205.23445   1586879.15645                  24695220.4034
         8.2504          7.5004
  24250418.5134    -425606.95845   -274120.06645                  24250424.0444
        11.7504         10.2504
  20661205.1304    1055268.49748    780055.82347                  20661209.6064
        28.2504         30.5004
  24898469.4504    2992082.32245   2108755.57645                  24898482.2984
         8.7504          9.2504
  23049742.4354    1634697.78746   1201152.35546                  23049749.9854
        18.5004         18.7504
  24103647.0834    2386576.40346   1745482.56545                  24103653.3414
        12.5004         11.2504
  21852484.5524    1535962.49848   1118500.12047                  21852490.8804
        28.7504         26.5004
  24170138.2634    -744957.71345   -522115.65145                  24170148.0524
        10.0004         11.0004
 02  7  9 20 24  0.0010000  0  9G 3G 9G11G14G15G31G18G21G25
  23760380.5444    2616811.18246   1902477.25146                  23760389.5834
        14.7504         14.5004
  24707679.4354    2271695.29545   1637910.33145                  24707685.5404
         9.0004          8.0004
  24247094.5524    -443075.24146   -287731.67945                  24247098.7944
        12.2504         10.5004
  20667617.5604    1088965.38748    806313.13947                  20667621.9194
        28.2504         30.5004
  24914659.1614    3077164.10045   2175052.94845                  24914670.6384
         7.5004          9.2504
  23059286.7864    1684854.32946   1240235.35546                  23059293.9744
        18.5004         18.5004
  24116824.6384    2455825.64446   1799442.95245                  24116831.7554
        13.0004         11.0004
  21861217.4974    1581854.92648   1154260.44547                  21861223.6494
        29.2504         26.7504
  24166677.0914    -763153.20545   -536293.83945                  24166687.4314
        11.7504         11.7504
 02  7  9 20 24 15.0010000  0  9G 3G 9G11G14G15G31G18G21G25
  23774376.8564    2690360.29246   1959788.19146                  23774386.2714
        14.0004         14.5004
  24720170.9274    2337337.58145   1689060.14245                  24720177.1264
        10.5004          7.5004
  24243783.5524    -460472.99245   -301288.35245                  24243788.6854
        11.5004         10.7504
  20674059.6614    1122819.61148    832693.05047                  20674064.0324
        28.5004         30.7504
  24930862.9034    3162313.36545   2241402.94245                  24930873.0094
         8.0004          8.0004
  23068860.8964    1735166.28846   1279439.45046                  23068868.4704
        18.2504         18.7504
  24130012.7714    2525126.89346   1853443.91745                  24130020.2864
        13.7504         11.5004
  21869965.0444    1627824.31548   1190080.74647                  21869971.2674
        29.0004         26.7504
  24163223.1924    -781296.94345   -550431.67046                  24163233.8724
        11.7504         12.0004
 02  7  9 20 24 30.0010000  0  9G 3G 9G11G14G15G31G18G21G25
  23788388.0604    2763988.58346   2017160.79446                  23788397.7084
        14.2504         14.7504
  24732691.6774    2403133.24845   1740329.43945                  24732698.7944
        10.7504          8.7504
  24240486.6774    -477798.67745   -314788.84345                  24240493.1574
        11.5004         11.0004
  20680532.1144    1156832.31248    859196.45147                  20680536.4034
        28.2504         30.5004
  24947079.2944    3247531.24745   2307806.45245                  24947090.6184
         7.7504          7.2504
  23078464.7084    1785634.67146   1318765.44446                  23078472.2824
        18.5004         18.5004
  24143210.2244    2594481.52046   1907486.43645                  24143216.9384
        12.5004         11.0004
  21878727.8104    1673872.07048   1225962.10347                  21878733.9034
        29.5004         26.7504
  24159781.3024    -799387.29545   -564527.96245                  24159790.0364
        11.0004         11.2504
 02  7  9 20 24 45.0010000  0  9G 3G 9G11G14G15G31G18G21G25
  23802412.8254    2837690.71646   2074590.96846                  23802422.0054
        14.2504         15.0004
  24745240.3724    2469077.06645   1791714.22345                  24745246.7354
        11.2504          9.0004
  24237201.9894    -495057.02045   -328236.84345                  24237209.2594
        10.5004         10.2504
  20687033.6304    1190998.38148    885819.36447                  20687038.0484
        28.0004         30.5004
  24963306.9584    3332812.57244   2374259.25945                  24963316.8884
         6.5004          7.0004
  23088097.4114    1836254.27846   1358209.27046                  23088104.7744
        18.0004         18.2504
  24156417.3804    2663884.47046   1961566.62345                  24156424.7314
        12.5004         10.2504
  21887504.5214    1719993.39748   1261900.79847                  21887511.0484
        29.0004         27.0004
  24156348.4894    -817428.68546   -578586.06845                  24156356.9424
        14.5004         11.7504
 02  7  9 20 25  0.0010000  0  9G 3G 9G11G14G15G31G18G21G25
  23816450.3724    2911458.48346   2132072.27946                  23816459.4934
        14.5004         14.7504
  24757815.2944    2535160.70445   1843207.94245                  24757823.5134
        10.7504         10.0004
  24233928.6304    -512255.55545   -341638.25345                  24233934.8764
        10.2504         10.0004
  20693562.9814    1225309.70347    912555.45847                  20693567.3884
        27.2504         30.2504
  24979545.9744    3418149.13844   2440755.31145                  24979553.3134
         7.2504          6.0004
  23097757.0134    1887016.88246   1397764.51846                  23097764.5284
        17.7504         18.2504
  24169631.7864    2733327.73446   2015678.23545                  24169638.6064
        12.2504         11.2504
  21896293.4744    1766180.16948   1297890.48247                  21896300.0364
        28.7504         27.0004
  24152922.8964    -835429.03846   -592612.20446                  24152931.2084
        13.0004         12.0004
 02  7  9 20 25 15.0010000  0  9G 3G 9G11G14G15G31G18G21G25
  23830503.6224    2985307.91946   2189617.22646                  23830513.0244
        14.7504         15.0004
  24770420.5914    2601400.41245   1894823.25145                  24770428.2004
        10.5004         10.0004
  24230670.9504    -529377.56445   -354980.01445                  24230678.1034
        10.7504         10.5004
  20700122.6854    1259782.59747    939417.45247                  20700127.0444
        27.5004         30.2504
  24995798.7004    3503557.21345   2507307.04145                  24995811.0794
         7.5004          7.7504
  23107446.9354    1937938.77346   1437443.89146                  23107454.6614
        17.5004         17.7504
  24182856.7394    2802827.71346   2069834.04145                  24182862.1654
        12.2504         10.2504
  21905098.1464    1812449.03748   1333944.14147                  21905104.6034
        28.7504         27.2504
  24149509.7634    -853371.39146   -606593.16946                  24149518.9664
        14.0004         12.0004
 02  7  9 20 25 30.0010000  0  9G 3G 9G11G14G15G31G18G21G25
  23844571.4114    3059234.64746   2247222.39046                  23844581.0134
        14.0004         14.7504
  24783054.1694    2667791.83045   1946556.76845                  24783062.6464
        11.0004         10.2504
  24227427.4194    -546426.78845   -368265.09645                  24227434.7824
        11.7504         10.5004
  20706712.7004    1294412.85647    966402.06547                  20706717.2244
        27.7504         30.2504
  25012065.2944    3589032.51945   2573910.99845                  25012077.0404
         9.5004          8.7504
  23117166.5524    1989015.58246   1477243.97346                  23117174.2084
        16.7504         17.0004
  24196092.5284    2872380.36546   2124030.88145                  24196097.9074
        12.5004         10.5004
  21913917.9274    1858796.19348   1370058.80547                  21913924.5714
        28.5004         27.0004
  24146104.2784    -871259.36345   -620531.68745                  24146114.2784
        11.0004         11.7504
 02  7  9 20 25 45.0010000  0  9G 3G 9G11G14G15G31G18G21G25
  23858654.2244    3133240.91846   2304889.56046                  23858663.3924
        13.7504         14.2504
  24795717.7474    2734337.33545   1998410.36145                  24795726.1064
        11.5004         10.2504
  24224197.1224    -563400.35446   -381491.24145                  24224204.5794
        12.7504         11.2504
  20713333.1464    1329203.10647    993511.34947                  20713337.6924
        27.2504         30.5004
  25028342.9974    3674577.58444   2640569.47745                  25028352.8564
         6.5004          6.5004
  23126916.1064    2040249.68146   1517166.63246                  23126923.0714
        16.7504         17.0004
  24209339.0054    2941988.40446   2178270.88045                  24209345.5444
        13.5004         11.2504
  21922752.5444    1905223.95948   1406236.27847                  21922759.1184
        29.0004         27.2504
  24142712.1224    -889090.07845   -634425.61245                  24142722.9194
        11.2504         11.5004
 02  7  9 20 26  0.0010000  0  9G 3G 9G11G14G15G31G18G21G25
  23872750.1854    3207313.35846   2362608.26746                  23872759.4354
        14.5004         14.2504
  24808407.8724    2801023.62445   2050373.68245                  24808415.5754
        11.7504         10.7504
  24220979.0914    -580310.89746   -394668.26145                  24220985.2434
        14.2504         11.7504
  20719981.4354    1364140.19347   1020735.05147                  20719986.0054
        27.5004         30.5004
  25044633.5604    3760179.18045   2707271.91645                  25044644.8024
         8.7504          8.5004
  23136693.0524    2091627.97846   1557201.64446                  23136700.4744
        16.7504         16.7504
  24222592.7004    3011638.91045   2232543.97545                  24222599.1814
        11.0004         10.5004
  21931600.4274    1951719.41748   1442466.50147                  21931606.9784
        28.2504         26.7504
  24139326.0284    -906875.89146   -648284.57345                  24139335.0214
        12.0004         11.7504
 02  7  9 20 26 15.0010000  0  9G 3G 9G11G14G15G31G18G21G25
  23886858.5754    3281452.65946   2420379.08746                  23886867.4624
        14.5004         14.5004
  24821124.9424    2867851.53745   2102447.35745                  24821133.3024
        11.2504          9.7504
  24217773.8884    -597157.12846   -407795.16245                  24217780.5564
        14.2504         11.5004
  20726657.9274    1399225.05547   1048073.90547                  20726662.4974
        27.7504         30.5004
  25060932.4814    3845838.20544   2774019.07345                  25060945.1424
         6.5004          7.0004
  23146497.9274    2143151.19346   1597349.57446                  23146505.5134
        16.5004         17.2504
  24235854.3884    3081332.74245   2286850.80745                  24235861.3174
        11.0004         10.7504
  21940461.2784    1998283.65348   1478750.31347                  21940467.8644
        28.2504         26.5004
  24135950.7784    -924615.68445   -662107.72145                  24135958.9854
        11.5004         11.2504
 02  7  9 20 26 30.0010000  0  9G 3G 9G11G14G15G31G18G21G25
  23900978.3414    3355653.37746   2478197.76646                  23900987.5444
        15.0004         14.5004
  24833866.8644    2934815.73545   2154627.23945                  24833873.6964
        11.0004          9.5004
  24214578.8564    -613943.85046   -420875.70245                  24214584.5634
        13.7504         11.0004
  20733361.5524    1434452.41947   1075523.79647                  20733366.2044
        27.5004         30.2504
  25077244.4584    3931549.39945   2840806.97945                  25077254.3534
         7.7504          7.0004
  23156328.9274    2194813.94146   1637606.23346                  23156336.3254
        16.2504         17.2504
  24249124.1384    3151064.83545   2341187.45945                  24249131.4424
        11.0004         10.7504
  21949334.3254    2044911.95848   1515084.04547                  21949340.8534
        28.0004         26.2504
  24132582.5674    -942314.11746   -675898.61046                  24132591.3964
        12.7504         12.5004
 02  7  9 20 26 45.0010000  0  9G 3G 9G11G14G15G31G18G21G25
  23915110.6144    3429917.67346   2536065.96946                  23915119.8644
        15.5004         15.0004
  24846636.5834    3001918.43445   2206915.01845                  24846645.0834
        10.0004          9.0004
  24211396.3254    -630668.38046   -433907.77045                  24211401.9384
        14.0004         11.5004
  20740092.5524    1469824.68647   1103086.60147                  20740097.2744
        27.2504         30.5004
  25093564.7084    4017314.88145   2907637.12545                  25093576.0674
         8.7504          8.2504
  23166187.1384    2246618.48746   1677973.38046                  23166194.6184
        17.0004         17.0004
  24262402.1464    3220837.68046   2395555.86145                  24262408.8724
        12.0004         11.2504
  21958220.1774    2091606.72748   1551469.57247                  21958226.8564
        28.0004         26.0004
  24129222.7004    -959968.59045   -689655.21046                  24129233.6384
        11.5004         12.5004
 02  7  9 20 27  0.0010000  0  9G 3G 9G11G14G15G31G18G21G25
  23929252.5754    3504233.48846   2593974.33946                  23929261.3684
        15.2504         15.0004
  24859429.5914    3069147.74245   2259301.46945                  24859438.7594
         8.7504          9.0004
  24208223.3254    -647341.97746   -446900.15645                  24208228.9274
        13.0004         10.5004
  20746849.0604    1505330.04847   1130753.11747                  20746853.7474
        27.5004         30.2504
  25109893.3414    4103122.95545   2974500.40645                  25109906.0244
         8.7504          8.5004
  23176069.9664    2298552.86946   1718441.71046                  23176076.9314
        17.2504         17.0004
  24275684.6144    3290639.57545   2449946.94445                  24275691.7784
        11.2504         11.0004
  21967116.2944    2138356.12748   1587897.67147                  21967122.6814
        28.2504         26.0004
  24125870.0914    -977590.14946   -703386.14046                  24125880.0444
        15.2504         13.2504
 02  7  9 20 27 15.0010000  0  9G 3G 9G11G14G15G31G18G21G25
  23943406.0054    3578611.81246   2651931.40346                  23943414.3174
        14.7504         14.7504
  24872249.5674    3136514.61845   2311795.09545                  24872257.1064
         9.5004          9.2504
  24205062.1854    -663953.00946   -459843.77945                  24205067.5634
        13.2504         11.0004
  20753632.8964    1540979.67247   1158532.04247                  20753637.5484
        27.2504         30.2504
  25126233.2634    4188984.60645   3041405.54545                  25126243.4744
        11.0004          9.0004
  23185979.6464    2350628.22246   1759019.87746                  23185986.9504
        17.0004         17.0004
  24288974.4814    3360481.86745   2504369.44545                  24288981.0214
        11.2504         10.2504
  21976025.0914    2185171.52347   1624377.20147                  21976031.5244
        27.7504         26.2504
  24122525.5674    -995167.15746   -717082.44946                  24122534.5134
        14.2504         13.2504
 02  7  9 20 27 30.0010000  0  9G 3G 9G11G14G15G31G18G21G25
  23957571.8964    3653052.15346   2709936.79746                  23957580.3964
        15.7504         14.5004
  24885095.2394    3204018.56445   2364395.54645                  24885103.1064
        10.0004          9.0004
  24201913.6384    -680501.25146   -472738.48845                  24201918.8414
        13.7504         11.0004
  20760444.2554    1576773.25847   1186423.15047                  20760448.9314
        27.0004         30.2504
  25142580.3334    4274899.61344   3108352.28745                  25142591.6104
         7.2504          7.2504
  23195915.7554    2402844.11246   1799707.57046                  23195923.0364
        17.7504         17.5004
  24302273.3104    3430364.39446   2558823.30545                  24302279.1814
        12.7504         10.2504
  21984946.1854    2232053.04847   1660908.25047                  21984952.8884
        27.7504         26.2504
  24119189.1224   -1012699.27146   -730743.75446                  24119196.8024
        14.5004         12.0004
 02  7  9 20 27 45.0010000  0  9G 3G 9G11G14G15G31G18G21G25
  23971750.7394    3727563.61046   2767997.59346                  23971759.5094
        15.0004         14.7504
  24897968.5364    3271668.85645   2417110.01545                  24897977.0834
        10.5004         10.2504
  24198777.9114    -696977.02546   -485576.70145                  24198783.0324
        13.0004         10.7504
  20767284.5214    1612720.09147   1214433.66647                  20767289.1494
        27.2504         30.0004
  25158942.3334    4360877.36344   3175347.67945                  25158952.3104
         6.7504          7.2504
  23205880.8254    2455209.82946   1840512.00046                  23205887.6344
        18.0004         17.2504
  24315581.6534    3500296.64446   2613315.93445                  24315587.4894
        13.2504         11.0004
  21993882.0054    2279010.03647   1697498.10847                  21993888.6264
        27.2504         26.0004
  24115863.2554   -1030176.90046   -744362.59846                  24115871.5324
        13.5004         12.5004
 02  7  9 20 28  0.0010000  0  9G 3G 9G11G14G15G31G18G21G25
  23985941.3804    3802134.95146   2826105.07246                  23985950.3964
        14.7504         14.5004
  24910868.4894    3339454.32245   2469929.82445                  24910876.4154
        10.5004         10.0004
  24195654.2164    -713390.96046   -498366.75845                  24195660.3684
        12.2504         11.0004
  20774152.1854    1648809.25747   1242555.09747                  20774156.7904
        27.0004         30.0004
  25175314.1464    4446906.55645   3242383.34345                  25175325.3764
        10.0004          8.2504
  23215872.4354    2507714.10046   1881424.39546                  23215879.1384
        17.7504         17.5004
  24328896.9584    3570267.78046   2667838.87045                  24328904.0874
        12.5004         10.7504
  22002829.8104    2326031.62047   1734138.29947                  22002836.5244
        27.0004         25.7504
  24112544.9354   -1047610.38846   -757947.02946                  24112554.3844
        13.7504         13.0004
 02  7  9 20 28 15.0010000  0  9G 3G 9G11G14G15G31G18G21G25
  24000142.6064    3876760.02246   2884254.38646                  24000151.9034
        14.5004         14.0004
  24923791.7164    3407368.87945   2522850.24245                  24923800.0404
         9.7504          9.5004
  24192541.6224    -729748.52946   -511112.85545                  24192546.6614
        12.2504         11.5004
  20781045.6854    1685034.82347   1270782.80947                  20781050.3494
        26.7504         30.2504
  25191693.6064    4532981.27745   3309454.54845                  25191702.2474
        10.5004          7.7504
  23225888.6774    2560350.97546   1922440.12746                  23225895.6774
        18.5004         17.7504
  24342217.5604    3640271.98246   2722387.59245                  24342225.6964
        12.2504         11.0004
  22011788.9114    2373112.32647   1770824.55847                  22011795.5444
        27.5004         26.0004
  24109235.2004   -1065005.17946   -771501.28446                  24109244.4854
        14.7504         14.0004
 02  7  9 20 28 30.0010000  0  9G 3G 9G11G14G15G31G18G21G25
  24014355.4504    3951450.66446   2942454.82046                  24014364.6654
        14.0004         14.0004
  24936742.1304    3475424.44045   2575880.50445                  24936751.5564
         8.7504          8.7504
  24189442.2244    -746037.26146   -523805.34245                  24189449.4704
        12.5004         11.7504
  20787967.6064    1721408.78047   1299126.15347                  20787972.4114
        27.0004         30.2504
  25208084.4974    4619113.56645   3376570.57445                  25208096.7474
        10.5004          8.7504
  23235932.5914    2613132.37046   1963568.46846                  23235939.8964
        18.0004         18.0004
  24355547.8334    3710321.53346   2776971.58845                  24355554.9034
        13.5004         10.7504
  22020761.6924    2420264.34647   1807566.38447                  22020768.3494
        27.0004         26.0004
  24105934.5754   -1082348.71246   -785015.60946                  24105943.5914
        14.2504         13.7504
 02  7  9 20 28 45.0010000  0  9G 3G 9G11G14G15G31G18G21G25
  24028580.4354    4026202.15846   3000702.66246                  24028589.0994
        14.7504         14.0004
  24949717.0914    3543616.32044   2629017.04645                  24949726.4464
         7.0004          7.5004
  24186354.2714    -762261.23946   -536447.35945                  24186361.1144
        12.5004         11.5004
  20794916.6064    1757926.60047   1327581.59847                  20794921.2474
        27.2504         30.0004
  25224484.5054    4705298.76845   3443727.75945                  25224494.5994
         9.2504          9.7504
  23246003.4274    2666053.60146   2004805.75946                  23246010.7434
        18.0004         17.7504
  24368885.8024    3780411.73346   2831587.24545                  24368892.8024
        13.0004         10.7504
  22029747.1064    2467483.21347   1844360.29947                  22029753.7744
        27.2504         25.7504
  24102643.4894   -1099645.19446   -798493.31446                  24102651.8374
        13.2504         12.2504
 02  7  9 20 29  0.0010000  0  9G 3G 9G11G14G15G31G18G21G25
  24042814.8644    4101007.92446   3058992.80446                  24042824.4544
        14.0004         14.2504
  24962719.5284    3611938.07244   2682254.73645                  24962728.2864
         6.7504          7.5004
  24183278.5834    -778426.33746   -549043.46246                  24183285.8174
        12.7504         12.0004
  20801891.7004    1794581.98347   1356144.23647                  20801896.1534
        27.0004         29.7504
  25240893.0444    4791530.51745   3510921.22245                  25240904.6034
         7.7504          8.7504
  23256098.9424    2719108.22346   2046147.00146                  23256106.4814
        17.2504         17.7504
  24382229.9274    3850536.37846   2886229.82745                  24382237.1614
        12.2504         10.7504
  22038744.0364    2514762.71747   1881201.46647                  22038750.8104
        27.2504         25.7504
  24099358.6534   -1116900.43846   -811938.86546                  24099366.5564
        12.2504         12.0004
 02  7  9 20 29 15.0010000  0  9G 3G 9G11G14G15G31G18G21G25
  24057060.7864    4175867.96146   3117325.22046                  24057069.9894
        14.5004         14.7504
  24975745.8174    3680389.83244   2735593.69145                  24975751.9584
         7.2504          7.2504
  24180213.8494    -794531.91646   -561593.26946                  24180220.3174
        13.5004         12.5004
  20808893.4354    1831375.15147   1384814.23947                  20808897.8414
        27.0004         30.2504
  25257311.4504    4877808.96344   3578151.07445                  25257322.0714
         6.2504          7.0004
  23266220.2164    2772296.34646   2087592.26146                  23266228.0364
        16.7504         17.2504
  24395581.0604    3920695.98146   2940899.58645                  24395587.2824
        13.0004         10.5004
  22047752.6144    2562103.38247   1918090.29147                  22047759.2124
        26.7504         25.7504
  24096084.5994   -1134113.55846   -825351.59346                  24096093.0524
        15.2504         13.2504
 02  7  9 20 29 30.0010000  0  9G 3G 9G11G14G15G31G18G21G25
  24071315.9194    4250778.24646   3175696.77546                  24071325.0174
        14.5004         14.5004
  24988796.5674    3748967.63145   2789030.91545                  24988807.2594
         8.2504          8.0004
  24177159.8174    -810581.29046   -574099.23146                  24177165.1494
        14.2504         12.0004
  20815920.2084    1868302.34247   1413588.67347                  20815924.8134
        27.0004         30.0004
  25273738.0214    4964130.23444   3645414.33745                  25273749.1574
         6.2504          5.7504
  23276366.5284    2825614.10346   2129138.53546                  23276374.2434
        16.7504         17.0004
  24408937.8884    3990886.87446   2995593.78345                  24408944.0284
        14.0004         10.7504
  22056772.0214    2609501.62947   1955023.97947                  22056778.6424
        27.0004         26.0004
  24092815.3564   -1151287.90046   -838734.10446                  24092824.0094
        13.2504         13.7504
 02  7  9 20 29 45.0010000  0  9G 3G 9G11G14G15G31G18G21G25
  24085580.2084    4325740.35946   3234108.75146                  24085589.0714
        14.2504         14.5004
  25001870.3964    3817673.09945   2842567.55545                  25001879.5634
         9.2504          8.5004
  24174116.8724    -826572.33246   -586559.76846                  24174121.7944
        13.7504         12.5004
  20822973.0364    1905365.14847   1442468.78247                  20822977.6184
        27.0004         30.2504
  25290172.7944    5050496.02844   3712712.31845                  25290186.7784
         6.2504          7.5004
  23286537.1534    2879063.01246   2170787.01346                  23286544.3884
        16.5004         16.5004
  24422301.1774    4061110.95846   3050313.78645                  24422307.8804
        13.2504         10.7504
  22065803.2714    2656959.37147   1992004.03347                  22065809.9854
        27.7504         25.7504
  24089555.6304   -1168421.24146   -852084.65446                  24089564.2474
        14.2504         13.5004
 02  7  9 20 30  0.0010000  0  9G 3G 9G11G14G15G31G18G21G25
  24099854.9114    4400752.63046   3292559.80046                  24099864.2314
        13.5004         14.0004
  25014969.1304    3886504.56945   2896202.47245                  25014976.7634
         9.0004          8.7504
  24171084.7394    -842506.02946   -598975.59346                  24171089.8604
        13.2504         12.2504
  20830051.4194    1942562.21747   1471453.51547                  20830055.9664
        27.0004         30.0004
  25306615.1694    5136904.85043   3780043.77845                  25306626.9034
         5.5004          6.2504
  23296733.1224    2932641.57846   2212536.52046                  23296739.8844
        16.5004         16.7504
  24435670.3884    4131366.84446   3105058.60245                  24435678.5604
        13.0004         11.0004
  22074845.2244    2704475.29547   2029029.42447                  22074851.8104
        27.7504         26.0004
  24086302.2634   -1185514.58146   -865404.04046                  24086311.1614
        12.0004         12.5004
 02  7  9 20 30 15.0020000  0  9G 3G 9G11G14G15G31G18G21G25
  24114140.6354    4475823.74846   3351056.67346                  24114149.8504
        14.0004         14.2504
  25028091.6114    3955470.46044   2949942.07045                  25028099.5374
         7.2504          8.5004
  24168064.0574    -858378.97046   -611344.08246                  24168071.1394
        12.0004         12.0004
  20837156.5414    1979900.06347   1500547.94247                  20837161.2054
        26.7504         29.7504
  25323067.9554    5223366.41042   3847416.32545                  25323079.0924
         4.2504          5.7504
  23306954.8464    2986357.17546   2254392.80046                  23306962.0334
        16.2504         16.5004
  24449047.1354    4201663.30146   3159835.01645                  24449052.5614
        14.0004         10.2504
  22083899.5254    2752056.68047   2066105.81947                  22083906.0534
        27.7504         26.0004
  24083057.7754   -1202564.49846   -878689.58146                  24083065.9714
        14.0004         12.2504
 02  7  9 20 30 30.0020000  0  9G 3G 9G11G14G15G31G18G21G25
  24128434.0724    4550937.90546   3409587.12046                  24128442.8894
        13.2504         13.5004
  25041238.1274    4024555.88544   3003774.85545                  25041247.7294
         6.7504          6.7504
  24165054.2444    -874194.43245   -623667.76645                  24165061.2564
        11.2504         10.7504
  20844286.5804    2017367.97147   1529743.71847                  20844291.2444
        27.0004         29.7504
  25339528.1824    5309863.68642   3914816.55445                  25339543.2684
         4.0004          6.0004
  23317200.0804    3040196.88246   2296345.81246                  23317207.3264
        16.2504         16.5004
  24462429.3854    4271985.57346   3214631.55745                  24462435.6894
        13.2504         10.5004
  22092964.1584    2799691.76647   2103224.06047                  22092970.8734
        27.5004         26.0004
  24079821.8934   -1219573.82146   -891943.53846                  24079829.3614
        15.7504         13.0004
 02  7  9 20 30 45.0020000  0  9G 3G 9G11G14G15G31G18G21G25
  24142737.5334    4626101.41046   3468155.99646                  24142746.1744
        13.5004         13.5004
  25054407.6194    4093766.82443   3057705.34445                  25054417.4554
         5.5004          6.5004
  24162055.9084    -889951.38946   -635945.88045                  24162062.3184
        12.0004         11.7504
  20851442.0644    2054970.00747   1559044.00847                  20851446.6584
        26.5004         29.7504
  25355998.5414    5396403.56644   3982250.16445                  25356010.6864
         7.2504          8.5004
  23327470.2054    3094165.66446   2338399.37546                  23327477.3814
        16.7504         16.5004
  24475817.0964    4342339.90945   3269453.08345                  24475823.7644
        11.5004         10.0004
  22102040.1824    2847385.40547   2140387.92447                  22102046.8854
        27.7504         26.2504
  24076592.0254   -1236541.60446   -905165.09246                  24076600.0104
        14.2504         14.0004
 02  7  9 20 31  0.0020000  0  9G 3G 9G11G14G15G31G18G21G25
  24157050.7444    4701316.85346   3526765.37646                  24157059.5964
        13.5004         13.5004
  25067603.8614    4163105.92744   3111735.79945                  25067612.3734
         6.2504          5.0004
  24159069.1194    -905646.45546   -648175.77645                  24159074.1934
        13.2504         11.7504
  20858623.3854    2092709.10747   1588451.10547                  20858628.0844
        26.7504         29.7504
  25372474.8464    5482989.03545   4049719.25345                  25372485.4324
         8.7504          9.5004
  23337765.1194    3148266.33446   2380555.72146                  23337771.8574
        17.0004         16.7504
  24489211.0964    4412729.26245   3324301.87145                  24489217.7294
        11.5004         10.7504
  22111127.9164    2895140.58348   2177599.74547                  22111134.5024
        28.0004         26.2504
  24073371.3544   -1253464.65646   -918351.79346                  24073380.4044
        14.2504         13.7504
 02  7  9 20 31 15.0020000  0  9G 3G 9G11G14G15G31G18G21G25
  24171372.6434    4776579.50546   3585411.51646                  24171381.4824
        13.5004         13.2504
  25080822.0884    4232568.50145   3165862.50945                  25080827.5964
         7.5004          6.5004
  24156093.4714    -921283.79046   -660360.65845                  24156099.8464
        13.5004         11.7504
  20865830.1974    2130580.64847   1617961.39547                  20865834.7684
        26.7504         29.7504
  25388959.5884    5569615.47345   4117220.35145                  25388970.9714
         9.2504          9.2504
  23348084.4714    3202494.15046   2422811.13246                  23348091.4944
        17.5004         17.2504
  24502612.8854    4483149.41346   3379174.67245                  24502619.9204
        13.0004         10.7504
  22120225.9794    2942953.31548   2214856.41547                  22120232.6354
        28.0004         26.2504
  24070158.8694   -1270346.91946   -931506.69246                  24070169.0804
        13.0004         13.2504
 02  7  9 20 31 30.0020000  0  9G 3G 9G11G14G15G31G18G21G25
  24185702.2684    4851881.87646   3644088.62946                  24185712.2444
        13.2504         14.0004
  25094062.2834    4302147.12245   3220079.58345                  25094068.9284
         8.5004          6.7504
  24153127.4714    -936870.27346   -672505.95745                  24153133.4124
        13.0004         11.7504
  20873060.5414    2168577.27947   1647569.16547                  20873065.1234
        27.0004         30.0004
  25405449.2134    5656275.50745   4184747.56045                  25405464.9674
         7.5004          6.5004
  23358426.7604    3256841.81346   2465159.94046                  23358433.7834
        17.5004         17.2504
  24516017.8384    4553593.07945   3434065.82945                  24516024.9674
        11.5004         10.2504
  22129334.3074    2990816.23748   2252152.18947                  22129340.7644
        28.0004         26.5004
  24066952.0494   -1287195.16046   -944635.09946                  24066961.2174
        12.7504         13.2504
 02  7  9 20 31 45.0020000  0  9G 3G 9G11G14G15G31G18G21G25
  24200040.3304    4927228.89746   3702800.50046                  24200050.6114
        13.2504         14.0004
  25107325.9634    4371846.88045   3274391.03345                  25107334.5804
         8.7504          7.5004
  24150171.9324    -952400.20746   -684607.16145                  24150178.0254
        12.7504         11.7504
  20880315.9244    2206704.20747   1677278.46547                  20880320.4364
        26.5004         29.7504
  25421947.2914    5742974.33043   4252305.00645                  25421960.9364
         6.0004          6.0004
  23368792.6114    3311314.27746   2507605.99246                  23368799.7404
        17.7504         17.0004
  24529427.4714    4624065.56445   3488979.41545                  24529435.5144
        10.0004         10.2504
  22138452.8544    3038734.84948   2289491.36347                  22138459.4164
        28.5004         26.5004
  24063754.4164   -1304003.67446   -957732.55546                  24063762.2364
        14.2504         12.7504
 02  7  9 20 32  0.0020000  0  9G 3G 9G11G14G15G31G18G21G25
  24214387.7054    5002624.57246   3761550.30546                  24214397.7524
        13.0004         13.2504
  25120612.5024    4441671.76145   3328800.00945                  25120621.6354
         8.0004          7.0004
  24147228.3934    -967868.96046   -696660.70545                  24147235.3224
        12.0004         11.2504
  20887597.0644    2244965.60347   1707092.54047                  20887601.6584
        26.7504         29.7504
  25438454.6354    5829716.03844   4319895.86245                  25438467.1314
         6.7504          6.7504
  23379182.7684    3365915.65146   2550152.50346                  23379189.7794
        18.2504         17.2504
  24542845.2294    4694571.32746   3543918.94145                  24542851.1824
        12.5004         10.5004
  22147582.9864    3086713.35048   2326877.20047                  22147589.6194
        28.0004         26.5004
  24060564.0104   -1320767.98746   -970795.58346                  24060573.0024
        12.5004         13.0004
 02  7  9 20 32 15.0020000  0  9G 3G 9G11G14G15G31G18G21G25
  24228744.0574    5078066.31646   3820336.00246                  24228753.2254
        13.5004         13.0004
  25133923.9554    4511619.36745   3383304.61345                  25133932.8654
         8.7504          7.7504
  24144296.1744    -983278.48146   -708668.08345                  24144303.0574
        13.5004         11.5004
  20894903.0184    2283359.17647   1737009.61647                  20894907.5884
        27.0004         30.0004
  25454968.9324    5916498.25945   4387518.28845                  25454979.0724
         8.2504          7.5004
  23389597.1354    3420643.45146   2592797.51746                  23389604.2754
        18.2504         17.5004
  24556268.1894    4765108.14145   3598882.65545                  24556275.0214
        11.7504         10.0004
  22156723.8464    3134749.81247   2364308.20347                  22156730.4554
        27.7504         26.2504
  24057380.4004   -1337489.72646   -983825.41746                  24057390.6584
        13.0004         14.0004
 02  7  9 20 32 30.0020000  0  9G 3G 9G11G14G15G31G18G21G25
  24243109.2914    5153554.72946   3879158.05846                  24243118.2364
        13.0004         13.0004
  25147257.4714    4581690.16245   3437905.19145                  25147265.6544
         8.5004          7.7504
  24141374.7604    -998627.55246   -720628.35145                  24141381.1824
        13.2504         11.7504
  20902234.3464    2321885.66047   1767030.25747                  20902238.9164
        27.2504         30.0004
  25471490.6504    6003321.60245   4455172.75445                  25471503.6044
         8.7504          8.5004
  23400035.4394    3475498.17946   2635541.42946                  23400043.1194
        17.7504         17.2504
  24569695.9474    4835676.72445   3653871.14845                  24569702.7094
        10.0004          9.7504
  22165876.1354    3182845.02647   2401784.97847                  22165883.1234
        27.5004         26.5004
  24054207.9554   -1354167.81246   -996821.22146                  24054217.4864
        14.2504         13.7504
 02  7  9 20 32 45.0020000  0  8G 3G 9G11G14G31G18G21G25
  24257483.6664    5229092.90746   3938018.91346                  24257493.4674
        13.0004         13.5004
  25160615.7214    4651887.34345   3492604.23045                  25160623.7524
         8.7504          8.5004
  24138466.4084   -1013912.36146   -732538.57545                  24138471.8464
        13.0004         11.7504
  20909591.5494    2360548.28547   1797156.97947                  20909596.0614
        27.0004         30.0004
  23410498.5414    3530483.26246   2678386.93146                  23410505.7874
        16.2504         16.5004
  24583131.9164    4906280.62145   3708887.14345                  24583138.9984
        10.7504          9.2504
  22175040.1114    3231002.58148   2439310.33447                  22175046.9084
        28.0004         26.7504
  24051043.4554   -1370798.26746  -1009779.91646                  24051052.3654
        14.0004         14.2504
 02  7  9 20 33  0.0020000  0  8G 3G 9G11G14G31G18G21G25
  24271865.5414    5304671.72546   3996911.41446                  24271875.3184
        13.0004         13.5004
  25173996.2054    4722201.70645   3547394.57445                  25174004.0724
         9.5004          8.5004
  24135568.4394   -1029141.53346   -744405.41545                  24135573.5254
        13.7504         11.7504
  20916973.0724    2399338.10247   1827382.81547                  20916977.4904
        27.5004         30.0004
  23420985.1584    3585589.32846   2721326.69646                  23420992.3574
        16.2504         16.2504
  24596572.5574    4976910.95245   3763923.72845                  24596579.4514
        10.7504          9.2504
  22184214.1584    3279213.53347   2476877.30347                  22184220.7564
        27.7504         26.5004
  24047885.3694   -1387389.56446  -1022708.11546                  24047894.5254
        12.7504         13.7504
 02  7  9 20 33 15.0020000  0  8G 3G 9G11G14G31G18G21G25
  24286256.3614    5380295.50146   4055838.94346                  24286266.4674
        12.5004         13.0004
  25187400.0804    4792637.73645   3602279.77345                  25187407.9944
        10.0004          9.2504
  24132682.3934   -1044310.10446   -756225.06345                  24132687.4674
        14.5004         11.5004
  20924379.3144    2438259.64947   1857711.29447                  20924383.7094
        27.0004         30.0004
  23431495.8384    3640820.93846   2764364.29646                  23431502.7564
        16.7504         16.5004
  24610018.0494    5047572.40745   3818984.56145                  24610025.0844
         8.7504          8.7504
  22193399.7524    3327482.82747   2514489.73247                  22193406.3144
        27.7504         26.5004
  24044737.2994   -1403936.71046  -1035601.88946                  24044745.6934
        15.0004         13.7504
 02  7  9 20 33 30.0020000  0  8G 3G 9G11G14G31G18G21G25
  24300654.7294    5455958.69546   4114797.18446                  24300664.5294
        13.0004         13.0004
  25200825.7994    4863190.21445   3657255.69445                  25200834.3814
        11.2504          9.7504
  24129806.6274   -1059422.77746   -768001.12045                  24129812.1704
        14.7504         11.7504
  20931810.2214    2477307.71947   1888138.36247                  20931814.6744
        27.0004         30.2504
  23442028.2754    3696172.71046   2807495.51946                  23442035.2754
        17.0004         16.7504
  24623468.6274    5118259.90445   3874065.71345                  24623476.9864
         8.2504          9.0004
  22202595.3544    3375805.45447   2552143.71447                  22202602.0924
        27.7504         26.7504
  24041595.5884   -1420444.41146  -1048464.96446                  24041603.9244
        14.2504         13.7504
 02  7  9 20 33 45.0020000  0  7G 3G11G14G31G18G21G25
  24315060.6744    5531662.22346   4173786.85646                  24315071.0254
        12.7504         13.0004
  24126941.6974   -1074478.06146   -779732.49946                  24126946.7954
        14.7504         12.2504
  20939265.1044    2516483.41547   1918664.87947                  20939269.5924
        27.0004         30.0004
  23452584.6044    3751645.63446   2850721.14946                  23452591.6154
        16.7504         16.5004
  24636926.3614    5188974.79045   3929168.22445                  24636935.7754
         9.2504          8.0004
  22211800.9164    3424182.46948   2589840.08347                  22211807.6784
        28.0004         26.2504
  24038462.0254   -1436911.00146  -1061295.99546                  24038471.3344
        14.7504         14.5004
 02  7  9 20 34  0.0020000  0  7G 3G11G14G31G18G21G25
  24329475.0024    5607410.89245   4232811.72346                  24329484.9794
        11.7504         13.0004
  24124088.6894   -1089470.44046   -791414.82346                  24124094.2324
        15.0004         12.0004
  20946745.2134    2555791.65947   1949294.68247                  20946749.6664
        27.2504         30.0004
  23463164.7604    3807244.49146   2894044.91046                  23463171.7134
        16.5004         16.5004
  24650389.6744    5259722.19045   3984295.94045                  24650397.9284
         9.0004          7.7504
  22221018.2524    3472619.35547   2627583.09647                  22221025.0724
        27.2504         26.2504
  24035337.5574   -1453330.95246  -1074090.65746                  24035346.2794
        15.0004         14.7504
 02  7  9 20 34 15.0020000  0  7G 3G11G14G31G18G21G25
  24343898.3464    5683204.76946   4291871.79046                  24343909.4364
        12.2504         12.7504
  24121248.1044   -1104399.21746   -803047.60946                  24121253.3544
        16.0004         12.5004
  20954250.4864    2595232.68647   1980027.95347                  20954254.9634
        27.0004         30.0004
  23473768.7134    3862969.43346   2937466.91346                  23473776.6864
        16.0004         16.7504
  24663857.3144    5330502.32445   4039449.31945                  24663866.2014
         7.5004          8.0004
  22230246.8934    3521116.53547   2665373.09647                  22230253.6664
        27.2504         26.2504
  24032221.4394   -1469703.69746  -1086848.54046                  24032230.2094
        14.2504         13.2504
 02  7  9 20 34 30.0020000  0  7G 3G11G14G31G18G21G25
  24358328.4634    5759033.82346   4350959.29346                  24358339.6234
        13.0004         13.0004
  24118417.1974   -1119273.76846   -814638.15846                  24118423.4674
        15.5004         12.2504
  20961779.2994    2634796.73047   2010857.07747                  20961783.8934
        27.2504         30.0004
  23484395.0104    3918810.62246   2980979.49946                  23484403.0534
        16.0004         16.5004
  24677331.7364    5401305.72245   4094620.70045                  24677338.9244
        10.0004          9.0004
  22239485.4794    3569664.13247   2703202.38047                  22239492.2294
        27.0004         26.0004
  24029113.3854   -1486038.44446  -1099576.83246                  24029121.5924
        14.2504         13.2504
 02  7  9 20 34 45.0020000  0  7G 3G11G14G31G18G21G25
  24372766.0724    5834904.61746   4410079.30446                  24372776.0374
        12.7504         12.5004
  24115598.1584   -1134086.78246   -826180.72246                  24115603.8424
        14.7504         12.0004
  20969333.1274    2674490.56347   2041787.34147                  20969337.8034
        27.2504         30.2504
  23495044.8074    3974774.71746   3024587.85946                  23495052.8034
        16.0004         16.7504
  24690811.5104    5472139.40045   4149815.75745                  24690818.6394
        10.2504          9.7504
  22248734.5024    3618269.24947   2741076.48647                  22248741.2404
        26.7504         26.0004
  24026013.4554   -1502327.87646  -1112269.82646                  24026021.0534
        15.0004         13.2504
 02  7  9 20 35  0.0020000  0  7G 3G11G14G31G18G21G25
  24387210.2134    5910812.78246   4469228.45246                  24387220.2954
        12.5004         12.5004
  24112790.1354   -1148842.14746   -837678.39746                  24112795.9124
        14.7504         12.5004
  20976910.0254    2714309.96847   2072815.44847                  20976914.4674
        27.5004         30.2504
  23505716.8384    4030857.29146   3068288.54246                  23505724.7524
        15.7504         16.2504
  24704295.7364    5542999.06745   4205031.02245                  24704302.3574
         9.7504          8.7504
  22257993.7684    3666927.72647   2778992.18047                  22258000.3774
        26.7504         26.0004
  24022921.3144   -1518575.61646  -1124930.32546                  24022929.4394
        15.5004         13.7504
 02  7  9 20 35 15.0020000  0  7G 3G11G14G31G18G21G25
  24401662.9244    5986759.67446   4528407.76846                  24401673.2404
        12.2504         13.0004
  24109993.0254   -1163537.79746   -849129.51646                  24109998.9674
        14.2504         12.0004
  20984511.6894    2754256.47947   2103942.60247                  20984516.2254
        27.5004         30.0004
  23516412.3614    4087059.74346   3112082.62946                  23516419.9244
        16.5004         16.7504
  24717785.0024    5613886.42245   4260267.89645                  24717791.5644
        11.2504         10.2504
  22267263.8774    3715641.53047   2816950.96447                  22267270.3464
        27.2504         25.7504
  24019837.8934   -1534779.72546  -1137556.78546                  24019846.9084
        14.7504         13.5004
 02  7  9 20 35 30.0020000  0  7G 3G11G14G31G18G21G25
  24416123.1824    6062745.88946   4587617.71546                  24416133.6624
        12.5004         12.7504
  24107208.5254   -1178172.43846   -860533.09945                  24107214.2324
        14.0004         11.5004
  20992137.6044    2794330.90047   2135169.42447                  20992142.1624
        27.7504         30.2504
  23527130.4474    4143382.65346   3155970.58646                  23527137.9044
        17.0004         16.7504
  24731280.4794    5684802.47946   4315527.11445                  24731286.2444
        12.2504          9.7504
  22276544.5964    3764411.49847   2854953.52447                  22276551.1824
        27.2504         26.0004
  24016763.3384   -1550938.90346  -1150148.24846                  24016772.2134
        14.7504         13.7504
 02  7  9 20 35 45.0020000  0  7G 3G11G14G31G18G21G25
  24430588.4794    6138762.54546   4646851.39946                  24430598.2214
        12.7504         12.2504
  24104433.6354   -1192754.24546   -871895.53146                  24104440.1504
        14.0004         12.5004
  20999786.2684    2834524.59347   2166489.18747                  20999790.7564
        27.7504         30.2504
  23537869.3614    4199817.44146   3199945.72146                  23537876.6544
        17.2504         16.7504
  24744778.4634    5755738.67146   4370802.05345                  24744785.3694
        12.0004         10.7504
  22285834.4474    3813229.72547   2892993.69247                  22285841.2794
        27.5004         26.0004
  24013694.3774   -1567061.20046  -1162711.02146                  24013702.1624
        14.7504         13.5004
 02  7  9 20 36  0.0020000  0  7G 3G11G14G31G18G21G25
  24445060.3464    6214810.08346   4706109.12546                  24445070.3574
        13.5004         12.7504
  24101668.8934   -1207282.07446   -883215.88945                  24101674.9754
        13.0004         11.5004
  21007457.6194    2874838.22447   2197902.40747                  21007462.0964
        27.5004         30.0004
  23548629.7294    4256364.54346   3244008.37846                  23548636.9634
        17.0004         17.0004
  24758281.4004    5826695.87446   4426093.31345                  24758287.8574
        13.7504         10.5004
  22295133.5184    3862096.81748   2931071.92747                  22295140.5064
        28.0004         26.2504
  24010633.8774   -1583145.35446  -1175244.04646                  24010642.0614
        15.2504         13.7504
 02  7  9 20 36 15.0020000  0  7G 3G11G14G31G18G21G25
  24459536.7524    6290886.97346   4765389.73946                  24459546.9984
        12.7504         12.7504
  24098914.2054   -1221756.82246   -894494.89046                  24098920.3224
        12.7504         12.2504
  21015151.5964    2915270.43947   2229408.02847                  21015156.0724
        27.2504         30.2504
  23559411.4084    4313022.55846   3288157.46846                  23559418.7254
        16.5004         17.2504
  24771788.5334    5897672.99746   4481400.13445                  24771797.9474
        12.7504         11.7504
  22304441.7364    3911011.35548   2969187.14447                  22304448.3934
        28.2504         26.0004
  24007580.2684   -1599192.13746  -1187747.93946                  24007589.4714
        15.5004         14.2504
 02  7  9 20 36 30.0020000  0  7G 3G11G14G31G18G21G25
  24474019.5884    6366992.59546   4824692.71946                  24474030.5964
        12.2504         13.2504
  24096170.6974   -1236178.62746   -905732.62046                  24096177.1664
        12.7504         12.0004
  21022868.2054    2955820.71447   2261005.64447                  21022872.8814
        27.2504         30.0004
  23570213.9004    4369790.74246   3332392.38546                  23570221.4394
        16.2504         17.0004
  24785298.1434    5968669.63946   4536722.13845                  24785305.1784
        12.5004         11.2504
  22313758.8224    3959973.20448   3007339.22047                  22313765.3964
        28.2504         26.0004
  24004533.6894   -1615201.64846  -1200222.78846                  24004542.9044
        15.0004         14.0004
 02  7  9 20 36 45.0020000  0  7G 3G11G14G31G18G21G25
  24488508.3074    6443129.89946   4884020.39446                  24488518.4124
        12.2504         13.0004
  24093436.7364   -1250543.80946   -916926.22645                  24093442.9004
        13.7504         11.7504
  21030607.5024    2996492.18947   2292697.70547                  21030612.1894
        27.0004         30.0004
  23581038.2604    4426672.23646   3376715.59146                  23581046.5844
        15.2504         16.2504
  24798812.9244    6039689.13946   4592061.96745                  24798820.7914
        13.5004         11.5004
  22323085.7604    4008985.94148   3045530.95147                  22323092.3694
        28.5004         26.2504
  24001495.6584   -1631170.14346  -1212665.67346                  24001504.1934
        17.2504         15.2504
 02  7  9 20 37  0.0020000  0  7G 3G11G14G31G18G21G25
  24503004.7364    6519309.74945   4943381.22146                  24503015.5334
        11.5004         12.7504
  24090716.1824   -1264840.75646   -928066.69646                  24090721.6784
        14.5004         12.0004
  21038372.2994    3037296.07747   2324492.94647                  21038376.8694
        27.2504         29.7504
  23591886.1824    4483677.96646   3421135.61446                  23591894.1314
        15.5004         16.5004
  24812334.3074    6110742.68546   4647428.28945                  24812341.7054
        12.7504         10.7504
  22332424.2994    4058060.75548   3083771.05747                  22332430.9324
        28.5004         26.0004
  23998466.5414   -1647086.15846  -1225067.70046                  23998474.2444
        15.2504         14.0004
 02  7  9 20 37 15.0020000  0  7G 3G11G14G31G18G21G25
  24517505.8544    6595512.52146   5002759.89846                  24517515.8544
        12.5004         12.5004
  24088005.1504   -1279088.43746   -939168.74346                  24088009.8264
        15.0004         12.2504
  21046158.4474    3078212.86347   2356376.15047                  21046163.1004
        27.0004         30.0004
  23602753.9474    4540788.39146   3465637.19746                  23602761.9674
        16.2504         16.7504
  24825857.4864    6181810.89946   4702806.10345                  24825864.5924
        12.5004         11.0004
  22341771.0724    4107178.32448   3122044.47347                  22341777.4004
        28.2504         25.7504
  23995443.8934   -1662968.62046  -1237443.59346                  23995451.5724
        14.5004         13.7504
 02  7  9 20 37 30.0020000  0  7G 3G11G14G31G18G21G25
  24532013.8934    6671752.19146   5062167.35146                  24532023.8574
        12.5004         12.5004
  24085305.8934   -1293272.30146   -950221.07146                  24085310.6624
        15.0004         12.5004
  21053968.8144    3119256.62847   2388358.30647                  21053973.3264
        27.2504         29.7504
  23613644.3464    4598017.41646   3510231.22046                  23613651.8964
        16.5004         16.5004
  24839387.6194    6252908.26246   4758206.56345                  24839394.4044
        13.0004         10.2504
  22351128.6194    4156353.01648   3160362.40947                  22351134.9824
        28.5004         25.7504
  23992430.2604   -1678802.83346  -1249781.85546                  23992439.0884
        14.0004         14.2504
 02  7  9 20 37 45.0020000  0  7G 3G11G14G31G18G21G25
  24546529.5644    6748033.18846   5121606.99046                  24546539.7754
        12.7504         12.5004
  24082620.0024   -1307387.26346   -961219.72046                  24082624.4084
        15.2504         12.7504
  21061804.2444    3160431.88147   2420442.92147                  21061808.7094
        27.2504         30.0004
  23624557.8304    4655369.57546   3554921.19046                  23624565.1234
        16.7504         16.5004
  24852923.0804    6324039.45445   4813633.45845                  24852930.4904
        10.7504         10.2504
  22360498.1044    4205589.71148   3198728.64946                  22360504.4554
        28.5004         25.5004
  23989427.2134   -1694583.65846  -1262078.49146                  23989436.1824
        15.7504         14.2504
 02  7  9 20 38  0.0020000  0  7G 3G11G14G31G18G21G25
  24561049.8774    6824336.51146   5181064.04446                  24561060.2294
        13.2504         12.2504
  24079944.0024   -1321451.54246   -972178.86446                  24079947.8224
        16.0004         13.2504
  21069661.2444    3201719.99347   2452615.47447                  21069665.7094
        27.2504         29.7504
  23635491.3934    4712826.03446   3599692.41946                  23635498.7214
        16.2504         16.2504
  24866462.0024    6395185.79145   4869072.09745                  24866469.0494
        11.5004          9.7504
  22369875.8224    4254869.84848   3237128.74646                  22369882.3264
        28.0004         25.5004
  23986431.4244   -1710329.18446  -1274347.66246                  23986439.9474
        17.0004         15.0004
 02  7  9 20 38 15.0020000  0  7G 3G11G14G31G18G21G25
  24575575.0644    6900666.48246   5240541.85546                  24575584.6194
        13.0004         12.2504
  24077278.1354   -1335460.34846   -983094.78546                  24077283.3144
        16.0004         13.2504
  21077540.3144    3243125.39047   2484879.42047                  21077544.9084
        27.2504         29.7504
  23646445.8224    4770391.02146   3644548.24446                  23646453.1274
        15.7504         15.7504
  24880004.8694    6466352.06445   4924526.31645                  24880010.5414
        10.5004          9.7504
  22379262.8074    4304198.21248   3275566.42246                  22379269.2404
        28.2504         25.5004
  23983443.0724   -1726034.58446  -1286585.54646                  23983452.5334
        16.2504         15.0004
 02  7  9 20 38 30.0020000  0  7G 3G11G14G31G18G21G25
  24590107.2364    6977032.90646   5300048.07045                  24590116.1824
        12.2504         11.2504
  24074624.2604   -1349403.12646   -993959.26946                  24074630.7174
        15.2504         13.0004
  21085443.7754    3284658.09447   2517242.56347                  21085448.4164
        27.0004         30.0004
  23657422.7684    4828074.46946   3689496.34946                  23657430.3544
        15.2504         15.7504
  24893551.1354    6537548.36445   4980003.86845                  24893555.8224
         8.7504          8.0004
  22388660.6824    4353584.96448   3314049.59946                  22388667.3504
        28.0004         25.5004
  23980463.6974   -1741689.29246  -1298783.93746                  23980471.7404
        15.2504         14.2504
 02  7  9 20 38 45.0020000  0  7G 3G11G14G31G18G21G25
  24604644.0724    7053426.05246   5359575.08645                  24604652.9244
        12.5004         11.5004
  24071981.7444   -1363288.93646  -1004779.34446                  24071987.7564
        14.5004         13.0004
  21093369.5574    3326308.56747   2549697.47847                  21093374.1864
        27.2504         29.7504
  23668420.4944    4885866.71846   3734529.23446                  23668427.7994
        15.7504         16.0004
  24907104.2214    6608765.30745   5035497.55945                  24907110.9474
         8.2504          8.5004
  22398068.1274    4403020.80848   3352571.02346                  22398074.6194
        28.2504         25.5004
  23977492.4164   -1757302.23746  -1310949.79246                  23977499.9674
        15.7504         14.2504
 02  7  9 20 39  0.0020000  0  7G 3G11G14G31G18G21G25
  24619187.3694    7129849.37745   5419125.64745                  24619197.7914
        11.5004         11.5004
  24069350.9164   -1377113.58246  -1015551.76446                  24069357.2444
        14.2504         13.0004
  21101318.5104    3368080.40547   2582246.96047                  21101322.9634
        27.2504         29.7504
  23679439.6744    4943771.26246   3779649.62346                  23679447.1894
        16.5004         16.2504
  24920659.5884    6680006.65344   5091010.22045                  24920666.8934
         6.5004          8.0004
  22407485.5184    4452509.47448   3391133.60947                  22407492.0924
        28.7504         25.7504
  23974530.0724   -1772869.21646  -1323079.85046                  23974537.0374
        17.2504         14.7504
 02  7  9 20 39 15.0020000  0  7G 3G11G14G31G18G21G25
  24633735.9554    7206302.61045   5478699.48945                  24633745.6744
        11.0004         11.2504
  24066731.6744   -1390876.83946  -1026276.36146                  24066737.6624
        14.2504         13.2504
  21109290.3694    3409973.47247   2614890.90347                  21109294.9394
        27.2504         30.0004
  23690479.2914    5001787.82046   3824857.30446                  23690486.6314
        16.7504         16.5004
  24934222.6354    6751272.56345   5146542.05945                  24934229.1394
         8.0004          7.5004
  22416912.9324    4502051.24548   3429737.57646                  22416919.3074
        28.2504         25.5004
  23971576.6274   -1788389.83246  -1335173.75646                  23971584.1894
        17.2504         15.5004
 02  7  9 20 39 30.0020000  0  7G 3G11G14G31G18G21G25
  24648288.1194    7282776.47345   5538289.40645                  24648297.8264
        10.0004         10.7504
  24064122.8304   -1404587.22846  -1036959.75746                  24064129.1234
        14.2504         13.2504
  21117283.8384    3451978.64947   2647622.21147                  21117288.4434
        27.0004         29.7504
  23701539.4244    5059907.27146   3870145.16146                  23701547.3504
        16.7504         16.7504
  24947786.4634    6822554.11044   5202086.06945                  24947794.8224
         7.0004          7.0004
  22426348.8144    4551637.07848   3468375.87347                  22426355.3304
        28.5004         25.7504
  23968630.0494   -1803872.67746  -1347238.24346                  23968637.7524
        16.2504         15.7504
 02  7  9 20 39 45.0020000  0  7G 3G11G14G31G18G21G25
  24662845.6114    7359276.64945   5597899.80545                  24662854.9904
        10.0004         10.2504
  24061525.5024   -1418238.35146  -1047596.96846                  24061532.1934
        14.7504         13.2504
  21125299.5574    3494102.04647   2680445.63447                  21125304.0924
        27.2504         29.7504
  23712619.6274    5118135.28346   3915517.61446                  23712627.2834
        16.5004         16.7504
  24961355.5884    6893857.27245   5257646.92845                  24961363.0214
         8.0004          7.0004
  22435794.4714    4601273.11848   3507053.29846                  22435801.1974
        28.2504         25.5004
  23965692.2524   -1819311.42246  -1359268.35046                  23965699.9324
        16.5004         15.5004
 02  7  9 20 40  0.0020000  0  7G 3G11G14G31G18G21G25
  24677409.3224    7435809.57345   5657535.73145                  24677420.1314
         9.5004         10.2504
  24058940.3774   -1431823.10546  -1058182.45946                  24058946.8464
        15.2504         14.0004
  21133338.9864    3536350.14547   2713366.22947                  21133343.5104
        27.0004         29.5004
  23723722.1194    5176478.47346   3960979.79846                  23723729.6234
        16.2504         16.2504
  24974929.0184    6965188.94045   5313230.00945                  24974937.0724
         7.7504          8.0004
  22445250.5494    4650966.26648   3545775.21846                  22445257.1114
        28.2504         25.5004
  23962764.1354   -1834698.75246  -1371258.42046                  23962771.5454
        17.0004         15.7504
 02  7  9 20 40 15.0020000  0  7G 3G11G14G31G18G21G25
  24691977.9004    7512363.14645   5717187.78545                  24691988.8144
        10.5004         11.0004
  24056365.9244   -1445352.97846  -1068725.20746                  24056371.7714
        16.2504         14.0004
  21141400.0884    3578711.04247   2746374.71747                  21141404.7294
        27.0004         29.5004
  23734844.0104    5234924.75546   4006522.32446                  23734851.5374
        16.5004         16.5004
  24988506.0254    7036537.30345   5368826.09345                  24988514.1974
         8.7504          7.7504
  22454715.7444    4700704.94848   3584532.62346                  22454722.0724
        28.2504         25.5004
  23959843.8614   -1850046.11046  -1383217.33146                  23959851.8694
        17.0004         16.5004
 02  7  9 20 40 30.0020000  0  7G 3G11G14G31G18G21G25
  24706549.8224    7588942.49145   5776859.89845                  24706560.2094
        10.5004         11.0004
  24053802.8304   -1458822.06146  -1079220.55446                  24053808.3504
        16.7504         14.0004
  21149483.3464    3621190.02647   2779475.22347                  21149487.8464
        27.0004         29.2504
  23745986.3304    5293479.33046   4052149.23446                  23745993.5414
        16.2504         16.0004
  25002089.1354    7107907.86945   5424439.49445                  25002096.3114
         9.7504          8.2504
  22464190.3074    4750494.75748   3623329.87046                  22464196.8814
        28.0004         25.5004
  23956931.2134   -1865347.65246  -1395140.53046                  23956940.0644
        16.0004         16.7504
 02  7  9 20 40 45.0020000  0  7G 3G11G14G31G18G21G25
  24721126.3774    7665538.95445   5836545.33845                  24721136.6354
        10.7504         11.7504
  24051249.8464   -1472238.46646  -1089674.87246                  24051255.1894
        17.5004         14.2504
  21157587.7754    3663778.59547   2812661.12347                  21157592.4164
        27.0004         29.5004
  23757148.1504    5352133.51446   4097853.76346                  23757155.1274
        16.5004         16.2504
  25015672.8464    7179292.31245   5480063.67745                  25015680.3614
        10.0004          9.0004
  22473673.3224    4800327.37148   3662160.46146                  22473679.9084
        28.0004         25.2504
  23954026.8224   -1880611.28846  -1407034.17746                  23954035.9204
        16.7504         16.7504
 02  7  9 20 41  0.0020000  0  7G 3G11G14G31G18G21G25
  24735705.7214    7742155.95945   5896246.77945                  24735715.9434
        10.7504         11.2504
  24048707.5574   -1485598.11046  -1100084.94946                  24048713.3934
        17.5004         14.5004
  21165713.6584    3706480.41647   2845935.26747                  21165718.2754
        26.7504         29.5004
  23768329.3464    5410890.79146   4143638.62146                  23768336.2524
        15.7504         16.0004
  25029260.4634    7250694.37745   5535701.63845                  25029266.3694
        10.5004          8.7504
  22483164.9164    4850206.38147   3701027.21446                  22483171.2564
        27.2504         25.2504
  23951130.5574   -1895832.97246  -1418895.15546                  23951139.2684
        17.0004         16.5004
 02  7  9 20 41 15.0020000  0  7G 3G11G14G31G18G21G25
  24750289.0334    7818789.52545   5955961.11645                  24750299.4084
        11.0004         11.2504
  24046175.2994   -1498904.38146  -1110453.44446                  24046181.2174
        17.5004         14.2504
  21173860.6664    3749291.54947   2879294.58947                  21173865.4944
        26.7504         29.5004
  23779529.0884    5469747.18846   4189500.71346                  23779537.0844
        15.7504         16.2504
  25042849.5024    7322110.34845   5591350.40345                  25042857.0884
        11.2504          9.0004
  22492664.3384    4900128.26747   3739927.37246                  22492671.0764
        27.0004         25.5004
  23948241.5884   -1911015.94446  -1430725.99346                  23948248.7644
        17.7504         16.2504
 02  7  9 20 41 30.0020000  0  7G 3G11G14G31G18G21G25
  24764876.6664    7895448.74345   6015695.44645                  24764886.7484
        11.5004         11.5004
  24043655.1824   -1512147.42546  -1120772.66646                  24043660.8654
        17.7504         14.5004
  21182029.6664    3792221.26947   2912746.31347                  21182034.2134
        26.7504         29.2504
  23790749.9164    5528711.80246   4235447.13946                  23790758.1934
        16.0004         16.5004
  25056444.0184    7393549.72645   5647017.41545                  25056450.7094
        11.2504          8.7504
  22502174.3074    4950102.56847   3778868.37246                  22502181.0454
        27.0004         25.2504
  23945360.9244   -1926150.52446  -1442519.12046                  23945368.2994
        16.7504         16.2504
 02  7  9 20 41 45.0020000  0  7G 3G11G14G31G18G21G25
  24779467.1584    7972122.43845   6075441.07545                  24779476.6544
        10.7504         11.2504
  24041145.4084   -1525337.99646  -1131051.00146                  24041151.1154
        17.7504         14.7504
  21190219.5494    3835258.45547   2946281.78347                  21190224.4474
        26.5004         29.2504
  23801988.6664    5587773.34446   4281469.06946                  23801996.9554
        16.5004         16.7504
  25070041.0644    7465001.49645   5702694.10345                  25070047.6974
        11.2504          9.2504
  22511692.0724    5000118.46347   3817841.78746                  22511698.5764
        27.5004         25.0004
  23942487.8934   -1941247.25046  -1454282.72546                  23942496.7214
        15.2504         16.0004
 02  7  9 20 42  0.0020000  0  7G 3G11G14G31G18G21G25
  24794062.5414    8048818.08446   6135203.80445                  24794072.4474
        12.0004         11.7504
  24038646.5104   -1538467.82746  -1141282.01046                  24038651.5964
        18.0004         15.0004
  21198430.9324    3878410.89047   2979907.05647                  21198435.6784
        26.5004         29.5004
  23813247.8854    5646939.55146   4327572.58446                  23813255.6234
        16.2504         16.5004
  25083641.9714    7536473.74345   5758386.68745                  25083650.5294
        10.7504          9.0004
  22521219.1044    5050183.93247   3856853.83046                  22521225.6784
        27.2504         25.2504
  23939623.8934   -1956297.82146  -1466010.35746                  23939632.4984
        16.2504         16.5004
 02  7  9 20 42 15.0020000  0  7G 3G11G14G31G18G21G25
  24808660.7054    8125532.99745   6194981.54145                  24808670.6584
        11.5004         11.7504
  24036158.8144   -1551538.98746  -1151467.29246                  24036164.3344
        17.2504         14.2504
  21206664.1744    3921675.94347   3013620.08247                  21206668.7794
        26.7504         29.5004
  23824526.1114    5706207.69146   4373755.51346                  23824533.7794
        16.0004         16.2504
  25097246.1974    7607963.98345   5814093.37245                  25097253.1154
        10.2504          9.2504
  22530755.4164    5100296.54147   3895902.59946                  22530762.0614
        27.7504         25.5004
  23936768.0414   -1971304.07446  -1477703.47446                  23936775.5334
        17.5004         16.7504
 02  7  9 20 42 30.0020000  0  7G 3G11G14G31G18G21G25
  24823262.2524    8202265.86746   6254773.27445                  24823272.8264
        12.2504         11.7504
  24033682.3774   -1564551.94846  -1161607.24546                  24033688.1894
        16.5004         13.7504
  21214918.4944    3965052.58447   3047420.05747                  21214923.2054
        27.0004         29.5004
  23835823.6194    5765576.58246   4420016.95046                  23835831.1824
        15.5004         15.7504
  25110853.1354    7679471.43745   5869813.38045                  25110860.5214
         9.7504          9.5004
  22540300.5334    5150455.52148   3934987.50546                  22540307.1194
        28.0004         25.2504
  23933921.2914   -1986266.69646  -1489362.60446                  23933928.9364
        17.2504         15.7504
 02  7  9 20 42 45.0030000  0  7G 3G11G14G31G18G21G25
  24837869.1014    8279024.05345   6314584.73245                  24837878.4564
        11.5004         11.2504
  24031217.6634   -1577504.76246  -1171700.31046                  24031223.6984
        16.0004         13.5004
  21223195.0934    4008546.17547   3081311.16747                  21223199.8154
        26.7504         29.2504
  23847141.6944    5825052.58146   4466361.85346                  23847149.2804
        15.0004         15.2504
  25124465.7264    7751003.36045   5925552.50745                  25124473.7334
        10.7504          9.7504
  22549855.5224    5200667.30047   3974113.55646                  22549862.0854
        27.7504         25.2504
  23931082.2264   -2001183.62346  -1500986.13246                  23931090.5034
        16.7504         16.0004
 02  7  9 20 43  0.0030000  0  7G 3G11G14G31G18G21G25
  24852477.8584    8355790.33645   6374402.48145                  24852488.1634
        10.7504         11.0004
  24028763.3664   -1590401.96546  -1181750.05546                  24028769.0154
        15.7504         13.7504
  21231491.4374    4052144.17447   3115283.63147                  21231496.1244
        26.7504         29.5004
  23858477.1404    5884620.62146   4512778.47246                  23858484.6794
        15.2504         15.2504
  25138079.9764    7822543.54745   5981298.05345                  25138087.2104
        10.7504          9.5004
  22559417.7024    5250918.14347   4013270.04946                  22559424.4174
        27.0004         25.2504
  23928251.5464   -2016059.35046  -1512577.53846                  23928260.4914
        16.7504         16.7504
 02  7  9 20 43 15.0030000  0  7G 3G11G14G31G18G21G25
  24867089.3974    8432578.02045   6434236.91045                  24867100.5694
        11.2504         11.5004
  24026321.1014   -1603235.64646  -1191750.27946                  24026326.8194
        16.5004         14.0004
  21239809.8354    4095857.62847   3149346.05647                  21239814.4994
        26.7504         29.5004
  23869832.3434    5944292.95246   4559276.35746                  23869840.3274
        15.7504         16.0004
  25151697.1714    7894105.24745   6037060.37645                  25151704.2064
        10.2504          9.7504
  22568989.8194    5301219.97447   4052466.26346                  22568996.7724
        27.7504         25.5004
  23925430.0224   -2030885.91246  -1524130.62346                  23925438.5224
        17.0004         16.5004
 02  7  9 20 43 30.0030000  0  7G 3G11G14G31G18G21G25
  24881706.3194    8509387.03045   6494087.97245                  24881716.9294
        11.2504         11.0004
  24023891.3124   -1616005.21646  -1201700.59146                  24023897.1014
        16.7504         14.5004
  21248149.9764    4139686.66247   3183498.54947                  21248154.7454
        26.7504         29.2504
  23881207.7494    6004069.49146   4605855.43446                  23881215.7104
        15.7504         15.5004
  25165319.4294    7965688.78645   6092839.71145                  25165327.3784
         9.7504          9.5004
  22578571.7184    5351572.93147   4091702.31846                  22578578.3744
        27.2504         25.2504
  23922618.0624   -2045662.66346  -1535644.92546                  23922626.0464
        16.2504         16.5004
 02  7  9 20 43 45.0030000  0  7G 3G11G14G31G18G21G25
  24896326.5464    8586218.23045   6553956.31145                  24896337.4604
        11.0004         11.0004
  24021473.8194   -1628709.18546  -1211599.77646                  24021479.8784
        16.7504         14.0004
  21256512.8434    4183632.32447   3217741.92247                  21256517.5894
        26.5004         29.5004
  23892602.7884    6063951.19546   4652516.45646                  23892610.5624
        15.7504         15.5004
  25178945.7654    8037295.37445   6148637.02245                  25178953.3514
        10.0004          9.0004
  22588163.6164    5401978.31847   4130979.23046                  22588170.2844
        27.0004         25.2504
  23919815.6164   -2060387.89646  -1547119.06946                  23919823.3664
        16.7504         16.5004
 02  7  9 20 44  0.0030000  0  7G 3G11G14G31G18G21G25
  24910951.2494    8663073.23845   6613843.19745                  24910962.0584
        10.0004         10.5004
  24019069.2884   -1641345.17346  -1221445.98346                  24019074.2224
        17.0004         13.7504
  21264897.9374    4227696.56147   3252077.68647                  21264902.7184
        26.7504         29.5004
  23904018.3274    6123939.74546   4699260.75646                  23904025.9254
        15.5004         15.2504
  25192576.4604    8108927.05745   6204453.85845                  25192583.0934
         9.5004          9.0004
  22597765.7184    5452438.57047   4170298.89246                  22597772.4914
        27.0004         25.2504
  23917023.8044   -2075059.48846  -1558551.40846                  23917032.4094
        15.7504         15.7504
 02  7  9 20 44 15.0030000  0  7G 3G11G14G31G18G21G25
  24925581.0544    8739950.27345   6673747.26345                  24925591.0424
        10.5004         10.5004
  24016677.6084   -1653914.37146  -1231240.13346                  24016682.9054
        17.5004         14.2504
  21273305.3194    4271877.61147   3286504.47647                  21273309.9604
        26.7504         29.5004
  23915454.1084    6184033.38746   4746086.92646                  23915461.6944
        16.0004         15.2504
  25206212.3124    8180582.24245   6260288.99545                  25206218.8514
         9.5004          9.5004
  22607378.1324    5502952.22247   4209660.16546                  22607385.1904
        26.7504         25.2504
  23914241.9764   -2089678.35746  -1569942.66546                  23914249.8194
        17.0004         16.2504
 02  7  9 20 44 30.0030000  0  7G 3G11G14G31G18G21G25
  24940211.9214    8816838.68545   6733660.20745                  24940221.8044
        10.7504         10.7504
  24014296.5854   -1666426.79246  -1240990.03846                  24014301.6244
        17.5004         14.5004
  21281732.9214    4316164.97947   3321014.11147                  21281737.5974
        27.0004         29.5004
  23926907.2724    6244221.48446   4792986.72046                  23926914.2494
        16.0004         15.5004
  25219850.1404    8252250.76645   6316134.52445                  25219857.2924
         9.0004          8.0004
  22616998.8664    5553508.84547   4249054.92346                  22617005.9014
        26.7504         25.2504
  23911468.2024   -2104254.40146  -1581300.56446                  23911475.7654
        17.0004         16.7504
 02  7  9 20 44 45.0030000  0  7G 3G11G14G31G18G21G25
  24954847.3824    8893741.43145   6793584.31245                  24954857.7804
        10.7504         10.5004
  24011926.6944   -1678878.80746  -1250692.88946                  24011931.8974
        17.0004         14.5004
  21290181.2494    4360561.65547   3355608.92247                  21290185.9254
        27.0004         29.7504
  23938379.5074    6304506.96946   4839962.39346                  23938386.5774
        16.2504         15.2504
  25233491.5224    8323935.84745   6371993.04145                  25233496.6794
        10.0004          8.0004
  22626628.0694    5604111.94147   4288485.89346                  22626635.1634
        26.7504         25.2504
  23908703.0304   -2118784.11546  -1592622.35246                  23908711.8584
        15.0004         16.7504
 02  7  9 20 45  0.0030000  0  7G 3G11G14G31G18G21G25
  24969484.3664    8970662.66545   6853522.79245                  24969494.8354
        11.2504         10.7504
  24009569.9684   -1691265.60046  -1260344.89846                  24009575.5814
        17.0004         14.5004
  21298651.3744    4405072.13247   3390292.40947                  21298656.0384
        27.0004         29.7504
  23949870.6474    6364894.12646   4887017.28346                  23949877.6014
        16.5004         15.7504
  25247136.2804    8395642.20545   6427868.04745                  25247143.8904
         7.7504          8.2504
  22636267.1874    5654765.80747   4327956.42246                  22636274.2694
        26.7504         25.0004
  23905947.8124   -2133262.62646  -1603904.22146                  23905955.9134
        16.0004         16.5004
 02  7  9 20 45 15.0030000  0  7G 3G11G14G31G18G21G25
  24984126.4764    9047605.43845   6913478.07245                  24984137.7294
        10.2504         11.2504
  24007225.9214   -1703583.44346  -1269943.19646                  24007231.5814
        17.0004         15.0004
  21307143.8664    4449699.61947   3425067.07047                  21307148.4604
        27.0004         29.7504
  23961381.8354    6425385.83846   4934153.64446                  23961388.9524
        16.7504         16.2504
  25260786.6404    8467373.03545   6483762.14145                  25260794.0734
         9.0004          8.0004
  22645916.9524    5705474.19147   4367469.43146                  22645923.6794
        26.7504         25.2504
  23903203.2334   -2147686.10446  -1615143.24946                  23903212.1674
        16.2504         16.2504
 02  7  9 20 45 30.0030000  0  7G 3G11G14G31G18G21G25
  24998770.3904    9124558.11645   6973441.07845                  24998780.3904
        11.0004         10.2504
  24004892.7654   -1715843.24746  -1279496.24846                  24004898.0624
        17.0004         14.7504
  21315656.2804    4494432.64447   3459923.97347                  21315660.9334
        27.0004         29.7504
  23972910.5544    6485970.79746   4981362.67146                  23972917.9994
        16.2504         16.2504
  25274438.7024    8539117.16345   6539666.66245                  25274448.8664
         8.0004          7.2504
  22655574.7414    5756225.88247   4407016.19046                  22655581.4684
        27.0004         25.0004
  23900467.1944   -2162065.27346  -1626347.71346                  23900475.3904
        17.2504         16.2504
 02  7  9 20 45 45.0030000  0  7G 3G11G14G31G18G21G25
  25013417.6474    9201533.07345   7033421.44345                  25013427.9054
        11.7504         11.2504
  24002573.0854   -1728032.06846  -1288994.00846                  24002578.5114
        17.2504         14.7504
  21324191.1794    4539283.72947   3494872.86547                  21324195.6674
        27.2504         30.0004
  23984459.5694    6546661.13846   5028653.80246                  23984467.6834
        15.7504         16.0004
  25288096.9444    8610887.19245   6595591.26245                  25288104.7884
         9.0004          7.7504
  22665243.1874    5807033.36147   4446606.42346                  22665249.8904
        27.0004         25.0004
  23897741.0624   -2176387.33446  -1637507.70446                  23897749.3154
        16.2504         16.2504
 02  7  9 20 46  0.0030000  0  7G 3G11G14G31G18G21G25
  25028068.3354    9278522.59645   7093413.15345                  25028080.1984
        10.7504         11.5004
  24000265.5854   -1740157.02846  -1298441.99746                  24000271.3864
        16.5004         14.2504
  21332746.8434    4584245.17147   3529907.75447                  21332751.1674
        27.2504         30.2504
  23996027.4914    6607449.24046   5076021.10446                  23996035.9334
        15.5004         15.7504
  25301757.2964    8682675.51545   6651530.20845                  25301764.5654
         9.0004          7.0004
  22674920.8354    5857889.38547   4486234.47746                  22674927.3274
        27.7504         25.2504
  23895025.4914   -2190659.36946  -1648628.70446                  23895033.4294
        16.7504         16.5004
 02  7  9 20 46 15.0030000  0  7G 3G11G14G31G18G21G25
  25042721.8274    9355526.57145   7153416.12245                  25042732.9994
        11.5004         11.5004
  23997970.1714   -1752217.47046  -1307839.72446                  23997975.9254
        16.5004         14.0004
  21341323.8664    4629317.23747   3565028.84947                  21341328.3664
        27.2504         30.0004
  24007613.2654    6668335.16046   5123464.64346                  24007621.3904
        15.7504         16.0004
  25315421.7184    8754482.74545   6707483.81445                  25315431.1444
        10.0004          7.7504
  22684607.5304    5908794.38047   4525900.69246                  22684614.1404
        27.5004         25.0004
  23892319.0774   -2204880.60546  -1659710.11446                  23892328.0934
        17.2504         16.7504
 02  7  9 20 46 30.0030000  0  7G 3G11G14G31G18G21G25
  25057378.5544    9432543.50745   7213429.20745                  25057390.2414
        11.0004         11.2504
  23995687.5304   -1764214.21346  -1317187.82446                  23995693.3084
        15.7504         13.7504
  21349921.7264    4674498.42147   3600234.96447                  21349926.0854
        27.2504         30.0004
  24019218.3274    6729317.29546   5170983.14746                  24019225.7494
        16.0004         15.7504
  25329090.1474    8826307.55445   6763451.19845                  25329097.0194
        10.7504          7.7504
  22694303.6794    5959747.27647   4565604.23446                  22694310.4644
        27.7504         25.2504
  23889622.4444   -2219051.90646  -1670752.60346                  23889630.7574
        16.5004         16.7504
 02  7  9 20 46 45.0030000  0  7G 3G11G14G31G18G21G25
  25072034.8514    9509568.67045   7273448.67645                  25072045.8704
        11.2504         11.5004
  23993415.6084   -1776151.43946  -1326489.53246                  23993422.2764
        15.2504         13.5004
  21358539.0854    4719784.04447   3635522.45847                  21358543.6204
        27.0004         29.7504
  24030839.9444    6790390.90546   5218572.92446                  24030847.6714
        15.7504         15.7504
  25342760.1244    8898145.56345   6819428.89145                  25342767.3124
        11.0004          8.2504
  22704008.0694    6010743.63347   4605341.64346                  22704014.8904
        27.7504         25.0004
  23886934.1164   -2233177.27546  -1681759.32346                  23886941.8194
        17.2504         16.0004
 02  7  9 20 47  0.0030000  0  7G 3G11G14G31G18G21G25
  25086695.5224    9586605.80545   7333477.48845                  25086707.4914
        10.5004         11.7504
  23991156.4684   -1788024.70646  -1335741.39546                  23991162.5264
        15.2504         13.7504
  21367177.3904    4765178.17447   3670894.50447                  21367182.0304
        26.7504         30.0004
  24042480.1474    6851559.82246   5266237.00746                  24042487.0774
        15.0004         15.0004
  25356434.8974    8970000.83246   6875419.91145                  25356441.3084
        12.2504          9.2504
  22713721.1244    6061787.74848   4645116.27346                  22713728.0544
        28.0004         25.0004
  23884255.7414   -2247252.45646  -1692726.92946                  23884264.0194
        17.0004         16.2504
 02  7  9 20 47 15.0030000  0  7G 3G11G14G31G18G21G25
  25101356.9834    9663651.84945   7393513.21145                  25101369.2454
        10.7504         11.5004
  23988909.0224   -1799836.34446  -1344945.25446                  23988914.9294
        16.0004         13.7504
  21375835.7104    4810677.88147   3706348.82047                  21375840.5034
        26.7504         30.0004
  24054137.5624    6912820.98046   5313972.91546                  24054144.8544
        15.2504         15.2504
  25370110.4764    9041870.75145   6931422.45145                  25370116.7694
        11.5004          8.2504
  22723443.2024    6112876.83548   4684925.93046                  22723450.0624
        28.0004         25.0004
  23881586.3664   -2261279.63046  -1703657.12946                  23881594.6794
        17.0004         16.7504
 02  7  9 20 47 30.0030000  0  7G 3G11G14G31G18G21G25
  25116020.2804    9740710.52345   7453558.79545                  25116031.6284
        11.2504         11.5004
  23986674.0624   -1811582.02146  -1354097.70346                  23986679.5344
        17.0004         14.5004
  21384514.8584    4856287.03547   3741888.41947                  21384519.4764
        27.0004         30.0004
  24065813.7264    6974178.12146   5361783.63546                  24065821.3474
        15.2504         15.5004
  25383791.0774    9113759.35646   6987439.49545                  25383796.5974
        12.2504          8.7504
  22733174.5154    6164015.06647   4724773.89146                  22733181.1714
        27.7504         24.7504
  23878927.2964   -2275254.42046  -1714546.50146                  23878935.2224
        17.0004         16.7504
 02  7  9 20 47 45.0030000  0  7G 3G11G14G31G18G21G25
  25130686.0154    9817778.28545   7513611.46445                  25130696.3904
        10.5004         11.5004
  23984450.7654   -1823264.69546  -1363201.06346                  23984456.3084
        18.2504         15.2504
  21393214.1084    4902002.13847   3777510.57447                  21393218.6204
        27.0004         30.0004
  24077507.3824    7035627.70846   5409666.38046                  24077514.8624
        16.0004         15.2504
  25397474.0464    9185663.38246   7043468.56145                  25397478.8744
        12.0004          9.0004
  22742914.2654    6215199.14547   4764657.57846                  22742920.9564
        27.5004         24.7504
  23876277.5464   -2289179.53346  -1725397.17046                  23876284.9794
        16.5004         16.2504
 02  7  9 20 48  0.0030000  0  7G 3G11G14G31G18G21G25
  25145353.5544    9894853.61045   7573670.00845                  25145364.6204
        11.2504         11.0004
  23982239.7184   -1834885.19246  -1372255.98546                  23982244.4174
        18.7504         15.5004
  21401933.1874    4947821.80647   3813214.21347                  21401937.9794
        26.5004         30.0004
  24089218.3274    7097168.19646   5457619.98646                  24089226.0894
        16.0004         15.7504
  25411159.1634    9257581.57845   7099508.65745                  25411166.7844
        10.5004          8.7504
  22752663.1164    6266428.10147   4804576.23546                  22752670.1164
        27.2504         24.7504
  23873636.9134   -2303055.92746  -1736209.87746                  23873643.8084
        19.0004         16.2504
 02  7  9 20 48 15.0030000  0  7G 3G11G14G31G18G21G25
  25160021.9134    9971936.13645   7633734.21445                  25160033.1084
        10.2504         10.7504
  23980040.3194   -1846443.20746  -1381262.21446                  23980045.0074
        19.5004         15.7504
  21410672.3354    4993745.96447   3848999.27047                  21410677.1284
        26.7504         29.7504
  24100946.0304    7158799.22946   5505644.12746                  24100953.7804
        16.2504         15.7504
  25424846.9374    9329514.08245   7155559.93545                  25424853.7104
        10.0004          9.5004
  22762420.2024    6317702.11647   4844529.99446                  22762426.9294
        27.2504         24.7504
  23871005.4294   -2316883.32346  -1746984.41346                  23871012.6514
        18.5004         17.0004
 02  7  9 20 48 30.0030000  0  7G 3G11G14G31G18G21G25
  25174692.1874   10049031.38745   7693808.26845                  25174703.3474
        10.7504         11.2504
  23977853.9764   -1857932.47747  -1390214.86246                  23977858.8394
        20.0004         16.2504
  21419432.5774    5039780.29347   3884870.17047                  21419437.3004
        27.0004         30.0004
  24112692.0934    7220526.53846   5553743.29046                  24112699.9954
        16.0004         15.2504
  25438538.5854    9401466.63744   7211626.81345                  25438546.6514
         7.2504          8.0004
  22772186.9214    6369027.05147   4884523.43246                  22772193.8044
        26.7504         24.5004
  23868384.8044   -2330655.28146  -1757715.74146                  23868392.4134
        18.2504         17.0004
 02  7  9 20 48 45.0030000  0  7G 3G11G14G31G18G21G25
  25189364.7334   10126136.36445   7753889.95145                  25189376.0344
         9.7504         10.7504
  23975680.1164   -1869355.38446  -1399115.80646                  23975684.9094
        19.2504         16.0004
  21428212.8194    5085921.84847   3920824.62747                  21428217.6014
        27.0004         30.0004
  24124456.4994    7282347.04646   5601915.09646                  24124463.7804
        15.2504         14.7504
  25452233.6634    9473436.70544   7267707.32045                  25452243.5224
         6.2504          7.0004
  22781962.8124    6420400.30147   4924554.52346                  22781969.3514
        26.7504         24.2504
  23865774.2104   -2344374.15246  -1768405.69346                  23865781.3744
        19.7504         17.5004
 02  7  9 20 49  0.0030000  0  7G 3G11G14G31G18G21G25
  25204039.2334   10203247.14045   7813976.10045                  25204050.4524
        10.2504         11.0004
  23973518.1474   -1880715.23046  -1407967.62046                  23973523.2574
        18.0004         16.0004
  21437013.0384    5132166.91647   3956859.74647                  21437017.6204
        27.0004         30.0004
  24136237.2804    7344256.86646   5650156.46946                  24136244.5734
        15.2504         15.0004
  25465932.3044    9545420.71944   7323798.73145                  25465940.1364
         6.7504          7.7504
  22791747.5154    6471818.20147   4964620.40446                  22791754.0424
        27.2504         24.2504
  23863172.9994   -2358043.28846  -1779056.90846                  23863180.1754
        19.5004         17.2504
 02  7  9 20 49 15.0030000  0  7G 3G11G14G31G18G21G25
  25218715.2024   10280369.71545   7874071.48445                  25218726.4214
        10.5004         11.0004
  23971369.8274   -1892005.44346  -1416765.15646                  23971375.4764
        17.5004         15.7504
  21445834.0384    5178521.64647   3992980.31147                  21445838.6674
        26.7504         30.0004
  24148036.1944    7406261.94346   5698472.06946                  24148043.8274
        14.7504         14.2504
  25479633.3434    9617425.08743   7379905.95545                  25479642.2654
         5.5004          7.7504
  22801541.6014    6523287.14147   5004726.06146                  22801548.0464
        27.0004         24.0004
  23860582.6014   -2371655.77147  -1789663.96946                  23860588.9524
        20.7504         17.5004
 02  7  9 20 49 30.0030000  0  7G 3G11G14G31G18G21G25
  25233391.6324   10357492.50245   7934167.01945                  25233403.5194
        10.5004         10.5004
  23969232.3044   -1903236.80546  -1425516.84346                  23969238.2454
        17.7504         16.0004
  21454673.5544    5224974.64447   4029177.45347                  21454678.2414
        27.0004         30.0004
  24159851.7724    7468350.77846   5746852.92846                  24159859.2764
        15.0004         14.5004
  25493338.8664    9689438.32745   7436020.09245                  25493346.7574
         7.5004          8.0004
  22811343.6084    6574796.01247   5044862.82446                  22811350.3354
        26.7504         24.2504
  23858001.1164   -2385222.62346  -1800235.48546                  23858008.7964
        19.7504         18.0004
 02  7  9 20 49 45.0030000  0  7G 3G11G14G31G18G21G25
  25248070.3514   10434630.83045   7994274.72245                  25248082.3084
        10.7504         10.2504
  23967109.6404   -1914393.38646  -1434210.24746                  23967115.9444
        18.0004         15.5004
  21463535.2104    5271541.35847   4065463.20447                  21463539.9214
        27.0004         30.0004
  24171685.8044    7530538.67246   5795310.99846                  24171693.2724
        15.2504         14.7504
  25507046.7104    9761476.18644   7492153.46045                  25507054.6364
         7.0004          8.5004
  22821155.8904    6626360.56047   5085042.98246                  22821162.6984
        26.5004         24.2504
  23855431.0154   -2398727.87446  -1810758.98546                  23855438.6474
        19.7504         18.0004
 02  7  9 20 50  0.0030000  0  7G 3G11G14G31G18G21G25
  25262750.8124   10511778.70745   8054389.73845                  25262762.1124
        10.5004         10.2504
  23964999.3044   -1925480.53446  -1442849.56446                  23965005.1984
        18.2504         15.7504
  21472416.9294    5318215.78147   4101832.88447                  21472421.6164
        26.7504         30.2504
  24183537.3744    7592819.61246   5843841.57346                  24183544.9724
        15.0004         15.0004
  25520759.4294    9833533.02045   7548301.58545                  25520768.6084
         7.7504          8.5004
  22830977.9134    6677975.12147   5125262.10646                  22830984.6284
        26.5004         24.2504
  23852871.4684   -2412176.89147  -1821238.66846                  23852878.8084
        20.0004         18.2504
 02  7  9 20 50 15.0030000  0  7G 3G11G14G31G18G21G25
  25277432.6404   10588931.87145   8114508.98945                  25277444.7724
         9.7504         10.2504
  23962902.2264   -1936502.05546  -1451437.74546                  23962908.2494
        18.5004         15.2504
  21481318.4444    5364993.74347   4138283.24547                  21481323.0734
        27.0004         30.2504
  24195406.4374    7655189.28946   5892441.27346                  24195414.4564
        14.7504         14.7504
  25534473.5774    9905604.77045   7604461.33745                  25534482.0304
         9.5004          9.5004
  22840808.7414    6729635.88447   5165517.23846                  22840815.2454
        26.5004         24.0004
  23850322.3824   -2425573.15646  -1831677.24446                  23850328.7104
        19.5004         17.5004
 02  7  9 20 50 30.0030000  0  7G 3G11G14G31G18G21G25
  25292114.8744   10666081.30045   8174625.25545                  25292126.8664
         9.7504         10.0004
  23960815.8514   -1947466.16546  -1459981.20446                  23960821.7574
        18.2504         15.5004
  21490237.9834    5411866.48047   4174807.45547                  21490242.7654
        26.7504         30.2504
  24207289.8974    7717638.67546   5941103.09746                  24207298.0114
        14.7504         15.0004
  25548189.2964    9977682.78345   7660625.96745                  25548197.9484
         8.0004          8.5004
  22850646.6014    6781334.14847   5205801.58846                  22850653.1634
        26.7504         24.0004
  23847781.4054   -2438924.99546  -1842081.22546                  23847788.7224
        18.7504         17.7504
 02  7  9 20 50 45.0030000  0  7G 3G11G14G31G18G21G25
  25306797.2654   10743240.12545   8234748.86545                  25306808.9644
        10.5004         10.5004
  23958742.6324   -1958358.97646  -1468469.10246                  23958748.2574
        18.0004         15.7504
  21499178.0544    5458847.38947   4211415.95347                  21499182.8824
        26.7504         30.0004
  24219190.8044    7780181.10446   5989837.41846                  24219198.7534
        14.2504         15.0004
  25561909.6714   10049780.76445   7716806.14345                  25561917.5034
         9.0004          9.0004
  22860493.9054    6833083.61147   5246125.83046                  22860500.6794
        27.0004         24.2504
  23845251.8584   -2452218.45346  -1852439.69346                  23845258.5264
        19.2504         18.0004
 02  7  9 20 51  0.0030000  0  7G 3G11G14G31G18G21G25
  25321482.7724   10820412.41245   8294882.96945                  25321494.5424
        10.0004         10.0004
  23956684.4214   -1969175.89246  -1476897.84446                  23956690.2334
        17.7504         15.7504
  21508139.8904    5505940.59147   4248111.96047                  21508144.5774
        26.7504         30.0004
  24231111.0934    7842820.49946   6038647.28946                  24231119.8044
        13.7504         14.5004
  25575634.1634   10121903.03045   7773005.27745                  25575640.3864
         9.7504          8.7504
  22870352.2574    6884888.85547   5286493.54146                  22870359.1634
        26.7504         23.7504
  23842734.0934   -2465448.85447  -1862749.02346                  23842741.3394
        20.0004         18.5004
 02  7  9 20 51 15.0030000  0  7G 3G11G14G31G18G21G25
  25336166.8744   10897580.35145   8355013.69945                  25336177.6124
        10.5004         10.2504
  23954637.2334   -1979933.92146  -1485280.69046                  23954642.9524
        18.0004         15.5004
  21517119.4134    5553128.42047   4284881.69347                  21517124.1014
        26.7504         30.0004
  24243046.2724    7905539.18146   6087518.93546                  24243054.9134
        14.2504         14.7504
  25589360.0304   10194032.19745   7829209.74945                  25589366.9834
         9.5004          8.5004
  22880217.9604    6936732.41547   5326891.10346                  22880224.7924
        26.7504         23.7504
  23840224.9604   -2478633.27046  -1873022.53446                  23840231.9374
        19.0004         18.2504
 02  7  9 20 51 30.0030000  0  7G 3G11G14G31G18G21G25
  25350851.3664   10974749.21345   8415145.12845                  25350862.4794
         9.5004         10.0004
  23952602.5384   -1990627.22146  -1493613.11946                  23952607.9404
        18.2504         16.0004
  21526117.9444    5600416.20447   4321729.31947                  21526122.6444
        26.7504         30.0004
  24254997.1164    7968342.39146   6136456.46346                  24255005.5814
        14.0004         14.5004
  25603087.9294   10266173.76545   7885423.90745                  25603095.7024
        10.0004          8.2504
  22890091.6874    6988619.78247   5367322.80946                  22890098.1554
        27.0004         24.0004
  23837725.9134   -2491765.77946  -1883255.58046                  23837733.4294
        19.2504         18.5004
 02  7  9 20 51 45.0030000  0  7G 3G11G14G31G18G21G25
  25365537.3514   11051920.22545   8475278.24645                  25365548.8864
         9.7504         10.7504
  23950580.6244   -2001253.91146  -1501893.62846                  23950586.0734
        19.0004         16.0004
  21535135.4134    5647805.37447   4358655.94447                  21535140.0074
        26.7504         30.2504
  24266964.8824    8031231.26546   6185460.72146                  24266973.6164
        14.0004         14.0004
  25616819.0544   10338329.24345   7941648.94445                  25616826.7924
         9.2504          8.7504
  22899974.2654    7040552.52347   5407789.87346                  22899980.8044
        26.7504         23.7504
  23835237.2184   -2504844.47046  -1893446.69646                  23835244.5114
        19.7504         19.0004
 02  7  9 20 52  0.0030000  0  7G 3G11G14G31G18G21G25
  25380223.8664   11129097.64045   8535416.29845                  25380235.8584
        10.5004         10.5004
  23948571.6874   -2011809.01446  -1510118.36346                  23948576.2224
        19.2504         16.0004
  21544173.5224    5695300.38347   4395665.03847                  21544178.3394
        26.7504         30.2504
  24278949.1084    8094210.15946   6234535.16546                  24278956.9994
        14.5004         14.2504
  25630552.5854   10410503.27345   7997888.34945                  25630561.5544
         9.5004          8.5004
  22909866.3274    7092535.35047   5448295.96046                  22909872.9134
        26.5004         23.5004
  23832759.3664   -2517864.44746  -1903592.06346                  23832767.1284
        19.2504         19.0004
 02  7  9 20 52 15.0030000  0  7G 3G11G14G31G18G21G25
  25394911.0854   11206279.48845   8595557.85245                  25394923.1124
        10.2504         11.2504
  23946576.8824   -2022293.93346  -1518288.40046                  23946581.9094
        19.2504         16.5004
  21553231.3514    5742899.29047   4432755.09247                  21553236.1084
        27.2504         30.0004
  24290950.3824    8157277.08546   6283678.17746                  24290958.5074
        14.2504         14.2504
  25644290.8194   10482694.17245   8054140.98145                  25644298.3474
         9.5004          7.2504
  22919767.4134    7144566.62747   5488839.79946                  22919774.0694
        26.5004         23.7504
  23830292.3824   -2530826.94646  -1913692.64046                  23830300.1554
        18.5004         19.0004
 02  7  9 20 52 30.0030000  0  7G 3G11G14G31G18G21G25
  25409599.6944   11283467.76945   8655704.38745                  25409611.1244
        10.5004         11.0004
  23944595.0154   -2032706.03246  -1526401.70246                  23944600.7104
        19.2504         16.5004
  21562309.5074    5790604.33947   4469927.85547                  21562314.1594
        27.2504         30.0004
  24302968.6714    8220434.07446   6332891.37446                  24302976.4914
        13.2504         14.0004
  25658031.5694   10554904.34945   8110408.59545                  25658035.5304
         8.5004          7.2504
  22929678.1554    7196648.66047   5529423.19546                  22929684.7294
        27.0004         24.0004
  23827837.7574   -2543729.15646  -1923746.23046                  23827845.4484
        19.5004         19.2504
 02  7  9 20 52 45.0030000  0  7G 3G11G14G31G18G21G25
  25424287.6474   11360654.07645   8715849.39945                  25424297.9764
        11.0004         11.0004
  23942626.3434   -2043053.15546  -1534464.37946                  23942631.7924
        19.0004         16.5004
  21571406.0224    5838407.14647   4507176.79447                  21571410.4644
        27.7504         30.2504
  24315002.6244    8283672.56646   6382168.07646                  24315011.0194
        13.0004         13.7504
  25671774.0854   10627125.64344   8166684.91945                  25671782.6674
         7.2504          6.7504
  22939597.3974    7248773.45647   5570039.90446                  22939604.1014
        26.7504         24.0004
  23825392.2724   -2556578.99246  -1933759.02846                  23825400.0814
        19.5004         19.2504
 02  7  9 20 53  0.0030000  0  7G 3G11G14G31G18G21G25
  25438975.6944   11437841.35345   8775995.20945                  25438986.4914
        10.2504         10.0004
  23940670.0624   -2053331.53546  -1542473.48646                  23940675.1364
        18.7504         16.2504
  21580521.7264    5886310.79847   4544504.31247                  21580526.2494
        27.5004         30.2504
  24327052.8124    8346995.67146   6431510.71746                  24327060.9954
        13.2504         13.5004
  25685521.2334   10699361.38745   8222972.38145                  25685530.5424
         8.0004          7.0004
  22949525.3664    7300944.67847   5610692.79046                  22949532.0344
        27.0004         24.0004
  23822957.6554   -2569372.59646  -1943727.99346                  23822965.3354
        19.2504         19.2504
 02  7  9 20 53 15.0030000  0  7G 3G11G14G31G18G21G25
  25453666.4054   11515041.57245   8836151.07945                  25453677.5654
         8.7504         10.2504
  23938729.7184   -2063528.70046  -1550419.31146                  23938735.4834
        19.0004         16.5004
  21589659.0624    5934327.36047   4581919.81647                  21589663.7144
        27.2504         30.2504
  24339121.1084    8410415.21646   6480928.48746                  24339129.5854
        13.5004         14.0004
  25699272.3124   10771623.78045   8279280.75545                  25699279.7804
         8.0004          6.2504
  22959464.3124    7353174.51847   5651391.35946                  22959471.0974
        27.0004         24.0004
  23820535.9764   -2582097.53046  -1953643.46546                  23820543.0224
        18.7504         19.0004
 02  7  9 20 53 30.0030000  0  7G 3G11G14G31G18G21G25
  25468357.2104   11592240.18845   8896305.69545                  25468369.0264
         9.0004          9.7504
  23936802.0074   -2073658.39146  -1558312.55346                  23936807.1874
        18.7504         16.2504
  21598815.0624    5982442.53647   4619412.15647                  21598819.6904
        27.2504         30.2504
  24351205.2654    8473916.79346   6530410.19746                  24351213.1084
        14.0004         14.0004
  25713024.2334   10843898.84344   8335598.89445                  25713034.8784
         6.2504          5.7504
  22969411.6324    7405448.96947   5692124.69046                  22969418.6324
        26.5004         24.2504
  23818124.4054   -2594767.65546  -1963516.21646                  23818131.4644
        18.5004         18.7504
 02  7  9 20 53 45.0030000  0  7G 3G11G14G31G18G21G25
  25483046.7884   11669439.31645   8956460.73245                  25483059.7294
         8.7504          9.5004
  23934887.2724   -2083717.88846  -1566151.11046                  23934892.8044
        18.2504         16.0004
  21607990.2494    6030658.50947   4656983.03947                  21607994.8664
        27.7504         30.2504
  24363305.0854    8537502.46546   6579957.44546                  24363312.6244
        14.0004         13.5004
  25726781.4914   10916188.98244   8391928.87245                  25726790.2264
         6.5004          6.2504
  22979368.0774    7457770.37747   5732894.60246                  22979375.0304
        26.5004         24.0004
  23815724.5934   -2607380.02146  -1973343.96646                  23815731.8624
        18.7504         18.5004
 02  7  9 20 54  0.0030000  0  7G 3G11G14G31G18G21G25
  25497737.3664   11746633.42045   9016611.81645                  25497749.5814
         9.0004         10.0004
  23932985.6404   -2093712.09346  -1573938.77546                  23932991.4054
        18.5004         15.7504
  21617183.3434    6078969.84247   4694628.23447                  21617188.0544
        27.0004         30.2504
  24375420.0854    8601166.78946   6629565.96546                  24375427.5774
        14.2504         13.7504
  25740538.4134   10988488.89443   8448266.40845                  25740544.7184
         5.7504          5.2504
  22989332.5624    7510133.49747   5773697.01446                  22989339.4334
        26.5004         24.0004
  23813334.6324   -2619939.51646  -1983130.51446                  23813341.9834
        19.0004         19.0004
 02  7  9 20 54 15.0030000  0  7G 3G11G14G31G18G21G25
  25512426.7494   11823824.55245   9076760.61645                  25512439.4444
         8.7504         11.0004
  23931097.1404   -2103638.41746  -1581673.56146                  23931102.4954
        19.5004         16.7504
  21626395.5544    6127378.58147   4732349.32347                  21626400.1244
        27.5004         30.2504
  24387550.3514    8664911.61046   6679237.21346                  24387558.4874
        14.2504         14.0004
  25754298.3744   11060800.99442   8504613.42045                  25754309.7574
         4.5004          6.0004
  22999305.6164    7562540.94647   5814533.97946                  22999312.2144
        26.5004         23.7504
  23810955.2884   -2632443.50746  -1992873.81046                  23810962.4764
        19.5004         19.2504
 02  7  9 20 54 30.0030000  0  7G 3G11G14G31G18G21G25
  25527114.1794   11901006.10945   9136901.92045                  25527126.9794
         8.7504         10.5004
  23929220.1874   -2113502.76447  -1589360.04046                  23929225.4134
        20.0004         17.0004
  21635624.6324    6175878.36347   4770141.36347                  21635629.0624
        27.7504         30.2504
  24399694.9294    8728730.27346   6728965.99346                  24399702.7494
        14.2504         14.0004
  25768061.6084   11133118.93543   8560964.99245                  25768074.1044
         5.0004          6.5004
  23009285.4764    7614986.47847   5855400.60646                  23009291.9214
        26.2504         23.5004
  23808585.2654   -2644898.00847  -2002578.55646                  23808592.2294
        21.0004         19.0004
 02  7  9 20 54 45.0030000  0  7G 3G11G14G31G18G21G25
  25541802.1084   11978192.26145   9197046.80045                  25541815.6834
         8.5004         10.2504
  23927357.7334   -2123290.28447  -1596986.66446                  23927363.1714
        20.2504         17.0004
  21644873.9054    6224483.53947   4808015.52247                  21644878.5344
        27.2504         30.2504
  24411856.0224    8792637.07346   6778763.46746                  24411863.9254
        14.7504         14.0004
  25781827.3194   11205457.27443   8617332.43745                  25781836.3584
         5.5004          7.0004
  23019275.6014    7667484.77747   5896308.35946                  23019282.4604
        26.2504         23.5004
  23806227.4914   -2657287.86846  -2012232.93546                  23806234.5154
        19.5004         18.7504
 02  7  9 20 55  0.0030000  0  7G 3G11G14G31G18G21G25
  25556489.3824   12055374.36645   9257188.56445                  25556501.9014
         8.0004          9.5004
  23925508.0304   -2133008.94047  -1604559.61746                  23925513.6444
        20.2504         17.5004
  21654141.7964    6273185.69947   4845965.25447                  21654146.4484
        27.2504         30.2504
  24424032.2334    8856623.48946   6828622.96746                  24424039.8544
        14.7504         14.0004
  25795596.3354   11277807.79343   8673709.41045                  25795607.1554
         5.7504          7.2504
  23029274.1244    7720027.45247   5937250.69346                  23029280.9214
        25.7504         23.5004
  23803880.5694   -2669621.06946  -2021843.15846                  23803887.7224
        19.5004         19.2504
 02  7  9 20 55 15.0040000  0  7G 3G11G14G31G18G21G25
  25571176.3164   12132552.01845   9317326.82745                  25571190.1844
         7.5004          8.7504
  23923670.2624   -2142664.28046  -1612083.23346                  23923676.0274
        19.2504         16.7504
  21663427.1444    6321982.44147   4883988.69047                  21663431.7854
        27.2504         30.0004
  24436223.6684    8920688.02946   6878543.35746                  24436231.2074
        14.7504         14.2504
  25809366.7384   11350169.97145   8730095.43745                  25809376.3984
         8.0004          8.5004
  23039280.6054    7772612.76947   5978226.25146                  23039287.5594
        25.5004         23.5004
  23801542.9494   -2681903.33146  -2031413.68346                  23801550.2074
        19.2504         19.5004
 02  7  9 20 55 30.0040000  0  7G 3G11G14G31G18G21G25
  25585862.1914   12209726.53745   9377462.64445                  25585875.8714
         7.7504          9.2504
  23921847.8324   -2152242.76346  -1619546.97346                  23921853.6214
        19.5004         16.7504
  21672731.9734    6370879.14547   4922090.01547                  21672736.7774
        26.7504         29.7504
  24448429.9574    8984833.87646   6928527.08146                  24448438.0004
        14.7504         14.5004
  25823139.2304   11422546.05645   8786492.35545                  25823147.6134
         9.0004          9.0004
  23049296.4734    7825245.85147   6019239.02846                  23049303.1874
        26.2504         23.2504
  23799217.8484   -2694120.74046  -2040933.67446                  23799225.1174
        19.5004         19.2504
 02  7  9 20 55 45.0040000  0  7G 3G11G14G31G18G21G25
  25600548.3944   12286901.21045   9437598.58945                  25600561.5944
         8.7504         10.2504
  23920039.3874   -2161746.27346  -1626952.27846                  23920044.8364
        19.5004         17.0004
  21682056.0044    6419877.30147   4960270.39047                  21682060.8444
        26.5004         29.7504
  24460652.2384    9049063.38846   6978576.01346                  24460659.9184
        14.0004         14.0004
  25836915.1684   11494939.48745   8842902.75445                  25836924.0194
         8.7504          9.0004
  23059321.5984    7877928.65947   6060290.55446                  23059328.4064
        26.5004         23.2504
  23796905.1684   -2706275.26347  -2050404.65946                  23796911.7304
        20.0004         19.0004
 02  7  9 20 56  0.0040000  0  7G 3G11G14G31G18G21G25
  25615235.6444   12364080.21045   9497737.93445                  25615248.1174
        10.5004         11.2504
  23918245.8794   -2171169.89646  -1634295.34346                  23918251.5274
        19.2504         16.2504
  21691400.2624    6468981.31547   4998533.25247                  21691405.0434
        27.0004         29.7504
  24472891.2074    9113380.89246   7028693.49946                  24472899.4964
        13.7504         13.7504
  25850695.6684   11567354.75045   8899330.17145                  25850702.6094
        10.5004          9.7504
  23069357.2234    7930666.21547   6101384.74046                  23069363.7974
        25.7504         23.0004
  23794605.1994   -2718361.89847  -2059822.75746                  23794611.4104
        20.2504         19.2504
 02  7  9 20 56 15.0040000  0  7G 3G11G14G31G18G21G25
  25629921.4654   12441253.17846   9557872.54646                  25629933.1764
        12.2504         12.2504
  23916466.0744   -2180523.31346  -1641583.69946                  23916472.1334
        18.7504         16.2504
  21700762.5274    6518180.90047   5036870.58547                  21700767.3444
        26.7504         29.5004
  24485145.5044    9177775.95046   7078871.42846                  24485153.3944
        13.5004         14.2504
  25864478.3484   11639781.88345   8955766.85645                  25864485.7694
        11.0004          9.5004
  23079401.3244    7983448.35147   6142513.65946                  23079408.0744
        26.0004         23.0004
  23792316.0824   -2730390.43647  -2069195.58346                  23792323.2584
        20.5004         20.0004
 02  7  9 20 56 30.0040000  0  7G 3G11G14G31G18G21G25
  25644605.6294   12518419.27746   9618001.84046                  25644617.0124
        13.0004         12.7504
  23914699.1764   -2189806.80846  -1648817.58246                  23914705.0704
        19.2504         16.2504
  21710143.1374    6567475.30847   5075281.80747                  21710147.9884
        26.7504         29.5004
  24497414.0194    9242247.68746   7129109.09746                  24497422.5784
        13.5004         13.7504
  25878262.1764   11712220.41545   9012212.44945                  25878271.6254
         9.2504          9.5004
  23089454.1374    8036274.46947   6183676.85846                  23089460.9104
        25.5004         23.2504
  23790038.1844   -2742361.17047  -2078523.35446                  23790045.8164
        20.2504         19.7504
 02  7  9 20 56 45.0040000  0  7G 3G11G14G31G18G21G25
  25659289.8244   12595581.81946   9678128.36246                  25659302.1214
        13.0004         13.0004
  23912947.0744   -2199016.53646  -1655993.95946                  23912952.7694
        19.7504         16.7504
  21719542.2624    6616867.83547   5113769.48747                  21719546.9614
        26.7504         29.7504
  24509697.9344    9306799.27646   7179408.98746                  24509706.0474
        13.7504         14.0004
  25892050.4734   11784673.82445   9068669.57445                  25892059.4774
         9.7504          9.2504
  23099515.6764    8089148.24547   6224877.18846                  23099522.4734
        26.5004         23.2504
  23787771.8944   -2754270.15246  -2087803.01846                  23787779.4574
        19.5004         19.7504
 02  7  9 20 57  0.0040000  0  7G 3G11G14G31G18G21G25
  25673972.4884   12672739.00246   9738250.67746                  25673985.6874
        12.2504         12.5004
  23911208.1764   -2208153.45146  -1663113.61746                  23911213.8124
        19.5004         16.7504
  21728959.5434    6666356.96147   5152332.43947                  21728964.1374
        27.0004         29.7504
  24521996.1604    9371429.03946   7229769.81146                  24522004.2274
        14.0004         14.0004
  25905840.3014   11857140.59745   9125137.13945                  25905848.5554
         9.5004          9.5004
  23109585.8094    8142068.11947   6266113.44446                  23109592.7974
        26.2504         23.2504
  23785517.2304   -2766118.43347  -2097035.37646                  23785524.5004
        21.0004         19.7504
 02  7  9 20 57 15.0040000  0  6G 3G11G14G31G21G25
  25688654.3944   12749895.34345   9798372.32545                  25688667.0314
        10.7504         11.5004
  23909484.6444   -2217212.36947  -1670172.50046                  23909490.3164
        20.0004         17.5004
  21738396.3714    6715947.24747   5190974.20747                  21738400.8594
        27.5004         30.0004
  24534311.0194    9436141.34746   7280194.93146                  24534319.1444
        14.0004         13.7504
  23119665.8244    8195039.23347   6307389.62546                  23119672.7544
        26.2504         23.5004
  23783274.9734   -2777900.69847  -2106216.30046                  23783282.7464
        20.0004         20.0004
 02  7  9 20 57 30.0040000  0  6G 3G11G14G31G21G25
  25703336.9104   12827052.00945   9858494.22845                  25703349.4534
        10.0004         10.2504
  23907775.7154   -2226191.52647  -1677169.23746                  23907781.2344
        20.5004         17.2504
  21747852.6214    6765640.03947   5229695.85747                  21747857.2034
        27.0004         30.0004
  24546641.2234    9500937.43546   7330685.34946                  24546649.7114
        14.2504         13.7504
  23129756.2074    8248063.10047   6348706.90746                  23129763.1374
        26.5004         23.5004
  23781045.6054   -2789615.19247  -2115344.40846                  23781052.9804
        20.5004         20.0004
 02  7  9 20 57 45.0040000  0  6G 3G11G14G31G21G25
  25718017.5354   12904201.11145   9918610.25645                  25718028.5314
         9.2504          9.7504
  23906081.0354   -2235098.30947  -1684109.55746                  23906086.5784
        21.0004         17.7504
  21757326.8404    6815427.53647   5268491.30647                  21757331.5624
        26.7504         30.0004
  24558986.0904    9565809.36746   7381234.86546                  24558994.3094
        14.2504         14.0004
  23139855.0354    8301132.25947   6390059.48346                  23139861.9064
        26.0004         23.2504
  23778827.9734   -2801269.13047  -2124425.33746                  23778835.0904
        21.5004         20.0004
 02  7  9 20 58  0.0040000  0  6G 3G11G14G31G21G25
  25732695.4574   12981334.70145   9978714.18245                  25732707.4734
         9.0004          8.7504
  23904398.6374   -2243939.95047  -1690999.12046                  23904404.1334
        20.7504         17.7504
  21766817.6054    6865301.96047   5307354.48947                  21766822.2814
        27.0004         30.0004
  24571343.7304    9630749.21246   7431837.29846                  24571352.1724
        14.2504         14.0004
  23149960.4654    8354238.95147   6431441.31146                  23149967.1214
        25.7504         22.7504
  23776620.4414   -2812869.64947  -2133464.64346                  23776627.2854
        21.7504         20.0004
 02  7  9 20 58 15.0040000  0  6G 3G11G14G31G21G25
  25747371.7074   13058459.88945  10038811.59145                  25747385.3164
         9.2504          8.7504
  23902729.7694   -2252708.71147  -1697831.89646                  23902735.4884
        20.5004         17.7504
  21776326.3324    6915270.53947   5346291.03747                  21776331.0784
        27.2504         30.0004
  24583715.9734    9695764.15546   7482498.24046                  24583723.4184
        13.5004         14.0004
  23160074.9574    8407390.75047   6472858.27946                  23160081.5314
        25.5004         23.0004
  23774424.5044   -2824409.03547  -2142456.31646                  23774431.2074
        22.0004         20.0004
 02  7  9 20 58 30.0040000  0  6G 3G11G14G31G21G25
  25762047.9884   13135580.03045  10098905.06345                  25762063.0624
         9.5004          7.7504
  23901075.4884   -2261400.63447  -1704604.80046                  23901080.9964
        20.2504         18.0004
  21785853.4574    6965336.63847   5385303.57147                  21785858.1684
        27.2504         30.0004
  24596102.8634    9760857.34446   7533220.15846                  24596111.3404
        14.0004         13.7504
  23170198.9344    8460591.36547   6514313.29446                  23170205.5784
        26.2504         22.7504
  23772241.2464   -2835883.33247  -2151397.26746                  23772248.2114
        22.7504         20.2504
 02  7  9 20 58 45.0040000  0  6G 3G11G14G31G21G25
  25776722.5354   13212695.31445  10158994.74945                  25776735.2074
         8.7504          8.2504
  23899436.1914   -2270014.90647  -1711317.20546                  23899441.5594
        21.0004         18.0004
  21795399.5354    7015500.56547   5424392.33947                  21795404.5274
        27.2504         29.7504
  24608504.1214    9826029.07746   7584003.27746                  24608512.7154
        13.7504         14.0004
  23180332.1214    8513841.76547   6555807.09546                  23180339.0514
        25.2504         22.7504
  23770070.2624   -2847291.54347  -2160286.73546                  23770076.9064
        23.0004         20.7504
 02  7  9 20 59  0.0040000  0  6G 3G11G14G31G21G25
  25791395.1294   13289799.00145  10219075.41545                  25791405.3874
         7.7504          7.7504
  23897810.9884   -2278557.59547  -1717973.82646                  23897816.3674
        21.2504         18.0004
  21804962.6684    7065755.63247   5463552.12647                  21804967.5664
        27.2504         30.0004
  24620919.6764    9891272.42746   7634842.20546                  24620928.0354
        13.7504         14.0004
  23190473.6684    8567135.08347   6597334.34146                  23190480.6094
        26.0004         22.7504
  23767910.9264   -2858639.89247  -2169129.53146                  23767917.7974
        22.7504         20.5004
 02  7  9 20 59 15.0040000  0  6G 3G11G14G31G21G25
  25806065.2854   13366893.94145  10279149.23245                  25806076.6094
         7.5004          7.5004
  23896199.4024   -2287025.14847  -1724571.89846                  23896204.7584
        21.2504         18.2504
  21814543.8874    7116104.96647   5502785.37047                  21814548.6914
        27.0004         29.7504
  24633349.5664    9956590.39946   7685739.28746                  24633358.0194
        14.2504         14.0004
  23200623.8554    8620474.80047   6638897.74646                  23200630.5124
        26.0004         22.5004
  23765763.4104   -2869924.84247  -2177922.94946                  23765770.1844
        24.2504         20.7504
 02  7  9 20 59 30.0040000  0  6G 3G11G14G31G21G25
  25820735.8324   13443984.01445  10339219.24345                  25820747.2384
         8.0004          8.2504
  23894603.0744   -2295412.97647  -1731107.84946                  23894608.2774
        20.5004         18.0004
  21824143.7074    7166552.50647   5542095.13247                  21824148.4064
        27.2504         30.0004
  24645793.9104   10021986.81846   7736697.49146                  24645801.9774
        14.7504         14.0004
  23210783.5664    8673865.34947   6680500.75846                  23210790.0594
        26.0004         22.5004
  23763628.6134   -2881141.81847  -2186663.39746                  23763634.9654
        23.5004         20.0004
 02  7  9 20 59 45.0040000  0  6G 3G11G14G31G21G25
  25835404.6374   13521066.51045  10399283.33545                  25835418.0594
         9.7504          9.2504
  23893021.6844   -2303723.21147  -1737583.34746                  23893027.1564
        20.2504         18.2504
  21833761.7154    7217095.59247   5581479.35047                  21833766.3914
        27.7504         30.2504
  24658252.6294   10087458.99046   7787714.71746                  24658261.0824
        14.2504         14.5004
  23220952.5514    8727304.28047   6722141.46346                  23220959.4574
        24.5004         22.5004
  23761506.4494   -2892292.89347  -2195352.49146                  23761513.0354
        22.2504         20.2504
 02  7  9 21  0  0.0040000  0  6G 3G11G14G31G21G25
  25850071.0744   13598138.45645  10459339.24445                  25850083.5004
        10.7504         10.2504
  23891454.7304   -2311958.11947  -1744000.14246                  23891461.0354
        20.2504         18.2504
  21843397.5194    7267731.43547   5620935.84647                  21843402.1724
        27.7504         30.2504
  24670725.4964   10153003.88446   7838788.61146                  24670734.1134
        13.7504         14.0004
  23231130.4964    8780788.90547   6763817.78046                  23231137.3674
        25.2504         22.5004
  23759396.6604   -2903380.19247  -2203991.88246                  23759403.2934
        22.7504         20.0004
 02  7  9 21  0 15.0040000  0  6G 3G11G14G31G21G25
  25864736.4734   13675206.26945  10519391.95645                  25864749.8484
        11.7504         11.2504
  23889903.3094   -2320110.81247  -1750352.86846                  23889909.3794
        20.0004         17.7504
  21853052.0664    7318466.47448   5660469.63847                  21853056.6484
        28.0004         30.2504
  24683213.9184   10218627.82146   7889924.08746                  24683222.7344
        13.5004         14.0004
  23241318.1914    8834326.04147   6805535.01146                  23241324.6024
        25.2504         22.0004
  23757300.3404   -2914396.69847  -2212576.12346                  23757307.0194
        23.2504         20.2504
 02  7  9 21  0 30.0040000  0  6G 3G11G14G31G21G25
  25879398.6994   13752258.33945  10579432.35945                  25879411.1374
        11.7504         11.5004
  23888365.3164   -2328192.18946  -1756650.01246                  23888371.5514
        19.5004         17.7504
  21862723.1844    7369289.27447   5700071.81147                  21862727.7894
        27.7504         30.2504
  24695714.1214   10284319.14546   7941112.08546                  24695722.8914
        13.2504         13.7504
  23251513.7464    8887904.43947   6847284.40346                  23251520.2504
        24.7504         22.0004
  23755215.2544   -2925353.26247  -2221113.66346                  23755221.4414
        22.7504         20.0004
 02  7  9 21  0 45.0040000  0  6G 3G11G14G31G21G25
  25894058.8244   13829296.52345  10639461.96146                  25894072.6094
        11.7504         12.0004
  23886841.4884   -2336199.71246  -1762889.62246                  23886847.6644
        19.5004         17.7504
  21872411.4104    7420201.81447   5739743.91047                  21872416.0514
        27.7504         30.0004
  24708228.1374   10350079.90746   7992354.19046                  24708236.6844
        13.7504         13.7504
  23261717.7774    8941526.40247   6889067.72846                  23261724.7304
        24.7504         22.5004
  23753142.1994   -2936247.38147  -2229602.53246                  23753149.2114
        21.5004         20.2504
 02  7  9 21  1  0.0040000  0  6G 3G11G14G31G21G25
  25908717.9734   13906327.76745  10699486.15146                  25908731.4414
        11.2504         12.0004
  23885333.3404   -2344125.92347  -1769065.87546                  23885339.1294
        20.2504         18.0004
  21882118.4184    7471211.21947   5779491.48947                  21882123.1174
        27.2504         30.0004
  24720756.7934   10415916.87246   8043655.65246                  24720764.8014
        13.2504         13.7504
  23271931.7234    8995199.11547   6930890.60446                  23271938.5944
        25.5004         22.5004
  23751082.2934   -2947071.62247  -2238036.94946                  23751089.6094
        22.0004         20.5004
 02  7  9 21  1 15.0040000  0  6G 3G11G14G31G21G25
  25923374.2384   13983348.21245  10759501.92545                  25923386.8164
         9.2504         10.2504
  23883839.7074   -2351973.89247  -1775181.14046                  23883845.3914
        20.5004         18.0004
  21891842.8014    7522313.69147   5819311.58547                  21891847.6294
        27.5004         30.0004
  24733298.8014   10481826.20046   8095013.53246                  24733306.5864
        13.2504         14.0004
  23282153.8714    9048919.27847   6972750.45846                  23282160.5274
        24.7504         22.2504
  23749035.1524   -2957829.02647  -2246419.28946                  23749042.5164
        22.7504         21.0004
 02  7  9 21  1 30.0040000  0  6G 3G11G14G31G21G25
  25938028.9494   14060357.54544  10819509.02845                  25938043.6134
         7.2504         10.0004
  23882361.5514   -2359743.34147  -1781235.24046                  23882367.1054
        20.5004         18.2504
  21901585.0984    7573509.07247   5859204.08447                  21901589.9024
        27.5004         30.0004
  24745854.7774   10547807.58646   8146427.54846                  24745863.5594
        13.5004         13.7504
  23292385.7464    9102686.85947   7014647.26046                  23292392.6524
        24.0004         22.0004
  23747000.5124   -2968519.20447  -2254749.24746                  23747008.0744
        21.7504         20.7504
 02  7  9 21  1 45.0040000  0  6G 3G11G14G31G21G25
  25952680.8404   14137361.82943  10879512.18845                  25952693.9694
         5.0004          8.2504
  23880899.2384   -2367427.62047  -1787222.96846                  23880904.8524
        21.2504         18.2504
  21911346.0904    7624803.43547   5899173.71247                  21911350.7774
        27.5004         30.0004
  24758425.5594   10613866.97646   8197902.34346                  24758434.0124
        13.5004         13.5004
  23302627.7934    9156508.40747   7056586.10946                  23302634.6024
        24.7504         22.2504
  23744980.3324   -2979135.43747  -2263021.57746                  23744987.1294
        21.5004         20.7504
 02  7  9 21  2  0.0040000  0  6G 3G11G14G31G21G25
  25967330.0434   14214341.83042  10939496.39945                  25967343.2664
         4.5004          6.2504
  23879449.4964   -2375045.28247  -1793158.79846                  23879455.2624
        21.2504         18.0004
  21921122.2234    7676177.54547   5939205.47347                  21921126.8284
        27.5004         30.0004
  24771007.1134   10679985.09546   8249422.90346                  24771015.4264
        13.5004         13.5004
  23312876.3944    9210365.01647   7098552.28746                  23312883.0394
        25.2504         22.2504
  23742970.7384   -2989696.47847  -2271250.91346                  23742977.4414
        21.2504         20.5004
 02  7  9 21  2 15.0040000  0  6G 3G11G14G31G21G25
  25981978.1214   14291314.67642  10999474.98045                  25981993.3124
         4.5004          6.0004
  23878015.8484   -2382578.62947  -1799028.91546                  23878021.4024
        20.5004         18.0004
  21930916.8014    7727648.69347   5979312.86047                  21930921.6174
        27.5004         30.0004
  24783603.5594   10746178.97146   8301002.50146                  24783611.9654
        13.7504         13.5004
  23323134.8014    9264274.16847   7140559.39846                  23323141.8944
        24.5004         22.2504
  23740974.9494   -3000184.36747  -2279423.25246                  23740982.2194
        22.2504         21.0004
 02  7  9 21  2 30.0040000  0  6G 3G11G14G31G21G25
  25996624.0514   14368281.47244  11059448.91945                  25996635.9734
         6.5004          7.0004
  23876598.7774   -2390025.88647  -1804831.95646                  23876604.7424
        20.5004         18.0004
  21940730.3714    7779218.16847   6019496.85347                  21940735.0944
        27.7504         30.2504
  24796214.5824   10812449.79046   8352642.04846                  24796223.3634
        14.0004         13.5004
  23333403.8794    9318237.53247   7182608.74946                  23333410.8674
        24.2504         21.7504
  23738993.4804   -3010597.46147  -2287537.30446                  23739001.0084
        21.2504         21.2504
 02  7  9 21  2 45.0040000  0  6G 3G11G14G31G21G25
  26011268.3244   14445232.54345  11119410.68245                  26011282.1334
         8.0004          7.2504
  23875196.0124   -2397396.04447  -1810574.90546                  23875201.7424
        20.2504         17.7504
  21950560.2854    7830876.34747   6059749.97647                  21950565.0194
        27.5004         30.0004
  24808838.5744   10878787.79246   8404333.93346                  24808846.6764
        14.5004         13.7504
  23343681.1054    9372245.73747   7224693.05046                  23343687.7734
        24.5004         22.0004
  23737024.1214   -3020944.70947  -2295600.03546                  23737031.5904
        21.5004         21.5004
 02  7  9 21  3  0.0040000  0  6G 3G11G14G31G21G25
  26025909.8794   14522173.59445  11179364.58745                  26025922.7504
         9.0004          7.7504
  23873809.3404   -2404682.78947  -1816252.87846                  23873815.1874
        20.5004         18.0004
  21960408.3874    7882629.07947   6100076.77547                  21960413.2034
        27.2504         30.0004
  24821476.2234   10945198.71246   8456082.64546                  24821484.2664
        14.2504         13.7504
  23353968.2384    9426304.80347   7266816.98946                  23353975.2384
        24.2504         22.2504
  23735069.2304   -3031219.69747  -2303606.46846                  23735076.2894
        22.0004         20.7504
 02  7  9 21  3 15.0040000  0  6G 3G11G14G31G21G25
  26040549.4344   14599101.59645  11239308.39345                  26040562.5864
         9.0004          7.7504
  23872438.2154   -2411888.42347  -1821867.63246                  23872443.8874
        21.2504         18.5004
  21970274.0514    7934473.46547   6140474.99347                  21970278.6444
        27.7504         30.0004
  24834126.7624   11011679.56146   8507885.87346                  24834134.5474
        13.5004         13.5004
  23364264.6684    9480411.97347   7308978.39546                  23364271.9614
        24.5004         22.0004
  23733127.1764   -3041424.83747  -2311558.49346                  23733133.8554
        22.5004         21.0004
 02  7  9 21  3 30.0040000  0  6G 3G11G14G31G21G25
  26055186.4804   14676020.57345  11299245.11245                  26055198.4734
         9.2504          8.2504
  23871083.4264   -2419008.43847  -1827415.67746                  23871089.1684
        21.5004         18.5004
  21980158.0514    7986413.64548   6180947.85247                  21980162.8324
        28.0004         30.0004
  24846791.9024   11078234.19846   8559746.55946                  24846800.4374
        13.5004         13.5004
  23374570.9264    9534571.85247   7351180.88146                  23374577.8204
        25.0004         21.7504
  23731199.3404   -3051555.54547  -2319452.50746                  23731206.9614
        21.2504         21.2504
 02  7  9 21  3 45.0040000  0  6G 3G11G14G31G21G25
  26069821.8944   14752929.21145  11359173.78045                  26069834.0864
        10.0004          8.5004
  23869744.7774   -2426043.38047  -1832897.42646                  23869750.2974
        22.2504         18.7504
  21990060.1684    8038448.44947   6221494.44747                  21990065.0084
        27.5004         30.2504
  24859470.8094   11144861.38546   8611663.80446                  24859479.5554
        13.2504         13.5004
  23384887.1444    9588783.59547   7393423.78246                  23384893.8714
        25.5004         22.0004
  23729285.3244   -3061612.27447  -2327288.85646                  23729292.8754
        21.7504         20.7504
 02  7  9 21  4  0.0040000  0  6G 3G11G14G31G21G25
  26084455.6914   14829827.72545  11419094.56745                  26084470.3554
         8.7504          8.7504
  23868422.3794   -2432992.47747  -1838312.29746                  23868427.4654
        23.2504         19.2504
  21999979.9574    8090578.13347   6262114.97547                  21999984.7734
        27.5004         30.2504
  24872163.1444   11211561.18546   8663637.61946                  24872171.8204
        13.2504         13.2504
  23395213.0274    9643047.72047   7435707.50646                  23395219.7424
        24.5004         22.0004
  23727386.0434   -3071594.17647  -2335066.92046                  23727392.6644
        22.5004         20.7504
 02  7  9 21  4 15.0040000  0  6G 3G11G14G31G21G25
  26099084.9414   14906709.62445  11479002.38745                  26099099.9224
         8.0004          9.5004
  23867115.5354   -2439861.50447  -1843664.77246                  23867120.6444
        22.5004         19.0004
  22009917.0664    8142796.36048   6302804.49647                  22009921.7664
        28.0004         30.2504
  24884868.2074   11278327.28946   8715663.11346                  24884876.5904
        12.7504         13.0004
  23405548.2154    9697358.03947   7478027.21346                  23405555.1804
        24.5004         21.7504
  23725499.6604   -3081506.99147  -2342791.16146                  23725505.5084
        22.0004         20.2504
 02  7  9 21  4 30.0040000  0  6G 3G11G14G31G21G25
  26113712.5664   14983575.57045  11538897.75745                  26113726.5984
         7.5004          9.0004
  23865823.6214   -2446649.28947  -1848953.93846                  23865828.5314
        22.2504         18.7504
  22019870.6444    8195103.79148   6343563.52647                  22019875.2154
        28.0004         30.2504
  24897586.0984   11345160.05746   8767740.54346                  24897594.6334
        12.7504         13.0004
  23415892.0194    9751715.70647   7520383.81346                  23415898.8794
        24.2504         21.5004
  23723626.4884   -3091349.62247  -2350460.70946                  23723632.6764
        21.7504         20.2504
 02  7  9 21  4 45.0040000  0  6G 3G11G14G31G21G25
  26128334.8484   15060417.20844  11598774.17445                  26128349.5474
         6.5004          8.7504
  23864545.8554   -2453363.65447  -1854185.89146                  23864550.7194
        22.0004         18.5004
  22029839.8714    8247491.96247   6384385.46947                  22029844.7464
        27.5004         30.2504
  24910315.0744   11412051.23346   8819863.47646                  24910323.0474
        12.5004         12.7504
  23426243.3874    9806112.46247   7562770.88546                  23426250.2934
        24.5004         21.5004
  23721765.5274   -3101129.83247  -2358081.60746                  23721772.2424
        22.2504         21.0004
 02  7  9 21  5  0.0040000  0  6G 3G11G14G31G21G25
  26142954.6604   15137250.89443  11658644.42145                  26142968.6914
         5.0004          8.2504
  23863285.2544   -2459987.47647  -1859347.29846                  23863290.0824
        21.7504         18.5004
  22039827.3324    8299977.52447   6425283.30847                  22039832.2544
        27.5004         30.2504
  24923057.8874   11479017.00345   8872044.55446                  24923065.8834
        11.7504         12.5004
  23436605.2774    9860565.35347   7605201.69746                  23436612.0514
        24.2504         21.2504
  23719919.5514   -3110830.53147  -2365640.55946                  23719925.7974
        22.0004         21.0004
 02  7  9 21  5 15.0040000  0  6G 3G11G14G31G21G25
  26157574.3484   15214074.57643  11718506.84645                  26157589.2584
         5.5004          8.0004
  23862041.6994   -2466522.26347  -1864439.31946                  23862046.7854
        22.0004         18.2504
  22049832.9414    8352558.63047   6466255.59047                  22049838.1094
        27.7504         30.2504
  24935815.0904   11546055.35645   8924282.18046                  24935823.2854
        11.7504         12.2504
  23446977.9104    9915072.64547   7647674.88646                  23446984.9104
        23.7504         21.2504
  23718088.4574   -3120453.04147  -2373138.58746                  23718095.0904
        22.0004         21.2504
 02  7  9 21  5 30.0040000  0  6G 3G11G14G31G21G25
  26172189.9734   15290875.37943  11778351.44245                  26172203.9344
         5.7504          8.5004
  23860812.9104   -2472980.30347  -1869471.54446                  23860817.8094
        22.0004         18.7504
  22059854.9574    8405222.32547   6507292.22847                  22059859.9264
        27.7504         30.2504
  24948583.6684   11613153.34845   8976566.25946                  24948592.4734
        11.7504         12.2504
  23457358.3484    9969621.72047   7690180.63946                  23457365.3944
        23.7504         21.2504
  23716269.8014   -3130009.55747  -2380585.17946                  23716276.5624
        21.5004         21.0004
 02  7  9 21  5 45.0040000  0  6G 3G11G14G31G21G25
  26186799.1604   15367651.90443  11838177.07545                  26186811.1294
         5.7504          7.2504
  23859598.3634   -2479362.26047  -1874444.47646                  23859603.2154
        22.2504         18.7504
  22069891.7304    8457967.43447   6548392.31147                  22069896.6294
        27.5004         30.2504
  24961363.2464   11680309.62146   9028895.78246                  24961370.7274
        12.2504         12.0004
  23467746.2384   10024211.52047   7732718.13646                  23467753.1214
        23.7504         21.0004
  23714463.6134   -3139500.80047  -2387980.91146                  23714470.4574
        22.7504         21.5004
 02  7  9 21  6  0.0040000  0  6G 3G11G14G31G21G25
  26201407.4024   15444413.57143  11897991.26545                  26201419.2304
         6.0004          8.0004
  23858400.5434   -2485657.99847  -1879350.24046                  23858405.7694
        22.2504         18.7504
  22079946.3944    8510803.50447   6589563.26747                  22079951.5624
        27.7504         30.2504
  24974155.5194   11747533.68246   9081278.13245                  24974163.9374
        12.2504         11.7504
  23478144.0594   10078851.95147   7775295.07546                  23478151.4104
        23.0004         21.0004
  23712671.7694   -3148916.61947  -2395317.87646                  23712678.5784
        23.0004         22.0004
 02  7  9 21  6 15.0040000  0  6G 3G11G14G31G21G25
  26216012.1294   15521158.13244  11957792.04345                  26216024.7664
         6.2504          7.5004
  23857218.3324   -2491869.26247  -1884190.16746                  23857223.6294
        22.5004         19.0004
  22090017.1994    8563728.28447   6630803.35347                  22090022.1684
        27.2504         30.0004
  24986960.5124   11814822.97546   9133711.26946                  24986968.6374
        12.5004         12.2504
  23488551.2464   10133541.09147   7817909.97446                  23488558.5514
        23.2504         20.7504
  23710894.0594   -3158258.74147  -2402597.41446                  23710900.6214
        22.5004         22.0004
 02  7  9 21  6 30.0040000  0  6G 3G11G14G31G21G25
  26230612.3404   15597883.99744  12017578.26945                  26230625.4574
         6.2504          7.0004
  23856052.4184   -2497997.08247  -1888965.08246                  23856057.9734
        22.2504         19.0004
  22100105.2074    8616740.29547   6672111.40947                  22100110.1874
        27.7504         30.0004
  24999777.3404   11882176.01346   9186194.09446                  24999785.3124
        13.0004         13.0004
  23498967.2074   10188277.93847   7860562.04546                  23498974.3484
        23.5004         21.0004
  23709130.0904   -3167528.02547  -2409820.19046                  23709136.8634
        22.0004         22.0004
 02  7  9 21  6 45.0040000  0  6G 3G11G14G31G21G25
  26245209.0044   15674587.88345  12077347.39645                  26245222.7664
         7.5004          7.2504
  23854901.5354   -2504044.00347  -1893676.95446                  23854907.3484
        21.7504         18.7504
  22110209.2464    8669836.39447   6713484.98547                  22110214.2384
        27.7504         30.2504
  25012605.7074   11949589.39346   9238723.96946                  25012614.5004
        13.2504         12.7504
  23509391.8404   10243059.35747   7903248.84646                  23509399.0274
        23.5004         21.2504
  23707379.6134   -3176727.11047  -2416988.27246                  23707386.3284
        23.0004         22.2504
 02  7  9 21  7  0.0040000  0  6G 3G11G14G31G21G25
  26259801.8244   15751270.62745  12137100.07245                  26259815.4804
         8.0004          7.5004
  23853766.3944   -2510008.50847  -1898324.60646                  23853772.1134
        22.0004         18.7504
  22120329.2384    8723017.51448   6754924.81247                  22120334.2544
        28.0004         30.0004
  25025445.8634   12017063.96446   9291301.51446                  25025454.2584
        12.5004         12.5004
  23519824.8484   10297886.62647   7945971.38446                  23519831.9774
        23.7504         21.0004
  23705642.5594   -3185854.53547  -2424100.52446                  23705649.1684
        22.7504         22.5004
 02  7  9 21  7 15.0040000  0  6G 3G11G14G31G21G25
  26274389.3944   15827932.25045  12196836.19645                  26274404.6914
         8.2504          6.7504
  23852647.3554   -2515889.98647  -1902907.55046                  23852653.2154
        22.0004         19.2504
  22130465.4184    8776283.67047   6796430.90647                  22130470.3634
        27.7504         30.0004
  25038297.3484   12084599.75146   9343926.74446                  25038305.9774
        12.2504         12.5004
  23530266.9414   10352760.05347   7988729.87646                  23530273.8714
        23.2504         20.7504
  23703919.3164   -3194909.84047  -2431156.56246                  23703926.4344
        22.7504         22.7504
 02  7  9 21  7 30.0050000  0  6G 3G11G14G31G21G25
  26288976.5324   15904583.05945  12256563.98845                  26288991.7944
         9.5004          7.0004
  23851544.8844   -2521683.04647  -1907421.60546                  23851550.6494
        22.0004         19.2504
  22140619.4704    8829643.83848   6838010.25247                  22140624.5674
        28.0004         30.0004
  25051162.4464   12152206.39346   9396607.20346                  25051170.5014
        12.5004         12.5004
  23540719.6734   10407688.68947   8031531.39746                  23540726.5054
        23.2504         20.7504
  23702210.9934   -3203887.54647  -2438152.13746                  23702218.0634
        22.2504         23.0004
 02  7  9 21  7 45.0050000  0  6G 3G11G14G31G21G25
  26303556.8924   15981206.83745  12316270.62745                  26303569.4814
         8.7504          6.7504
  23850458.8064   -2527392.20047  -1911870.27546                  23850464.2204
        23.2504         19.7504
  22150789.0244    8883085.01547   6879652.72047                  22150794.2514
        27.7504         29.7504
  25064038.3764   12219868.84746   9449331.12346                  25064046.8064
        12.2504         12.2504
  23551180.2284   10462659.77747   8074366.00146                  23551186.9544
        23.0004         20.7504
  23700516.6734   -3212791.72347  -2445090.41446                  23700523.2474
        23.5004         22.7504
 02  7  9 21  8  0.0050000  0  5G11G14G31G21G25
  23849387.0794   -2533023.82247  -1916258.55046                  23849392.2244
        23.7504         20.0004
  22160973.5014    8936604.27648   6921356.03247                  22160978.5874
        28.0004         30.2504
  25076924.1494   12287585.03145   9502096.93946                  25076933.4934
        11.5004         12.2504
  23561648.3214   10517670.95647   8117231.83146                  23561655.2864
        22.5004         20.7504
  23698835.0714   -3221628.88847  -2451976.48946                  23698841.7864
        23.0004         22.7504
 02  7  9 21  8 15.0050000  0  5G11G14G31G21G25
  23848332.2744   -2538566.89647  -1920577.81546                  23848337.2434
        24.0004         20.2504
  22171174.7434    8990212.04348   6963128.31647                  22171179.5834
        28.0004         30.0004
  25089822.3294   12355365.18345   9554912.56546                  25089831.3104
        11.7504         12.2504
  23572126.5714   10572732.90347   8160137.22446                  23572133.7124
        23.0004         20.5004
  23697168.0094   -3230388.19947  -2458801.88246                  23697174.8804
        23.7504         23.0004
 02  7  9 21  8 30.0050000  0  5G11G14G31G21G25
  23847293.4384   -2544025.79347  -1924831.49346                  23847298.6304
        23.7504         20.2504
  22181391.8454    9043903.38648   7004965.72047                  22181396.6734
        28.2504         30.2504
  25102732.0564   12423204.39246   9607774.24646                  25102740.9074
        12.0004         12.2504
  23582613.2984   10627841.15647   8203078.70546                  23582620.0484
        23.2504         20.5004
  23695514.8374   -3239073.80847  -2465569.84746                  23695521.6574
        23.7504         22.7504
 02  7  9 21  8 45.0050000  0  5G11G14G31G21G25
  23846269.6654   -2549405.37047  -1929023.35946                  23846274.5524
        23.7504         20.2504
  22191623.7984    9097673.10548   7046864.20147                  22191628.4744
        28.2504         30.2504
  25115651.3684   12491097.20045   9660677.67746                  25115660.3724
        11.7504         12.0004
  23593107.7674   10682990.59747   8246052.28546                  23593114.9314
        22.7504         20.7504
  23693875.4544   -3247690.59947  -2472284.19646                  23693882.2744
        23.0004         22.7504
 02  7  9 21  9  0.0050000  0  5G11G14G31G21G25
  23845263.2744   -2554693.75447  -1933144.15946                  23845267.9854
        23.2504         19.7504
  22201872.9464    9151532.30548   7088832.40647                  22201877.5994
        28.7504         30.0004
  25128583.2284   12559054.64345   9713631.47046                  25128592.7124
        11.7504         12.0004
  23603612.5484   10738192.52547   8289066.75646                  23603619.5834
        22.7504         20.5004
  23692250.8134   -3256226.85147  -2478935.78446                  23692257.7674
        23.2504         23.2504
 02  7  9 21  9 15.0050000  0  5G11G14G31G21G25
  23844272.9934   -2559895.86447  -1937197.73346                  23844278.4784
        22.0004         19.2504
  22212138.0404    9205475.64548   7130866.16947                  22212142.4354
        28.7504         30.2504
  25141526.2354   12627071.12245   9766631.28545                  25141535.7784
        11.7504         11.7504
  23614126.0094   10793441.90447   8332118.20246                  23614132.8924
        22.2504         20.5004
  23690640.8134   -3264687.31047  -2485528.30946                  23690647.5994
        24.0004         23.2504
 02  7  9 21  9 30.0050000  0  5G11G14G31G21G25
  23843299.0874   -2565012.67647  -1941184.85146                  23843304.6424
        21.7504         19.2504
  22222418.9854    9259501.69048   7172964.38147                  22222423.6964
        28.5004         30.2504
  25154480.8454   12695145.12946   9819675.88646                  25154489.8604
        12.5004         12.0004
  23624648.3294   10848737.65447   8375205.78846                  23624654.9154
        21.7504         20.2504
  23689045.1654   -3273072.89747  -2492062.49246                  23689051.7284
        24.7504         23.2504
 02  7  9 21  9 45.0050000  0  5G11G14G31G21G25
  23842341.9544   -2570043.91847  -1945105.28246                  23842347.3214
        21.5004         19.0004
  22232715.3454    9313610.16748   7215126.82847                  22232720.1494
        28.5004         30.0004
  25167446.1734   12763276.20546   9872764.99346                  25167454.4854
        12.2504         12.0004
  23635179.6344   10904079.70747   8418329.44146                  23635186.6224
        21.7504         20.0004
  23687463.7984   -3281383.32947  -2498538.12646                  23687470.1264
        24.5004         23.2504
 02  7  9 21 10  0.0050000  0  5G11G14G31G21G25
  23841400.8994   -2574989.18447  -1948958.73246                  23841406.5484
        22.0004         19.2504
  22243027.2124    9367800.84548   7257353.32447                  22243032.1344
        28.5004         30.0004
  25180421.5484   12831464.08646   9925898.36246                  25180430.5284
        12.2504         12.0004
  23645719.9384   10959468.07547   8461489.19046                  23645727.0564
        22.0004         20.2504
  23685896.6494   -3289618.20447  -2504954.87046                  23685903.1534
        24.5004         23.5004
 02  7  9 21 10 15.0050000  0  5G11G14G31G21G25
  23840476.1034   -2579849.86647  -1952746.26746                  23840481.5994
        22.7504         19.2504
  22253354.8604    9422071.76048   7299642.34347                  22253359.7944
        28.5004         30.0004
  25193407.2124   12899706.69645   9979074.34646                  25193416.2394
        11.7504         12.0004
  23656268.3924   11014901.36747   8504683.94546                  23656275.6614
        21.7504         20.0004
  23684343.8294   -3297778.87447  -2511313.79846                  23684350.6034
        25.0004         23.7504
 02  7  9 21 10 30.0050000  0  5G11G14G31G21G25
  23839568.5794   -2584619.78547  -1956463.07646                  23839574.0524
        23.2504         19.5004
  22263698.6884    9476428.76847   7341998.45147                  22263703.6924
        27.7504         30.0004
  25206405.5564   12968009.55446  10032297.29646                  25206414.3724
        12.2504         12.2504
  23666826.8534   11070385.57847   8547918.37746                  23666834.2044
        21.7504         20.0004
  23682805.9784   -3305859.10447  -2517610.04646                  23682812.7284
        25.2504         23.7504
 02  7  9 21 10 45.0050000  0  5G11G14G31G21G25
  23838677.9074   -2589299.38047  -1960109.50746                  23838683.1574
        23.7504         20.0004
  22274058.7434    9530870.73048   7384420.75247                  22274063.8294
        28.2504         30.0004
  25219414.2824   13036371.60246  10085566.39046                  25219424.2944
        12.0004         12.0004
  23677394.5874   11125920.05447   8591191.97446                  23677401.9384
        21.7504         19.7504
  23681283.6964   -3313859.33547  -2523843.95446                  23681290.1184
        25.2504         24.0004
 02  7  9 21 11  0.0050000  0  5G11G14G31G21G25
  23837804.2044   -2593891.65847  -1963687.88246                  23837809.4784
        23.7504         20.0004
  22284434.1494    9585394.09748   7426906.49047                  22284439.0604
        28.2504         30.0004
  25232432.8604   13104789.04846  10138878.61546                  25232441.5954
        12.7504         12.0004
  23687971.3844   11181501.17647   8634501.91946                  23687978.5834
        21.5004         19.7504
  23679775.8764   -3321782.44347  -2530017.77046                  23679782.4034
        25.5004         24.0004
 02  7  9 21 11 15.0050000  0  5G11G14G31G21G25
  23836949.0174   -2598385.98147  -1967189.94646                  23836954.1034
        23.7504         20.2504
  22294827.0404    9640009.05248   7469463.59447                  22294831.9034
        28.2504         29.7504
  25245466.0564   13173272.02946  10192241.91846                  25245475.4234
        13.2504         12.0004
  23698558.7674   11237139.73047   8677856.62746                  23698565.8604
        21.7504         19.5004
  23678285.0634   -3329617.88947  -2536123.27646                  23678291.7674
        26.0004         24.2504
 02  7  9 21 11 30.0050000  0  5G11G14G31G21G25
  23836109.9704   -2602793.59047  -1970624.42646                  23836115.2784
        24.0004         20.0004
  22305235.1814    9694703.83248   7512082.89847                  22305240.2314
        28.2504         29.7504
  25258507.4854   13241808.51346  10245646.94646                  25258514.9424
        13.0004         12.2504
  23709155.2044   11292823.82347   8721246.81646                  23709162.4744
        21.2504         19.2504
  23676808.4074   -3337377.01147  -2542169.30746                  23676814.9114
        25.5004         24.2504
 02  7  9 21 11 45.0050000  0  5G11G14G31G21G25
  23835288.1734   -2607111.72447  -1973989.18446                  23835293.5994
        23.7504         20.7504
  22315658.8684    9749480.73348   7554766.19447                  22315663.8374
        28.2504         29.7504
  25271560.5484   13310400.68246  10299095.33946                  25271568.3684
        13.5004         12.0004
  23719760.9784   11348556.26047   8764674.66146                  23719768.1774
        21.5004         19.5004
  23675346.9154   -3345056.93947  -2548153.63146                  23675353.3254
        25.7504         24.2504
 02  7  9 21 12  0.0050000  0  5G11G14G31G21G25
  23834482.9784   -2611344.60047  -1977287.51646                  23834488.6144
        23.7504         20.5004
  22326097.0404    9804334.89448   7597509.69647                  22326102.1144
        28.2504         29.7504
  25284622.0564   13379043.57546  10352583.27346                  25284629.7824
        12.2504         12.0004
  23730374.6494   11404332.60547   8808136.73446                  23730381.8254
        21.7504         19.5004
  23673899.5634   -3352661.75747  -2554079.42646                  23673905.8684
        26.2504         24.2504
 02  7  9 21 12 15.0050000  0  5G11G14G31G21G25
  23833694.7124   -2615486.28247  -1980514.78846                  23833700.0674
        23.5004         20.5004
  22336551.3764    9859271.85848   7640317.71247                  22336556.1694
        29.0004         30.0004
  25297695.8604   13447742.56646  10406114.88645                  25297704.7474
        12.2504         11.5004
  23740998.0954   11460158.45647   8851637.38746                  23741004.9894
        21.2504         19.0004
  23672468.0014   -3360185.44847  -2559942.01146                  23672474.3764
        27.0004         24.2504
 02  7  9 21 12 30.0050000  0  5G11G14G31G21G25
  23832922.6964   -2619541.34447  -1983674.56546                  23832928.5564
        23.2504         20.2504
  22347020.1654    9914286.38448   7683186.16647                  22347024.7824
        29.0004         30.0004
  25310778.3534   13516492.40945  10459686.14445                  25310787.7084
        11.7504         11.2504
  23751629.8534   11516028.82647   8895172.72346                  23751636.9704
        21.5004         19.2504
  23671050.7124   -3367632.78847  -2565745.09746                  23671056.9114
        26.0004         24.5004
 02  7  9 21 12 45.0050000  0  5G11G14G31G21G25
  23832167.5404   -2623509.09347  -1986766.31346                  23832172.9194
        23.0004         20.0004
  22357503.8924    9969378.54948   7726115.12147                  22357508.6384
        29.0004         30.0004
  25323870.6184   13585292.97145  10513296.90845                  25323880.0914
        11.5004         11.5004
  23762270.0244   11571944.16847   8938743.10646                  23762276.9314
        21.0004         19.2504
  23669648.2434   -3375002.96347  -2571488.04746                  23669654.7474
        26.0004         24.5004
 02  7  9 21 13  0.0050000  0  5G11G14G31G21G25
  23831429.9384   -2627384.94947  -1989786.45446                  23831435.6224
        22.2504         20.0004
  22368003.4314   10024552.58648   7769107.87247                  22368008.2824
        29.2504         30.0004
  25336973.1104   13654148.30945  10566950.33945                  25336982.5954
        11.2504         11.7504
  23772920.0244   11627909.13947   8982352.14546                  23772927.0364
        21.0004         19.0004
  23668261.1424   -3382291.47547  -2577167.37546                  23668267.4354
        25.2504         24.0004
 02  7  9 21 13 15.0050000  0  5G11G14G31G21G25
  23830708.9314   -2631174.01647  -1992738.96846                  23830714.4854
        22.7504         20.0004
  22378517.2354   10079802.90048   7812160.06447                  22378522.0874
        28.7504         30.2504
  25350085.7284   13723052.56745  10620641.92746                  25350093.5484
        11.7504         12.0004
  23783578.5244   11683918.22847   9025995.56646                  23783585.6304
        21.7504         19.5004
  23666888.7824   -3389503.43447  -2582787.04546                  23666894.9234
        25.5004         23.7504
 02  7  9 21 13 30.0050000  0  5G11G14G31G21G25
  23830006.8374   -2634864.94647  -1995615.00546                  23830012.4624
        23.0004         20.0004
  22389047.6884   10135140.28948   7855280.09947                  22389052.4934
        29.2504         30.0004
  25363209.1734   13792016.56745  10674380.05146                  25363217.3684
        11.7504         12.0004
  23794247.0014   11739982.65347   9069682.11746                  23794253.8844
        21.5004         19.2504
  23665533.1424   -3396627.25847  -2588338.04946                  23665539.4814
        25.5004         23.7504
 02  7  9 21 13 45.0050000  0  5G11G14G31G21G25
  23829321.5244   -2638467.37247  -1998422.07246                  23829327.1614
        23.5004         20.2504
  22399592.4624   10190554.50748   7898460.00347                  22399597.3954
        29.2504         30.2504
  25376341.8844   13861029.89146  10728156.61046                  25376350.8644
        12.5004         12.2504
  23804924.3924   11796092.41847   9113403.99846                  23804931.2514
        21.0004         19.2504
  23664192.3454   -3403672.58647  -2593827.86646                  23664198.7554
        25.7504         24.0004
 02  7  9 21 14  0.0050000  0  5G11G14G31G21G25
  23828654.3534   -2641973.40647  -2001154.03646                  23828659.8604
        24.5004         20.5004
  22410153.4234   10246052.90048   7941705.49647                  22410158.2634
        29.0004         30.2504
  25389485.6344   13930099.74646  10781977.22646                  25389494.6964
        12.2504         12.5004
  23815611.9384   11852255.03847   9157167.05546                  23815619.2314
        21.5004         19.7504
  23662868.2204   -3410631.54247  -2599250.39746                  23662874.8534
        25.5004         23.7504
 02  7  9 21 14 15.0050000  0  5G11G14G31G21G25
  23828005.1104   -2645385.27347  -2003812.61246                  23828010.2434
        25.2504         21.0004
  22420729.7744   10301632.75248   7985014.46747                  22420734.6614
        29.0004         30.2504
  25402640.0714   13999223.37846  10835839.74646                  25402648.7004
        12.5004         12.5004
  23826308.7674   11908468.22447   9200969.52446                  23826315.8604
        22.0004         19.5004
  23661559.7434   -3417506.33847  -2604607.34446                  23661566.2124
        25.5004         24.0004
 02  7  9 21 14 30.0050000  0  5G11G14G31G21G25
  23827374.1734   -2648701.87947  -2006396.96446                  23827379.1534
        25.5004         21.2504
  22431322.0014   10357294.60648   8028387.33247                  22431326.8064
        29.2504         30.2504
  25415803.2044   14068401.11746  10889744.40346                  25415811.1534
        12.2504         12.7504
  23837015.5484   11964732.61447   9244811.89046                  23837022.3454
        22.2504         19.5004
  23660267.7204   -3424295.80547  -2609897.79746                  23660274.2594
        25.2504         24.0004
 02  7  9 21 14 45.0050000  0  5G11G14G31G21G25
  23826759.9854   -2651928.84447  -2008911.47046                  23826764.9784
        25.7504         21.2504
  22441928.5634   10413032.43748   8071819.40147                  22441933.2394
        29.5004         30.5004
  25428976.6184   14137626.81445  10943686.45646                  25428985.9034
        11.5004         12.0004
  23847731.1964   12021042.73147   9288689.88546                  23847738.0174
        21.7504         19.5004
  23658991.1964   -3431005.49447  -2615126.08946                  23658997.7824
        25.5004         24.0004
 02  7  9 21 15  0.0050000  0  5G11G14G31G21G25
  23826162.1104   -2655069.85747  -2011358.99446                  23826166.9274
        25.2504         21.2504
  22452548.7044   10468841.86648   8115307.26047                  22452553.4854
        29.7504         30.2504
  25442158.1184   14206895.86745  10997662.26445                  25442167.3454
        11.5004         11.7504
  23858454.3764   12077394.56447   9332600.37846                  23858461.3534
        21.5004         19.5004
  23657728.6264   -3437639.20447  -2620295.17846                  23657735.2594
        26.2504         24.2504
 02  7  9 21 15 15.0050000  0  5G11G14G31G21G25
  23825581.7744   -2658118.55147  -2013734.59246                  23825586.6614
        25.2504         21.0004
  22463183.7124   10524728.87448   8158855.56947                  22463188.6574
        29.5004         30.2504
  25455348.3924   14276214.22745  11051676.49545                  25455356.7044
        11.2504         11.7504
  23869186.9854   12133794.07947   9376548.03346                  23869194.2084
        21.7504         19.5004
  23656481.8764   -3444190.51947  -2625400.06046                  23656488.3454
        26.2504         24.5004
 02  7  9 21 15 30.0050000  0  5G11G14G31G21G25
  23825017.5174   -2661083.11847  -2016044.63346                  23825022.2744
        24.5004         20.7504
  22473831.5794   10580684.74948   8202457.54647                  22473836.5134
        29.5004         30.5004
  25468548.4464   14345572.95045  11105722.20345                  25468556.9354
        11.5004         11.7504
  23879926.9544   12190232.84847   9420526.27646                  23879933.9314
        21.5004         19.5004
  23655249.4854   -3450667.73647  -2630447.20446                  23655255.8844
        26.2504         24.2504
 02  7  9 21 15 45.0050000  0  5G11G14G31G21G25
  23824471.0324   -2663956.32847  -2018283.48246                  23824476.0604
        24.2504         20.5004
  22484494.1734   10636716.12348   8246118.35147                  22484499.3294
        29.2504         30.2504
  25481755.3374   14414978.48646  11159804.38146                  25481764.7744
        12.2504         12.0004
  23890675.6424   12246717.67447   9464540.40946                  23890682.6424
        21.5004         19.0004
  23654032.2674   -3457063.52447  -2635430.90046                  23654038.5954
        26.2504         24.2504
 02  7  9 21 16  0.0050000  0  5G11G14G31G21G25
  23823942.2594   -2666734.76547  -2020448.49146                  23823947.4624
        24.7504         21.2504
  22495171.4784   10692825.91148   8289840.25547                  22495176.6454
        29.2504         30.2504
  25494971.6734   14484433.74845  11213925.30945                  25494980.7244
        11.5004         11.7504
  23901433.7514   12303251.98447   9508593.09746                  23901440.8104
        21.0004         19.5004
  23652831.3604   -3463374.49947  -2640348.51246                  23652837.5364
        26.5004         24.2504
 02  7  9 21 16 15.0050000  0  5G11G14G31G21G25
  23823433.0404   -2669410.52247  -2022533.48346                  23823438.5364
        24.7504         21.0004
  22505864.9854   10749021.40248   8333628.94247                  22505870.0714
        29.7504         30.2504
  25508199.7984   14553945.86745  11268090.53846                  25508209.6224
        11.7504         12.0004
  23912202.5714   12359843.43847   9552690.31846                  23912209.1224
        21.0004         18.7504
  23651648.0794   -3469592.76247  -2645193.86646                  23651654.3254
        26.7504         24.5004
 02  7  9 21 16 30.0050000  0  5G11G14G31G21G25
  23822939.3064   -2672005.52547  -2024555.55346                  23822944.6144
        24.5004         21.0004
  22516570.8294   10805280.10048   8377466.88547                  22516575.9274
        29.2504         30.2504
  25521434.2124   14623492.26345  11322282.47245                  25521444.0834
        11.2504         11.0004
  23922978.5014   12416469.94047   9596814.84746                  23922985.0634
        21.2504         18.5004
  23650478.2824   -3475740.07547  -2649983.95046                  23650484.4704
        26.0004         24.5004
 02  7  9 21 16 45.0050000  0  6G20G11G14G31G21G25
  26464813.4934      -6359.81455
         9.0004
  23822462.7124   -2674507.83247  -2026505.40046                  23822468.1734
        24.5004         21.0004
  22527290.6964   10861613.51948   8421363.04847                  22527295.9704
        29.2504         30.5004
  25534676.5014   14693084.24845  11376509.91945                  25534686.3724
        10.5004         11.7504
  23933763.0244   12473143.13547   9640975.76646                  23933769.5054
        21.2504         18.5004
  23649324.0564   -3481804.30647  -2654709.28346                  23649330.1384
        26.2504         24.5004
 02  7  9 21 17  0.0050000  0  6G20G11G14G31G21G25
  26462542.8374     -18290.33145
         9.7504
  23822004.4624   -2676916.77047  -2028382.48546                  23822010.0404
        24.5004         21.2504
  22538024.8844   10918021.91748   8465317.63447                  22538030.0054
        29.5004         30.2504
  25547929.0324   14762721.87845  11430772.95645                  25547938.2704
        10.7504         11.0004
  23944556.4784   12529863.39147   9685173.35046                  23944563.4314
        21.5004         18.7504
  23648186.1264   -3487785.03747  -2659369.56346                  23648192.3604
        26.2504         24.2504
 02  7  9 21 17 15.0050000  0  6G20G11G14G31G21G25
  26460272.1184     -30223.94545
        11.0004
  23821565.0484   -2679226.41947  -2030182.19846                  23821570.8024
        24.5004         20.7504
  22548774.3214   10974510.54248   8509334.73947                  22548779.3024
        29.2504         30.2504
  25561190.0954   14832410.34445  11485075.58445                  25561199.2514
        10.5004         10.7504
  23955360.0244   12586636.45347   9729412.08046                  23955366.8214
        21.0004         18.5004
  23647064.9544   -3493676.34647  -2663960.15446                  23647071.0364
        26.5004         24.5004
 02  7  9 21 17 30.0050000  0  6G20G11G14G31G21G25
  26457999.6494     -42164.86145     -3723.50855                  26458007.7744
        11.7504         11.5004
  23821143.8684   -2681440.82747  -2031907.70046                  23821149.2474
        25.2504         21.5004
  22559538.0564   11031074.90348   8553410.85547                  22559543.1304
        30.0004         30.5004
  25574460.2744   14902145.00945  11539414.23345                  25574469.6534
        10.2504         11.5004
  23966172.7124   12643458.18047   9773688.73846                  23966179.7704
        21.7504         18.5004
  23645960.2594   -3499482.22747  -2668484.18346                  23645966.4584
        27.0004         24.7504
 02  7  9 21 17 45.0050000  0  6G20G11G14G31G21G25
  26455726.0634     -54113.96946    -13034.42645                  26455733.7904
        12.0004         11.5004
  23820740.3604   -2683560.71747  -2033559.55646                  23820745.4114
        26.5004         22.0004
  22570316.1264   11087713.71648   8597544.98847                  22570320.9544
        30.2504         30.5004
  25587738.5564   14971924.44645  11593787.75845                  25587747.3134
        10.5004         11.2504
  23976994.3764   12700327.29547   9818002.31246                  23977001.0094
        21.5004         18.5004
  23644871.4784   -3505203.33247  -2672942.15146                  23644877.4424
        26.5004         24.7504
 02  7  9 21 18  0.0050000  0  6G20G11G14G31G21G25
  26453451.3294     -66068.86145    -22349.86645                  26453459.3254
        11.7504         11.5004
  23820355.6964   -2685583.37547  -2035135.63246                  23820360.7354
        26.7504         22.0004
  22581108.9624   11144429.23148   8641738.89047                  22581113.7434
        30.2504         30.7504
  25601026.7984   15041750.74945  11648197.80645                  25601036.3294
        10.7504         11.2504
  23987826.1424   12757246.39347   9862354.85346                  23987832.4464
        21.2504         18.5004
  23643799.5014   -3510836.86147  -2677331.87846                  23643805.6304
        26.2504         24.5004
 02  7  9 21 18 15.0050000  0  6G20G11G14G31G21G25
  26451176.8604     -78021.29945    -31663.43345                  26451184.9274
        11.0004         11.2504
  23819990.8294   -2687500.39747  -2036629.41046                  23819995.7164
        26.5004         21.7504
  22591917.4464   11201229.38248   8685998.73747                  22591922.3214
        30.0004         30.5004
  25614324.5564   15111631.62345  11702650.38145                  25614335.3884
        11.0004         11.2504
  23998668.5014   12814223.51547   9906752.59446                  23998674.8994
        21.0004         18.5004
  23642745.5714   -3516374.56747  -2681646.93746                  23642751.8764
        26.2504         25.0004
 02  7  9 21 18 30.0050000  0  6G20G11G14G31G21G25
  26448901.1264     -89979.55745    -40981.47045                  26448908.4894
        11.0004         10.5004
  23819644.5484   -2689319.76447  -2038047.08446                  23819649.3994
        27.0004         22.2504
  22602740.7434   11258105.62648   8730317.88047                  22602745.6774
        30.2504         30.2504
  25627631.0094   15181558.46645  11757138.73346                  25627640.8564
        11.2504         12.0004
  24009520.1264   12871250.50047   9951189.17946                  24009527.2314
        21.2504         18.5004
  23641708.4854   -3521824.27847  -2685893.42246                  23641714.9424
        26.5004         25.0004
 02  7  9 21 18 45.0050000  0  6G20G11G14G31G21G25
  26446623.8844    -101946.25245    -50306.10545                  26446630.9074
        10.5004          9.2504
  23819316.3764   -2691043.74947  -2039390.43246                  23819321.0634
        26.5004         22.0004
  22613577.7434   11315055.04548   8774694.04347                  22613582.6774
        30.5004         30.2504
  25640945.3294   15251528.19745  11811660.54945                  25640954.9194
        10.2504         11.2504
  24020381.2594   12928324.70447   9995662.57046                  24020388.7514
        21.0004         18.2504
  23640687.7434   -3527188.31947  -2690073.15846                  23640693.7674
        26.2504         24.7504
 02  7  9 21 19  0.0050000  0  6G20G11G14G31G21G25
  26444345.0174      -9579.86555    -59637.67445                  26444353.2704
        10.0004          9.7504
  23819006.5094   -2692672.73447  -2040659.75846                  23819011.4424
        26.0004         21.7504
  22624428.6424   11372076.88348   8819126.63347                  22624433.6224
        30.2504         30.2504
  25654268.8454   15321540.00545  11866215.12445                  25654278.5524
        10.5004         11.2504
  24031251.0324   12985445.64547  10040172.37046                  24031257.8644
        21.7504         18.2504
  23639683.1104   -3532466.95847  -2694186.35046                  23639689.2044
        26.5004         25.0004
 02  7  9 21 19 15.0050000  0  6G20G11G14G31G21G25
  26442063.7124     -21566.71445    -68978.00945                  26442072.5754
        10.2504          9.7504
  23818713.7354   -2694208.90947  -2041856.76146                  23818718.8454
        25.5004         21.5004
  22635292.8684   11429168.30348   8863613.44547                  22635297.8134
        30.0004         30.2504
  25667599.6884   15391590.89145  11920800.17545                  25667609.9114
        10.5004         11.2504
  24042129.3374   13042611.11547  10084716.88646                  24042136.0054
        21.7504         18.7504
  23638694.4464   -3537662.42747  -2698234.73246                  23638700.4704
        27.0004         25.2504
 02  7  9 21 19 30.0050000  0  6G20G11G14G31G21G25
  26439782.5564     -33554.59545    -78319.16445                  26439791.6654
         9.7504          9.5004
  23818441.1034   -2695641.84747  -2042973.33146                  23818446.3294
        25.2504         21.5004
  22646172.3684   11486339.41848   8908162.36147                  22646177.3844
        30.0004         30.2504
  25680938.3534   15461690.74345  11975423.35545                  25680948.1064
        10.2504         11.7504
  24053017.9624   13099831.27747  10129303.99946                  24053024.9854
        22.0004         19.5004
  23637723.6264   -3542764.22247  -2702210.12146                  23637729.6384
        27.0004         25.5004
 02  7  9 21 19 45.0050000  0  6G20G11G14G31G21G25
  26437501.0244     -45542.94845    -87660.68745                  26437508.1184
         8.5004          7.7504
  23818188.2744   -2696970.60547  -2044008.71646                  23818193.7474
        24.5004         21.5004
  22657066.5564   11543590.46748   8952773.55547                  22657071.2674
        30.2504         29.5004
  25694287.2044   15531839.71145  12030084.81046                  25694297.0284
        11.0004         12.2504
  24063917.4234   13157106.85247
        21.7504
  23636770.7674   -3547771.61147  -2706111.95146                  23636777.0954
        26.7504         25.5004
 02  7  9 21 20  0.0060000  0  6G20G11G14G31G21G25
  26435219.0214     -57535.18544    -97005.20245                  26435223.7564
         7.2504          6.7504
  23817954.8184   -2698197.74947  -2044964.91946                  23817960.2214
        25.0004         21.2504
  22667976.4124   11600922.33548   8997447.71447                  22667981.1464
        30.0004         30.5004
  25707645.8964   15602039.39345  12084785.80646                  25707656.0254
        11.0004         12.0004
  24074827.0374   13214438.68247
        21.5004
  23635835.1154   -3552687.25947  -2709942.28647                  23635841.5374
        26.2504         25.7504
